[[{"header":{"parameterUnit":"m.s-1","parameterCategory":1,"la1":30.6,"la2":29.2853,"lo1":-89.7004,"lo2":-87.6739,"dy":0.0162,"dx":0.0183,"nx":112,"ny":82,"refTime":"2023-03-31T12:00:00:Z","depth":0,"parameterNumber":2,"parameterNumberName":"U-component_of_WINDS"},"data":[0.0,0.0,0.0,0.0,0.0,0.0,0.0,0.0,0.0,0.0,0.0,0.0,0.0,0.0,0.0,0.0,0.0,0.0,0.0,0.0,0.0,0.0,0.0,0.0,0.0,0.0,0.0,0.0,0.0,0.0,0.0,0.0,0.0,0.0,0.0,0.0,0.0,0.0,0.0,0.0,0.0,0.0,0.0,0.0,0.0,0.0,0.0,0.0,0.0,0.0,0.0,0.0,0.0,0.0,0.0,0.0,0.0,0.0,0.0,0.0,0.0,0.0,0.0,0.0,0.0,0.0,0.0,0.0,0.0,0.0,0.0,0.0,0.0,0.0,0.0,0.0,0.0,0.0,0.0,0.0,0.0,0.0,0.0,0.0,0.0,0.0,0.0,0.0,0.0,0.0,-2.7982,-3.4176,-4.0751,-4.4433,-4.3681,-4.2508,-3.7159,-2.6284,0.0,0.0,0.0,0.0,0.0,0.0,0.0,0.0,0.0,0.0,0.0,0.0,0.0,0.0,0.0,0.0,0.0,0.0,0.0,0.0,0.0,0.0,0.0,0.0,0.0,0.0,0.0,0.0,0.0,0.0,0.0,0.0,0.0,0.0,0.0,0.0,0.0,0.0,0.0,0.0,0.0,0.0,0.0,0.0,0.0,0.0,0.0,0.0,0.0,0.0,0.0,0.0,0.0,0.0,0.0,0.0,0.0,0.0,0.0,0.0,0.0,0.0,0.0,0.0,0.0,0.0,0.0,0.0,0.0,0.0,0.0,0.0,0.0,0.0,0.0,0.0,0.0,0.0,0.0,0.0,0.0,0.0,0.0,0.0,0.0,0.0,0.0,0.0,0.0,0.0,0.0,0.0,0.0,0.0,0.0,0.0,0.0,0.0,0.0,0.0,0.0,0.0,0.0,0.0,-3.0749,-3.9462,-4.1436,-4.2111,-4.1972,-3.9254,-3.4355,-2.6958,0.0,0.0,0.0,0.0,0.0,0.0,0.0,0.0,0.0,0.0,0.0,0.0,0.0,0.0,0.0,0.0,0.0,0.0,0.0,0.0,0.0,0.0,0.0,0.0,0.0,0.0,0.0,0.0,0.0,0.0,0.0,0.0,0.0,0.0,0.0,0.0,0.0,0.0,0.0,0.0,0.0,0.0,0.0,0.0,0.0,0.0,0.0,0.0,0.0,0.0,0.0,0.0,0.0,0.0,0.0,0.0,0.0,0.0,0.0,0.0,0.0,0.0,0.0,0.0,0.0,0.0,0.0,0.0,0.0,0.0,0.0,0.0,0.0,0.0,0.0,0.0,0.0,0.0,0.0,0.0,0.0,0.0,0.0,0.0,0.0,0.0,0.0,0.0,0.0,0.0,0.0,0.0,0.0,0.0,0.0,0.0,0.0,0.0,0.0,0.0,0.0,0.0,0.0,-2.9514,-3.4546,-4.0873,-4.2103,-4.1983,-4.0808,-3.8079,-3.3315,-2.5991,-2.5183,0.0,0.0,0.0,0.0,0.0,0.0,0.0,0.0,0.0,0.0,0.0,0.0,0.0,0.0,0.0,0.0,0.0,0.0,0.0,0.0,0.0,0.0,0.0,0.0,0.0,0.0,0.0,0.0,0.0,0.0,0.0,0.0,0.0,0.0,0.0,0.0,0.0,0.0,0.0,0.0,0.0,0.0,0.0,0.0,0.0,0.0,0.0,0.0,0.0,0.0,0.0,0.0,0.0,0.0,0.0,0.0,0.0,0.0,0.0,0.0,0.0,0.0,0.0,0.0,0.0,0.0,0.0,0.0,0.0,0.0,0.0,0.0,0.0,0.0,0.0,0.0,0.0,0.0,0.0,0.0,0.0,0.0,0.0,0.0,0.0,0.0,0.0,0.0,0.0,0.0,0.0,0.0,0.0,0.0,0.0,0.0,0.0,0.0,0.0,0.0,0.0,0.0,-3.3491,-3.736,-4.0908,-4.176,-4.1383,-3.9748,-3.6983,-3.2287,-2.5195,-2.3496,0.0,0.0,0.0,0.0,0.0,0.0,0.0,0.0,0.0,0.0,0.0,0.0,0.0,0.0,0.0,0.0,0.0,0.0,0.0,0.0,0.0,0.0,0.0,0.0,0.0,0.0,0.0,0.0,0.0,0.0,0.0,0.0,0.0,0.0,0.0,0.0,0.0,0.0,0.0,0.0,0.0,0.0,0.0,0.0,0.0,0.0,0.0,0.0,0.0,0.0,0.0,0.0,0.0,0.0,0.0,0.0,0.0,0.0,0.0,0.0,0.0,0.0,0.0,0.0,0.0,0.0,0.0,0.0,0.0,0.0,0.0,0.0,0.0,0.0,0.0,0.0,0.0,0.0,0.0,0.0,0.0,0.0,0.0,0.0,0.0,0.0,0.0,0.0,0.0,0.0,0.0,0.0,0.0,0.0,0.0,0.0,0.0,0.0,0.0,0.0,0.0,0.0,-3.3371,-3.7573,-4.0277,-3.9469,-3.8663,-3.8533,-3.4734,-3.0421,-2.5791,-2.2394,0.0,0.0,0.0,0.0,0.0,0.0,0.0,0.0,0.0,0.0,0.0,0.0,0.0,0.0,0.0,0.0,0.0,0.0,0.0,0.0,0.0,0.0,0.0,0.0,0.0,0.0,0.0,0.0,0.0,0.0,0.0,0.0,0.0,0.0,0.0,0.0,0.0,0.0,0.0,0.0,0.0,0.0,0.0,0.0,0.0,0.0,0.0,0.0,0.0,0.0,0.0,0.0,0.0,0.0,0.0,0.0,0.0,0.0,0.0,0.0,0.0,0.0,0.0,0.0,0.0,0.0,0.0,0.0,0.0,0.0,0.0,0.0,0.0,0.0,0.0,0.0,0.0,0.0,0.0,0.0,0.0,0.0,0.0,0.0,0.0,0.0,0.0,0.0,0.0,0.0,0.0,0.0,0.0,0.0,0.0,0.0,0.0,0.0,0.0,0.0,0.0,0.0,-3.2243,-3.5778,-3.8971,-3.8788,-3.8051,-3.7177,-3.3971,-2.975,-2.4365,0.0,0.0,0.0,0.0,0.0,0.0,0.0,0.0,0.0,0.0,0.0,0.0,0.0,0.0,0.0,0.0,0.0,0.0,0.0,0.0,0.0,0.0,0.0,0.0,0.0,0.0,0.0,0.0,0.0,0.0,0.0,0.0,0.0,0.0,0.0,0.0,0.0,0.0,0.0,0.0,0.0,0.0,0.0,0.0,0.0,0.0,0.0,0.0,0.0,0.0,0.0,0.0,0.0,0.0,0.0,0.0,0.0,0.0,0.0,0.0,0.0,0.0,0.0,0.0,0.0,0.0,0.0,0.0,0.0,0.0,0.0,0.0,0.0,0.0,0.0,0.0,0.0,0.0,0.0,0.0,0.0,0.0,0.0,0.0,0.0,0.0,0.0,0.0,0.0,0.0,0.0,0.0,0.0,0.0,0.0,0.0,0.0,0.0,0.0,0.0,0.0,0.0,-2.8392,-3.1962,-3.5193,-3.8057,-3.8079,-3.7378,-3.6176,-3.2822,-2.8598,-2.3476,0.0,0.0,0.0,0.0,0.0,0.0,0.0,0.0,0.0,0.0,0.0,0.0,0.0,0.0,0.0,0.0,0.0,0.0,0.0,0.0,0.0,0.0,0.0,0.0,0.0,0.0,0.0,0.0,0.0,0.0,0.0,0.0,0.0,0.0,0.0,0.0,0.0,0.0,0.0,0.0,0.0,0.0,0.0,0.0,0.0,0.0,0.0,0.0,0.0,0.0,0.0,0.0,0.0,0.0,0.0,0.0,0.0,0.0,0.0,0.0,0.0,0.0,0.0,0.0,0.0,0.0,0.0,0.0,0.0,0.0,0.0,0.0,0.0,0.0,0.0,0.0,0.0,0.0,0.0,0.0,0.0,0.0,0.0,0.0,0.0,0.0,0.0,0.0,0.0,0.0,0.0,0.0,0.0,0.0,0.0,0.0,0.0,0.0,0.0,0.0,0.0,0.0,-2.8294,-3.2812,-3.6313,-3.7702,-3.7137,-3.6364,-3.5643,-3.1024,-2.6796,0.0,0.0,0.0,0.0,0.0,0.0,0.0,0.0,0.0,0.0,0.0,0.0,0.0,0.0,0.0,0.0,0.0,0.0,0.0,0.0,0.0,0.0,0.0,0.0,0.0,0.0,0.0,0.0,0.0,0.0,0.0,0.0,0.0,0.0,0.0,0.0,0.0,0.0,0.0,0.0,0.0,0.0,0.0,0.0,0.0,0.0,0.0,0.0,0.0,0.0,0.0,0.0,0.0,0.0,0.0,0.0,0.0,0.0,0.0,0.0,0.0,0.0,0.0,0.0,0.0,0.0,0.0,0.0,0.0,0.0,0.0,0.0,0.0,0.0,0.0,0.0,0.0,0.0,0.0,0.0,0.0,0.0,0.0,0.0,0.0,0.0,0.0,0.0,0.0,0.0,0.0,0.0,0.0,0.0,0.0,0.0,0.0,0.0,0.0,0.0,0.0,0.0,0.0,-2.7598,-3.1191,-3.4036,-3.5482,-3.5313,-3.4631,-3.3518,-3.0248,-2.6377,-2.1965,0.0,0.0,0.0,0.0,0.0,0.0,0.0,0.0,0.0,0.0,0.0,0.0,0.0,0.0,0.0,0.0,0.0,0.0,0.0,0.0,0.0,0.0,0.0,0.0,0.0,0.0,0.0,0.0,0.0,0.0,0.0,0.0,0.0,0.0,0.0,0.0,0.0,0.0,0.0,0.0,0.0,0.0,0.0,0.0,0.0,0.0,0.0,0.0,0.0,0.0,0.0,0.0,0.0,0.0,0.0,0.0,0.0,0.0,0.0,0.0,0.0,0.0,0.0,0.0,0.0,0.0,0.0,0.0,0.0,0.0,0.0,0.0,0.0,0.0,0.0,0.0,0.0,0.0,0.0,0.0,0.0,0.0,0.0,0.0,0.0,0.0,0.0,0.0,0.0,0.0,0.0,0.0,0.0,0.0,0.0,0.0,0.0,0.0,0.0,0.0,0.0,0.0,-2.7131,-3.0111,-3.2623,-3.4248,-3.4268,-3.372,-3.266,-2.9833,-2.6512,-2.2838,0.0,0.0,0.0,0.0,0.0,0.0,0.0,0.0,0.0,0.0,0.0,0.0,0.0,0.0,0.0,0.0,0.0,0.0,0.0,0.0,0.0,0.0,0.0,0.0,0.0,0.0,0.0,0.0,0.0,0.0,0.0,0.0,0.0,0.0,0.0,0.0,0.0,0.0,0.0,0.0,0.0,0.0,0.0,0.0,0.0,0.0,0.0,0.0,0.0,0.0,0.0,0.0,0.0,0.0,0.0,0.0,0.0,0.0,0.0,0.0,0.0,0.0,0.0,0.0,0.0,0.0,0.0,0.0,0.0,0.0,0.0,0.0,0.0,0.0,0.0,0.0,0.0,0.0,0.0,0.0,0.0,0.0,0.0,0.0,0.0,0.0,0.0,0.0,0.0,0.0,0.0,0.0,0.0,0.0,0.0,0.0,0.0,0.0,0.0,0.0,0.0,0.0,-2.6757,-2.9481,-3.1854,-3.367,-3.3817,-3.3426,-3.2505,-2.9628,-2.6959,-2.4962,0.0,0.0,0.0,0.0,0.0,0.0,0.0,0.0,0.0,0.0,0.0,0.0,0.0,0.0,0.0,0.0,0.0,0.0,0.0,0.0,0.0,0.0,0.0,0.0,0.0,0.0,0.0,0.0,0.0,0.0,0.0,0.0,0.0,0.0,0.0,0.0,0.0,0.0,0.0,0.0,0.0,0.0,0.0,0.0,0.0,0.0,0.0,0.0,0.0,0.0,0.0,0.0,0.0,0.0,0.0,0.0,0.0,0.0,0.0,0.0,-2.5939,-2.5066,0.0,0.0,0.0,0.0,0.0,0.0,0.0,0.0,0.0,0.0,0.0,0.0,0.0,0.0,0.0,0.0,0.0,0.0,0.0,0.0,0.0,0.0,0.0,0.0,0.0,0.0,0.0,0.0,0.0,0.0,0.0,0.0,0.0,0.0,0.0,0.0,0.0,0.0,0.0,0.0,-2.6165,-2.8936,-3.1213,-3.2638,-3.3275,-3.2764,-3.0823,-2.9074,-2.6777,-2.3628,-2.1562,0.0,0.0,0.0,0.0,0.0,0.0,0.0,0.0,0.0,0.0,0.0,0.0,0.0,0.0,0.0,0.0,0.0,0.0,0.0,0.0,0.0,0.0,0.0,0.0,0.0,0.0,0.0,0.0,0.0,0.0,0.0,0.0,0.0,0.0,0.0,0.0,0.0,0.0,0.0,0.0,0.0,0.0,0.0,0.0,0.0,0.0,0.0,0.0,0.0,0.0,0.0,0.0,0.0,0.0,0.0,0.0,0.0,0.0,0.0,-2.883,-2.7281,0.0,0.0,0.0,0.0,0.0,0.0,0.0,0.0,0.0,0.0,0.0,0.0,0.0,0.0,0.0,0.0,0.0,0.0,0.0,0.0,0.0,0.0,0.0,0.0,0.0,0.0,0.0,0.0,0.0,0.0,0.0,0.0,0.0,0.0,0.0,0.0,0.0,0.0,0.0,0.0,-2.5977,-2.8607,-3.0661,-3.1868,-3.2317,-3.1871,-3.0245,-2.8758,-2.6904,-2.4514,-2.2725,0.0,0.0,0.0,0.0,0.0,0.0,0.0,0.0,0.0,0.0,0.0,0.0,0.0,0.0,0.0,0.0,0.0,0.0,0.0,0.0,0.0,0.0,0.0,0.0,0.0,0.0,0.0,0.0,0.0,0.0,0.0,0.0,0.0,0.0,0.0,0.0,0.0,0.0,0.0,0.0,0.0,0.0,0.0,0.0,0.0,0.0,0.0,0.0,0.0,0.0,0.0,0.0,0.0,-3.4763,-3.5312,-3.5312,-3.5312,-3.5312,-3.5155,-3.2554,-3.0533,-2.8898,-2.7717,0.0,0.0,0.0,0.0,0.0,0.0,0.0,0.0,0.0,0.0,0.0,0.0,0.0,0.0,0.0,0.0,0.0,0.0,0.0,0.0,0.0,0.0,-2.6641,-2.8621,-2.8283,-2.7245,-2.6373,0.0,0.0,0.0,0.0,0.0,0.0,0.0,0.0,0.0,0.0,0.0,-2.6301,-2.8746,-3.0718,-3.1949,-3.2071,-3.1566,-3.0357,-2.888,-2.7463,-2.6163,-2.4168,-2.2283,0.0,0.0,0.0,0.0,0.0,0.0,0.0,0.0,0.0,0.0,0.0,0.0,0.0,0.0,0.0,0.0,0.0,0.0,0.0,0.0,0.0,0.0,0.0,0.0,0.0,0.0,0.0,0.0,0.0,0.0,0.0,0.0,-2.8543,-2.8987,0.0,0.0,0.0,0.0,0.0,0.0,0.0,0.0,0.0,0.0,0.0,0.0,0.0,-3.3442,-3.4502,-3.6261,-3.7175,-3.722,-3.837,-3.8919,-3.8919,-3.8919,-3.8919,-3.8841,-3.7482,0.0,-3.1954,-3.0173,0.0,0.0,0.0,0.0,0.0,0.0,0.0,0.0,0.0,0.0,0.0,0.0,0.0,0.0,0.0,0.0,0.0,0.0,0.0,0.0,0.0,0.0,-3.0718,-3.1038,-2.9654,-2.8798,-3.0799,-2.7725,-2.4769,-2.5447,-2.4104,-2.2966,0.0,0.0,0.0,0.0,0.0,0.0,-2.7601,-3.0119,-3.2315,-3.4098,-3.4284,-3.3372,-3.1064,-3.0152,-2.8966,-2.7276,-2.5818,-2.4156,-2.2266,-2.2625,0.0,0.0,0.0,0.0,0.0,0.0,0.0,0.0,0.0,0.0,0.0,0.0,0.0,0.0,0.0,0.0,0.0,0.0,0.0,0.0,0.0,0.0,0.0,0.0,0.0,0.0,0.0,0.0,0.0,-2.9267,-2.9928,-2.8943,-3.0137,-3.0205,0.0,0.0,0.0,0.0,0.0,0.0,0.0,0.0,0.0,-3.4554,-3.5809,-3.6881,-3.7717,-3.9442,-4.0461,-4.0801,-4.1611,-4.2004,-4.2004,-4.2004,-4.1821,-4.1507,-4.101,-3.9364,-3.6776,-3.339,-3.1251,-2.998,0.0,0.0,0.0,0.0,-2.7387,-2.7433,-2.7828,-2.7874,-2.7866,-2.8373,0.0,0.0,0.0,0.0,0.0,0.0,0.0,-2.6666,-2.769,-2.9547,-3.1418,-3.242,-3.2378,-3.2307,-3.3257,-3.111,-2.8893,-2.8621,-2.6537,-2.4758,-2.4519,-2.4332,0.0,0.0,0.0,-2.6696,-2.8633,-3.129,-3.3037,-3.3053,-3.3796,-3.3284,-3.0865,-3.0171,-2.9117,-2.7284,-2.6408,-2.5115,-2.3187,-2.3352,-2.2587,0.0,0.0,0.0,0.0,0.0,0.0,0.0,0.0,0.0,0.0,0.0,0.0,0.0,0.0,0.0,0.0,0.0,0.0,0.0,0.0,0.0,0.0,0.0,0.0,0.0,0.0,0.0,0.0,-3.0755,-3.1351,-2.9381,-3.1508,-3.1967,0.0,0.0,0.0,0.0,0.0,0.0,-3.4162,-3.5025,-3.6227,-3.7821,-3.9285,-4.0383,-4.1141,-4.2422,-4.3337,-4.3912,-4.4042,-4.4173,-4.433,-4.4173,-4.3859,-4.3441,-4.3154,-4.2291,-4.0775,-3.6776,-3.4304,-3.2852,-3.1654,-3.0351,-2.9175,-2.9892,-2.9827,-2.9469,-3.0339,-3.0224,-2.975,-2.9917,-2.9048,-2.7798,-2.6596,0.0,0.0,0.0,0.0,-2.7538,-2.9221,-3.0302,-3.1388,-3.3078,-3.4044,-3.4533,-3.424,-3.2976,-3.1768,-3.1305,-2.9154,-2.724,-2.6656,-2.6626,0.0,-2.502,-2.671,-2.8504,-2.9627,-3.2101,-3.3396,-3.2498,-3.3154,-3.2823,-3.0691,-3.0068,-2.9117,-2.7507,-2.6896,-2.5916,-2.4346,-2.4004,-2.3319,-2.2163,0.0,0.0,0.0,0.0,0.0,0.0,0.0,0.0,0.0,0.0,0.0,0.0,0.0,0.0,0.0,0.0,0.0,0.0,0.0,0.0,0.0,0.0,0.0,0.0,0.0,0.0,0.0,0.0,0.0,-3.1299,-3.447,0.0,0.0,0.0,0.0,-3.4136,-3.4737,-3.6044,-3.8292,-3.8449,-3.9782,-4.2579,-4.3284,-4.4173,-4.5323,-4.5401,-4.5741,-4.629,-4.5192,-4.4983,-4.5532,-4.4957,-4.467,-4.4537,-4.3493,-4.2971,-4.2709,-4.0305,-3.8292,-3.6567,-3.4842,-3.4136,-3.3927,-3.2908,-3.2855,-3.334,-3.3392,-3.3265,-3.3104,-3.3263,-3.181,-2.9657,-2.7934,-2.7385,0.0,0.0,-2.7863,-2.8618,-3.0018,-3.0786,-3.1533,-3.2877,-3.351,-3.3722,-3.3579,-3.2482,-3.1811,-3.2811,-3.1613,-3.0529,-3.0596,0.0,-2.9658,-2.762,-2.8668,-2.996,-3.0736,-3.2295,-3.3482,-3.394,-3.3473,-3.2483,-3.0916,-3.0173,-2.9439,-2.8573,-2.768,-2.6857,-2.6189,-2.5123,-2.4327,-2.387,-2.2496,0.0,0.0,0.0,0.0,0.0,0.0,0.0,0.0,0.0,0.0,0.0,0.0,0.0,0.0,0.0,0.0,0.0,0.0,0.0,0.0,0.0,0.0,0.0,0.0,0.0,0.0,0.0,0.0,-3.5905,-3.8914,0.0,-3.7677,-3.7946,-3.8135,-3.7769,-3.9311,-4.0775,-4.1977,-4.2762,-4.3964,-4.5686,-4.6003,-4.6473,-4.7257,-4.6917,-4.6839,-4.7022,-4.6238,-4.5767,-4.5611,-4.5146,-4.4782,-4.4414,-4.3625,-4.3073,-4.2678,-4.1686,-4.0324,-3.8806,-3.7616,-3.6611,-3.5779,-3.5726,-3.5384,-3.4947,-3.5315,-3.5024,-3.4273,-3.3093,-3.1794,-3.0424,-2.9065,-2.8647,-2.8647,-2.8647,-2.9065,-2.9676,-3.0553,-3.1235,-3.1857,-3.2798,-3.3492,-3.4075,-3.4447,-3.4263,-3.4246,-3.506,-3.2875,-3.0906,-3.0983,-3.1363,-3.0935,-2.8713,-3.0117,-3.1527,-3.1779,-3.3061,-3.3503,-3.2347,-3.2819,-3.2447,-3.0564,-3.0186,-2.9753,-2.8959,-2.82,-2.7331,-2.6327,-2.565,-2.5102,-2.4641,-2.3813,-2.2476,0.0,0.0,0.0,0.0,0.0,0.0,0.0,0.0,0.0,0.0,0.0,0.0,0.0,0.0,0.0,0.0,0.0,0.0,0.0,0.0,0.0,0.0,0.0,0.0,0.0,-3.5124,-3.8126,-3.9516,-4.2709,-4.399,-4.2158,-4.2396,-4.2605,-4.2239,-4.399,-4.5245,-4.5611,-4.6369,-4.7153,-4.7885,-4.7728,-4.7806,-4.8172,-4.7623,-4.7278,-4.7278,-4.6552,-4.5898,-4.5323,-4.4858,-4.4387,-4.3835,-4.323,-4.2783,-4.2415,-4.2154,-4.1442,-4.0504,-3.962,-3.8549,-3.755,-3.778,-3.7253,-3.6393,-3.6541,-3.5966,-3.4906,-3.337,-3.2277,-3.1418,-3.066,-3.0294,-3.0137,-3.0137,-3.0294,-3.0503,-3.0895,-3.1299,-3.1716,-3.2137,-3.2676,-3.3213,-3.3774,-3.3869,-3.4151,-3.5307,-3.4025,-3.2586,-3.2083,-3.2434,-3.1998,-2.9759,-3.0684,-3.1582,-3.1309,-3.2594,-3.285,-3.1233,-3.1992,-3.2045,-3.0654,-2.9618,-2.9069,-2.9091,-2.8123,-2.7348,-2.6914,-2.6033,-2.5321,-2.4865,-2.3808,-2.239,-2.0617,0.0,0.0,0.0,0.0,0.0,0.0,0.0,0.0,0.0,0.0,0.0,0.0,0.0,0.0,0.0,0.0,0.0,0.0,0.0,0.0,0.0,0.0,0.0,-3.2107,-3.8153,-4.2285,-4.1966,-4.5721,-4.7581,-4.5465,-4.6638,-4.7435,-4.7383,-4.8538,-4.9165,-4.9139,-4.9113,-4.9027,-4.9027,-4.8427,-4.8088,-4.8088,-4.7565,-4.7278,-4.7226,-4.6186,-4.5349,-4.4722,-4.4174,-4.3546,-4.2971,-4.2447,-4.2185,-4.2133,-4.1834,-4.1696,-4.1617,-4.0792,-4.0095,-3.9547,-3.8919,-3.837,-3.7789,-3.7095,-3.6171,-3.5214,-3.4497,-3.3582,-3.2764,-3.2764,-3.2306,-3.1823,-3.1797,-3.1444,-3.0999,-3.1037,-3.1011,-3.1011,-3.1011,-3.1048,-3.1161,-3.1569,-3.1189,-3.1387,-3.3441,-3.5073,-3.5675,-3.4181,-3.3849,-3.3036,-3.0865,-3.0541,0.0,-2.9581,-3.0944,-3.1718,-3.0992,-3.1099,-3.1236,-3.123,-2.8552,-2.7517,-2.9036,-2.7459,-2.6998,-2.8081,-2.6343,-2.5169,-2.4679,-2.2518,-2.1656,-2.2067,0.0,0.0,0.0,0.0,0.0,0.0,0.0,0.0,0.0,0.0,0.0,0.0,0.0,0.0,0.0,0.0,0.0,0.0,0.0,0.0,0.0,-3.3493,-3.6505,-3.8657,-4.1517,-4.4753,-4.844,-5.0716,-5.1701,-5.1135,-5.1439,-5.1204,-4.9923,-5.0917,-5.1204,-5.0368,-4.8695,-4.7723,-4.7723,-4.6781,-4.6213,-4.6213,-4.7399,-4.7545,-4.6708,-4.6395,-4.5506,-4.4148,-4.373,-4.3256,-4.2703,-4.2097,-4.1834,-4.1834,-4.1526,-4.1261,-4.1063,-4.1218,-4.0696,-3.9854,-3.9462,-3.8695,-3.7841,-3.7324,-3.6735,-3.6085,-3.5599,-3.4588,-3.3567,-3.3567,-3.3053,-3.2398,-3.2095,-3.1808,-3.1496,-3.1266,-3.1347,-3.1495,-3.1726,-3.2019,-3.2345,-3.2731,-3.27,-3.2898,-3.3945,-3.4514,-3.4874,-3.4942,-3.4972,-3.4725,-3.4125,-3.3596,-3.3349,-3.3689,-3.3668,-3.3556,-3.3337,-3.2362,-3.1774,-3.1988,-2.9637,-2.8658,-2.9817,-2.892,-2.8397,-2.8521,-2.7842,-2.7177,-2.6491,-2.4989,-2.4003,0.0,0.0,0.0,0.0,0.0,0.0,0.0,0.0,0.0,0.0,0.0,0.0,0.0,0.0,0.0,0.0,0.0,0.0,0.0,0.0,0.0,0.0,-3.6751,-4.0794,-4.4874,-4.5865,-4.77,-5.1836,-5.34,-5.4105,-5.4105,-5.4105,-5.3504,-5.1988,-5.2485,-5.2354,-5.1204,-4.9332,-4.7953,-4.7212,-4.6798,-4.6297,-4.5515,-4.7276,-4.7623,-4.6473,-4.6473,-4.5428,-4.352,-4.331,-4.2784,-4.2047,-4.1805,-4.1647,-4.1547,-4.1498,-4.1206,-4.0826,0.0,0.0,0.0,0.0,-3.853,-3.7821,-3.7419,-3.7042,-3.6621,-3.6104,-3.5262,-3.4447,-3.4334,-3.3553,-3.266,-3.2436,-3.1913,-3.1392,-3.1202,-3.1272,-3.1421,-3.169,-3.2019,-3.2345,-3.2838,-3.268,-3.2716,-3.3699,-3.3562,0.0,-3.4767,-3.4593,-3.4111,-3.3423,-3.2945,-3.2646,-3.2557,-3.2996,-3.3093,-3.2564,-3.2276,-3.212,-3.2297,-2.9873,0.0,0.0,0.0,-2.8218,-2.8148,-2.8035,0.0,0.0,0.0,-2.4765,-2.4399,-2.3812,0.0,0.0,-2.1592,-2.0591,0.0,0.0,0.0,0.0,0.0,0.0,0.0,0.0,0.0,0.0,0.0,0.0,0.0,0.0,0.0,0.0,-4.0153,-4.4267,-5.0078,-5.0219,-5.0724,-5.3257,-5.4471,-5.5099,-5.5099,-5.5099,-5.4628,-5.3478,-5.34,-5.2851,-5.157,-5.035,0.0,0.0,0.0,-4.7184,-4.5515,-4.7224,-4.7519,-4.6395,-4.6316,-4.5114,-4.2918,-4.2918,-4.2343,-4.1324,-4.1547,-4.1498,-4.1298,-4.1468,-4.1172,-4.0592,-4.0641,-4.0097,-3.9222,-3.8489,-3.8057,-3.7867,-3.7543,0.0,0.0,-3.6247,-3.5722,-3.5309,-3.4941,-3.3936,-3.3001,-3.2922,-3.2174,-3.1345,-3.1303,-3.125,-3.1235,-3.1458,-3.1653,-3.1909,-3.2381,-3.2006,-3.1928,-3.3073,-3.2633,-3.2548,-3.3955,-3.3581,-3.2572,-3.1191,-3.0883,-3.0471,-2.9485,-3.101,-3.1781,-3.0804,-3.1692,0.0,-3.2432,-2.9833,-2.8866,-3.0329,-2.8377,-2.7333,-2.7642,-2.7527,-2.648,-2.4432,-2.4708,-2.4963,-2.5118,-2.5201,-2.5982,-2.7305,-2.3804,-2.2755,0.0,0.0,0.0,0.0,0.0,0.0,0.0,0.0,0.0,0.0,0.0,0.0,0.0,0.0,0.0,-3.8697,-4.3816,-4.8471,-5.111,-5.1883,-5.2793,-5.4533,-5.4968,-5.5099,-5.5099,-5.5099,-5.4628,-5.3478,-5.34,-5.2668,-5.1021,-4.9343,-4.7861,-4.6607,-4.6661,-4.6332,-4.5515,-4.6837,-4.6917,-4.5794,-4.5323,0.0,-4.2317,-4.2317,-4.1951,-4.1324,-4.1374,-4.1374,-4.1272,-4.0824,-4.0184,-3.9453,-3.9588,-3.9329,-3.869,-3.8357,-3.8057,-3.792,-3.8243,-3.7854,-3.7192,-3.7026,-3.6449,-3.5663,-3.5024,-3.4844,0.0,-3.4273,-3.3904,-3.3533,-3.3192,-3.2737,-3.2417,-3.2632,-3.281,-3.2988,-3.3086,-3.3248,-3.3394,-3.3297,-3.3283,-3.3325,-3.3444,-3.3785,-3.4114,-3.4394,-3.3924,-3.3659,-3.4018,-3.3917,-3.3958,-3.4349,-3.3431,-3.2871,-3.3155,-3.1393,-3.0294,-3.0404,-2.9139,-2.8646,-2.9243,-2.8318,-2.8037,-2.8538,-2.8206,-2.7969,-2.7849,-2.7535,-2.7431,-2.7442,-2.6325,-2.6094,0.0,0.0,0.0,0.0,0.0,0.0,0.0,0.0,0.0,0.0,0.0,-3.0771,-3.1715,0.0,-3.8485,-4.0786,-4.5362,-4.9307,-5.1433,-5.3027,-5.4241,-5.5032,-5.5099,-5.5099,-5.5099,-5.4837,-5.4314,-5.3452,-5.2825,-5.2119,-5.123,-4.9558,-4.8049,-4.6834,-4.6841,-4.628,-4.5087,-4.6295,-4.6342,-4.5192,-4.4905,-4.3912,-4.2211,-4.2211,-4.1847,-4.1298,-4.111,-4.0979,-4.0801,-4.0035,-3.947,-3.9084,-3.9043,-3.8751,-3.8395,-3.8258,-3.8057,-3.7946,-3.8175,-3.7964,-3.7577,-3.7351,-3.6827,-3.6242,-3.5698,-3.5358,-3.5102,-3.4804,-3.438,-3.4011,-3.3569,-3.3221,-3.299,-3.2973,-3.3164,-3.3304,-3.3431,-3.3605,-3.3675,-3.3501,-3.3466,-3.3431,-3.3326,-3.3577,-3.3899,-3.4303,-3.4047,-3.3848,-3.3977,-3.3853,-3.3841,-3.3999,-3.3451,-3.316,-3.3333,-3.199,-3.0858,-3.0153,-2.9516,-2.9342,-2.9681,-2.8891,-2.8732,-2.9343,-2.9438,-2.9139,-2.8455,-2.8537,-2.828,-2.7694,-2.7179,-2.6957,0.0,0.0,0.0,0.0,0.0,0.0,0.0,-2.868,-2.9685,-3.16,-3.2317,-3.3272,-3.54,-3.7125,-3.9348,-4.2673,-4.6415,-4.9488,-5.1377,-5.3472,-5.4733,-5.4602,-5.4785,-5.4942,-5.4942,-5.4393,-5.3818,-5.3269,-5.2328,-5.1622,-5.1282,-5.008,-4.8747,-4.7272,-4.736,-4.6616,-4.4795,-4.571,-4.5558,-4.4434,-4.433,-4.352,-4.2004,-4.2004,-4.1742,-4.1298,-4.1025,-4.0683,-4.02,-3.9617,-3.9183,-3.8992,-3.8834,-3.8557,-3.8258,-3.8213,-3.8057,-3.79,-3.7861,-3.7808,-3.7658,-3.7192,-3.6813,-3.6508,-3.6159,-3.5629,-3.5123,-3.5162,-3.476,-3.4255,-3.3882,-3.3698,-3.3559,-3.3269,-3.3417,-3.3579,-3.3599,-3.364,-3.364,-3.357,-3.3431,-3.3361,-3.3326,-3.329,-3.329,-3.329,-3.329,-3.3164,-3.2794,-3.3082,-3.3182,-3.2764,-3.3059,-3.3258,-3.3177,-3.205,-3.1005,-3.0098,-2.979,-2.9702,-2.9792,-2.9251,-2.8996,-2.9047,-2.9645,-2.947,-2.8504,-2.8859,-2.8758,-2.8136,-2.7463,-2.7084,-2.7789,-2.5397,-2.4814,-2.7764,-2.7872,-2.8464,0.0,-3.3592,-3.3682,-3.5499,-3.6905,-3.778,-3.7785,-4.1097,-4.3974,-4.4351,-4.8269,-5.122,-5.1213,-5.2579,-5.34,-5.2851,-5.3687,-5.4314,-5.4314,-5.3818,-5.3243,-5.2642,-5.2485,-5.1727,-5.0159,-5.042,-4.9602,-4.734,-4.7827,-4.7252,-4.5493,-4.5083,-4.4356,-4.3206,-4.2709,-4.2082,-4.1402,-4.1402,-4.1376,-4.1298,-4.1246,-4.0644,-3.9677,-4.0023,-3.9595,-3.8682,-3.9051,-3.8962,-3.8512,-3.8304,-3.8057,-3.7867,-3.7767,-3.7448,-3.7022,-3.6326,-3.5971,-3.5643,-3.5311,-3.5534,-3.5949,-3.6175,-3.5889,-3.552,-3.5435,-3.5153,-3.4724,-3.41,-3.4317,-3.4462,-3.3753,-3.3744,-3.3744,-3.3396,-3.3466,-3.3501,-3.3326,-3.329,-3.329,-3.329,-3.329,-3.3297,-3.3213,-3.3283,-3.329,-3.3205,-3.3275,-3.3134,-3.2703,-3.1596,-3.0918,-3.0961,-3.0009,-2.9658,-3.0112,-2.9255,-2.8904,-2.9265,-2.9399,-2.9368,-2.9193,-2.8772,-2.8721,-2.8961,-2.7854,-2.762,-2.8332,-2.7367,-2.7701,-2.923,-3.0729,-3.2457,-3.4999,-3.6407,-3.7398,-3.8486,-4.0025,-4.1316,-4.1798,-4.3674,-4.5439,-4.6381,-4.9552,-5.169,-5.1059,-5.2361,-5.2929,-5.1648,-5.0872,-5.075,-5.1357,-5.1958,-5.1903,-5.0764,-5.0867,-5.0812,-5.042,-4.9374,-4.8486,-4.7858,-4.71,-4.6186,-4.5114,-4.4513,-4.365,-4.2526,-4.2342,-4.1873,-4.1324,-4.1324,-4.1115,-4.0801,-4.0801,-4.0526,-4.005,-3.9867,-3.9673,-3.9509,-3.9338,-3.9158,-3.8962,-3.8575,-3.8376,-3.8251,-3.7847,-3.7767,-3.7695,-3.701,-3.65,-3.6136,-3.6019,-3.6089,-3.6175,-3.5924,-3.5965,-3.5955,-3.518,-3.521,-3.5218,-3.4324,-3.4577,-3.4794,-3.4031,-3.3882,-3.3813,-3.3536,-3.3466,-3.3396,-3.3326,-3.329,-3.329,-3.329,-3.329,-3.329,-3.329,-3.329,-3.329,-3.329,-3.329,-3.3133,-3.2634,-3.2085,-3.1532,-3.1071,-3.0501,-3.0152,-2.9987,-2.9291,-2.8973,-2.9078,-2.9509,-2.9265,-2.8258,-2.864,-2.8406,-2.7584,-2.7088,-2.7358,-2.8768,-2.9305,-3.0571,-3.227,-3.4373,-3.6364,-3.7658,-3.8867,-4.0043,-4.1144,-4.2399,-4.3571,-4.4705,-4.5329,-4.619,-4.7841,-5.0083,-5.1488,-5.1138,-5.1883,-5.1664,-4.9577,-4.7581,-4.6383,-4.6175,-4.8666,-5.0111,-4.9574,-4.9741,-5.0028,-5.0315,-4.8564,-4.7623,-4.7702,-4.6186,-4.5009,-4.4251,-4.3676,-4.2918,-4.1925,-4.2077,-4.1942,-4.1547,-4.1647,-4.141,-4.0841,-4.0841,-4.0592,-4.0165,-3.9947,-3.9849,-3.9934,-3.9792,-3.9601,-3.9424,-3.9141,-3.8917,-3.8675,-3.7899,-3.7876,-3.8043,-3.7214,-3.6672,-3.6402,-3.6484,-3.6414,-3.6175,-3.5903,-3.6001,-3.5977,-3.5079,-3.5358,-3.5617,-3.4473,-3.4657,-3.4924,-3.4226,-3.3882,-3.3675,-3.3536,-3.3396,-3.3347,-3.3515,-3.3403,-3.3347,-3.3515,-3.3403,-3.329,-3.329,-3.329,-3.329,-3.329,-3.329,-3.3079,-3.2665,-3.2506,-3.2088,-3.1304,-3.1013,-3.0637,-3.0154,-2.9649,-2.925,-2.896,-2.9667,-2.9348,-2.7938,-2.859,-2.8328,-2.722,-2.6782,-2.7144,-2.9176,-3.0337,-3.2157,-3.7553,-3.8785,-3.9406,-4.2056,-4.1415,-4.0976,-4.3575,-4.3871,-4.4067,-4.5429,-4.6077,-4.6891,-4.8457,-4.9576,-5.0583,-5.145,-5.0681,-4.8901,-4.5924,-4.4015,-4.171,-3.846,-4.3505,-4.7863,-4.9758,-4.9897,-4.9662,-4.9165,-4.8512,-4.7649,-4.6578,-4.5375,-4.4225,-4.3075,-4.25,-4.1925,-4.135,-4.1872,-4.2092,-4.2065,-4.2631,-4.2582,-4.2039,-4.2039,-4.1108,-3.9695,-4.0589,-4.0331,-3.9407,-4.0328,-4.0386,-3.9996,-3.9952,-3.9645,-3.9129,-3.7935,-3.7501,-3.7311,-3.6144,-3.5764,-3.5817,-3.6246,-3.6086,-3.5911,-3.6716,-3.6375,-3.5721,-3.5662,-3.6049,-3.602,-3.4727,-3.4796,-3.4969,-3.4098,-3.3605,-3.3326,-3.3326,-3.329,-3.3487,-3.4076,-3.3683,-3.3487,-3.4076,-3.3655,-3.329,-3.329,-3.329,-3.329,-3.329,-3.329,-3.3079,-3.2665,-3.2608,-3.2392,-3.1899,-3.1304,-3.0962,-3.0962,-3.0394,-2.9767,-2.911,-2.9768,-2.974,-2.9053,-2.8627,-2.8627,-2.8997,-2.75,-2.738,-3.0676,-3.3553,-3.7108,-4.0908,-4.2428,-4.3468,-4.5469,-4.5638,-4.5221,-4.4713,-4.346,-4.2328,-4.204,-4.1657,-4.231,-4.5034,-4.6728,-4.8334,-5.0175,-4.8733,-4.6949,-4.5654,-4.3604,-4.2133,-4.1591,-4.3121,-4.4356,-4.4749,-4.6882,-4.8294,-4.8515,-4.7933,-4.7219,-4.6425,-4.5341,-4.4151,-4.3023,-4.2448,-4.2075,-4.1845,-4.2387,-4.2631,-4.2631,-4.2825,-4.2776,-4.2604,-4.2151,-4.1842,-4.1645,-4.116,-4.09,-4.0813,-4.0727,-4.0602,-4.0473,-4.0473,-4.0092,-3.9448,-3.8323,-3.7855,-3.763,-3.6797,-3.6377,-3.6178,-3.6365,-3.6058,-3.5709,-3.5892,-3.5836,-3.5645,-3.5432,-3.5863,-3.6202,-3.5296,-3.5208,-3.5147,-3.4434,-3.3853,-3.3466,-3.3326,-3.3599,-3.3964,-3.4161,-3.4393,-3.4478,-3.4245,-3.3683,-3.329,-3.329,-3.329,-3.329,-3.329,-3.329,-3.3241,-3.3086,-3.3058,-3.2873,-3.2392,-3.1801,-3.129,-3.0864,-3.0239,-2.9754,-2.9433,-2.9659,-2.9492,-2.899,-2.8792,-2.8652,-2.8511,-2.7968,-2.7966,-3.4068,-3.7861,-4.2018,-4.5354,-4.6575,-4.7129,-4.8028,-4.7656,-4.6636,-4.4951,-4.3286,-4.1713,-4.0471,-3.9279,-3.959,-4.2669,-4.3838,-4.5621,-4.9219,-4.7851,-4.6301,-4.5943,-4.398,-4.2662,-4.2502,-4.2578,-4.2616,-4.2559,-4.5078,-4.6804,-4.7159,-4.6763,-4.6504,-4.6461,-4.5527,-4.4355,-4.2967,-4.2854,-4.2701,-4.2652,-4.3018,-4.3307,-4.3594,-4.3451,-4.3054,-4.2301,-4.2209,-4.182,-4.1218,-4.1058,-4.1063,-4.1091,-4.0871,-4.0632,-4.0407,-4.0603,-4.0013,-3.9045,-3.856,-3.8168,-3.7793,-3.7175,-3.685,-3.6615,-3.6615,-3.6298,-3.5976,-3.5958,-3.5848,-3.567,-3.563,-3.6014,-3.623,-3.5674,-3.558,-3.5506,-3.4957,-3.4469,-3.4115,-3.4008,-3.4281,-3.4646,-3.4843,-3.5245,-3.5302,-3.4646,-3.4225,-3.3803,-3.3382,-3.329,-3.329,-3.329,-3.329,-3.329,-3.329,-3.329,-3.3192,-3.2873,-3.2286,-3.1693,-3.1104,-3.0422,-2.9907,-2.9617,-2.9617,-2.9451,-2.9148,-2.8983,-2.8845,-2.8677,-2.8426,-2.8398,-3.8942,-4.2968,-4.6656,-5.0627,-5.1037,-5.0338,-4.9668,-4.7572,-4.5386,-4.4311,-4.2981,-4.1622,-4.0109,-3.8526,-3.8412,-4.1152,-4.1002,-4.2631,-4.8406,-4.7884,-4.6782,-4.6477,-4.5022,-4.3307,-4.1438,-4.2188,-4.2942,-4.317,-4.4712,-4.5576,-4.5532,-4.5422,-4.5697,-4.6543,-4.5973,-4.4783,-4.2998,-4.3544,-4.3709,-4.3586,-4.3634,-4.404,-4.4797,-4.4518,-4.3302,-4.1394,-4.232,-4.1237,-3.8932,-4.0556,-4.0845,-4.0374,-4.083,-4.0506,-3.9845,-4.0477,-3.9479,-3.799,-3.8649,-3.8424,-3.7805,-3.7214,-3.7017,-3.7017,-3.7017,-3.6772,-3.6496,-3.6929,-3.6429,-3.5854,-3.6352,-3.6441,-3.6337,-3.5881,-3.5948,-3.5986,-3.5543,-3.5328,-3.5226,-3.5226,-3.5217,-3.5442,-3.6061,-3.6145,-3.592,-3.5367,-3.5254,-3.4767,-3.3522,-3.3347,-3.3319,-3.329,-3.329,-3.329,-3.329,-3.329,-3.329,-3.329,-3.2736,-3.2117,-3.1499,-3.0881,-3.0203,-2.9617,-2.9617,-2.9617,-2.9617,-2.9179,-2.9207,-2.962,-2.8825,-2.8713,-4.0855,-4.5891,-5.1091,-5.2062,-5.1789,-5.1021,-5.0017,-4.7658,-4.4723,-4.146,-3.7862,-3.4512,-3.2001,-3.1279,-3.2454,-3.6662,-3.9171,-4.2124,-4.645,-4.7126,-4.6939,-4.6469,-4.7035,-4.7155,-4.614,-4.7479,-4.7284,-4.4576,-4.6139,-4.7189,-4.7117,-4.8098,-4.8287,-4.7405,-4.6344,-4.5371,-4.4493,-4.3889,-4.3704,-4.3899,-4.4087,-4.4303,-4.4518,-4.4658,-4.4152,-4.3156,-4.3144,-4.2495,-4.1355,-4.1325,-4.1128,-4.0873,-4.1156,-4.0703,-3.983,-4.0306,-3.9401,-3.7974,-3.8462,-3.8093,-3.7438,-3.7423,-3.7471,-3.7471,-3.7471,-3.7162,-3.6929,-3.7327,-3.694,-3.6559,-3.6936,-3.6944,-3.6844,-3.6729,-3.6495,-3.6288,-3.6184,-3.5787,-3.541,-3.541,-3.5667,-3.6099,-3.6872,-3.6589,-3.6325,-3.6333,-3.5943,-3.5236,-3.4112,-3.3964,-3.3796,-3.3347,-3.329,-3.329,-3.329,-3.329,-3.329,-3.329,-3.2736,-3.2117,-3.1499,-3.0881,-3.0203,-2.9617,-2.9713,-2.9775,-2.9775,-2.9787,-2.9877,-2.9988,-2.9738,-2.9544,-4.6443,-5.0199,-5.3751,-5.3715,-5.2863,-5.1194,-4.8029,-4.5587,-4.2679,-3.811,-3.4527,-3.1603,-2.9371,-2.8331,-2.9445,-3.4464,-3.7115,-4.0287,-4.537,-4.6861,-4.7576,-4.7892,-4.8816,-4.9505,-4.9584,-5.0351,-4.9872,-4.7378,-4.7282,-4.7179,-4.6846,-4.765,-4.8027,-4.7722,-4.6901,-4.6048,-4.5121,-4.4323,-4.404,-4.4209,-4.4303,-4.4472,-4.4612,-4.4612,-4.4031,-4.299,-4.2975,-4.2398,-4.1459,-4.1412,-4.1311,-4.117,-4.104,-4.0517,-3.9802,-3.9852,-3.9203,-3.8408,-3.8808,-3.8581,-3.8093,-3.7719,-3.7625,-3.7625,-3.7625,-3.7433,-3.7289,-3.7548,-3.7211,-3.69,-3.7327,-3.7409,-3.7355,-3.7296,-3.7337,-3.7272,-3.6988,-3.6798,-3.6665,-3.6665,-3.6722,-3.6892,-3.7347,-3.712,-3.6968,-3.7082,-3.6796,-3.6265,-3.5419,-3.4998,-3.453,-3.3882,-3.3825,-3.3748,-3.3599,-3.357,-3.357,-3.357,-3.3259,-3.2778,-3.2127,-3.1504,-3.0853,-3.029,-3.004,-2.9929,-2.9929,-3.005,-3.008,-3.008,-3.0172,-2.9891,-5.2696,-5.4548,-5.5537,-5.5168,-5.3726,-5.0924,-4.5445,-4.2788,-4.0017,-3.4779,-3.2364,-3.0835,-2.9538,-2.8109,-2.8836,-3.3981,-3.5591,-3.8449,-4.4676,-4.6862,-4.8393,-4.9646,-5.0249,-5.0993,-5.1903,-5.1655,-5.1089,-5.0436,-4.8367,-4.6832,-4.6076,-4.6338,-4.6843,-4.7623,-4.7347,-4.6574,-4.5307,-4.4678,-4.4425,-4.4472,-4.4425,-4.4518,-4.4751,-4.4565,-4.3603,-4.2156,-4.2541,-4.1898,-4.0559,-4.1185,-4.1396,-4.1296,-4.0879,-4.0373,-3.9816,-3.9527,-3.9175,-3.8912,-3.9349,-3.9321,-3.8984,-3.8118,-3.7843,-3.7843,-3.7843,-3.7843,-3.7843,-3.7843,-3.7583,-3.7349,-3.7727,-3.7884,-3.7913,-3.7774,-3.8186,-3.8425,-3.7929,-3.8086,-3.8297,-3.8212,-3.7916,-3.7672,-3.7625,-3.7663,-3.7663,-3.7701,-3.7701,-3.7501,-3.6919,-3.6143,-3.5378,-3.4633,-3.454,-3.4356,-3.3939,-3.3882,-3.3882,-3.3882,-3.3882,-3.3596,-3.2939,-3.2311,-3.1715,-3.1117,-3.0456,-3.0142,-3.0142,-3.0142,-3.0172,-3.0172,-3.0296,-3.0068,-5.2729,-5.5095,-5.7231,-5.5138,-5.3228,-5.0703,-4.6193,-4.2166,-3.8033,-3.3185,-3.0698,-2.9113,-2.8247,-2.8881,-3.0919,-3.5145,-3.7139,-3.9494,-4.3414,-4.651,-4.8554,-4.9063,-5.1041,-5.2484,-5.2881,-5.1974,-5.1226,-5.0748,-4.9681,-4.8719,-4.8038,-4.9007,-4.8888,-4.7511,-4.7252,-4.65,-4.5171,-4.464,-4.4518,-4.4751,-4.4518,-4.4425,-4.4472,-4.4658,-4.4008,-4.2772,-4.3044,-4.2422,-4.1256,-4.1522,-4.1409,-4.1128,-4.1616,-4.1105,-4.0081,-4.038,-3.9705,-3.8717,-3.9299,-3.9088,-3.8688,-3.907,-3.9156,-3.9156,-3.9156,-3.9156,-3.9156,-3.9156,-3.8996,-3.8835,-3.8916,-3.8564,-3.8258,-3.8601,-3.8575,-3.8574,-3.8871,-3.9001,-3.8875,-3.8297,-3.8139,-3.803,-3.7863,-3.7853,-3.7891,-3.8052,-3.8089,-3.7985,-3.7748,-3.6985,-3.6045,-3.4875,-3.4761,-3.4504,-3.3939,-3.3882,-3.3882,-3.3882,-3.3882,-3.3596,-3.2939,-3.2311,-3.1715,-3.1117,-3.0549,-3.0266,-3.0266,-3.0417,-3.0507,-3.0507,-3.0538,-3.048,-5.45,-5.6292,-5.7776,-5.5923,-5.3072,-4.92,-4.3498,-3.9213,-3.5063,-3.0181,-2.8228,-2.7478,-2.7644,-2.8145,-2.9996,-3.4486,-3.6646,-3.9226,-4.3569,-4.6089,-4.7945,-4.9289,-5.0675,-5.1642,-5.1961,-5.1484,-5.0691,-4.9478,-4.916,-4.8957,-4.8738,-4.898,-4.8456,-4.71,-4.6614,-4.5846,-4.4723,-4.449,-4.4472,-4.4612,-4.4472,-4.4425,-4.4425,-4.4518,-4.4104,-4.3201,-4.3024,-4.2389,-4.1511,-4.1355,-4.1212,-4.1015,-4.1191,-4.1063,-4.0728,-4.0277,-4.0008,-3.9833,-3.9792,-3.9738,-3.9713,-4.0024,-3.9849,-3.9498,-3.9498,-3.9498,-3.9498,-3.9498,-3.9458,-3.9377,-3.9377,-3.9349,-3.9309,-3.9228,-3.9121,-3.9145,-3.9568,-3.9524,-3.9337,-3.9215,-3.9041,-3.8848,-3.876,-3.8742,-3.8667,-3.8371,-3.8467,-3.8351,-3.792,-3.7641,-3.7094,-3.6064,-3.584,-3.5504,-3.4733,-3.4577,-3.4399,-3.4185,-3.4157,-3.4013,-3.3696,-3.3095,-3.249,-3.1856,-3.1572,-3.1112,-3.0447,-3.0886,-3.0887,-3.0598,-3.0598,-3.0598,-5.6242,-5.7536,-5.8056,-5.6759,-5.3095,-4.8069,-4.1389,-3.6956,-3.2981,-2.8299,-2.6971,-2.6926,-2.7861,-2.7858,-2.9227,-3.3757,-3.5248,-3.7729,-4.3314,-4.4975,-4.6622,-4.9373,-5.0162,-5.0644,-5.0934,-5.0628,-4.9816,-4.8466,-4.842,-4.8539,-4.8688,-4.806,-4.7384,-4.6613,-4.6007,-4.5327,-4.4518,-4.4518,-4.4472,-4.4425,-4.4472,-4.4472,-4.4425,-4.4425,-4.4003,-4.3273,-4.2795,-4.2104,-4.1346,-4.1071,-4.0958,-4.093,-4.0783,-4.105,-4.1365,-4.0294,-4.0383,-4.0942,-4.0392,-4.0421,-4.0647,-4.0702,-4.0252,-3.9776,-3.9776,-3.9776,-3.9776,-3.9776,-3.9776,-3.9776,-3.9776,-4.0044,-4.0228,-3.9772,-3.9703,-3.9849,-4.0166,-3.9994,-3.982,-4.0066,-3.9849,-3.9601,-3.9498,-3.9498,-3.927,-3.8692,-3.8849,-3.8765,-3.8054,-3.8234,-3.8098,-3.7341,-3.6991,-3.6482,-3.5648,-3.5305,-3.4981,-3.4661,-3.4486,-3.4399,-3.4399,-3.379,-3.3271,-3.2716,-3.2568,-3.2019,-3.1033,-3.1351,-3.1264,-3.0801,-3.0656,-3.0598,-5.6525,-5.8216,-5.8659,-5.6837,-5.3192,-4.8542,-4.3222,-3.8145,-3.3588,-3.0227,-2.8899,-2.8671,-2.9613,-2.975,-3.0828,-3.4224,-3.3365,-3.4553,-4.1142,-4.2484,-4.4369,-4.859,-5.013,-5.0961,-5.1243,-4.9507,-4.8635,-4.9252,-4.8539,-4.806,-4.8052,-4.7259,-4.6633,-4.6148,-4.5855,-4.5421,-4.4751,-4.4751,-4.4658,-4.4425,-4.4658,-4.4658,-4.4425,-4.4425,-4.3778,-4.2654,-4.2598,-4.1835,-4.0569,-4.0859,-4.0873,-4.0773,-4.1394,-4.1603,-4.1632,-4.1337,-4.1188,-4.1047,-4.0732,-4.0562,-4.0472,-4.0647,-4.0674,-4.0562,-4.0562,-4.0562,-4.0562,-4.0562,-4.0562,-4.0562,-4.0562,-4.0365,-4.0094,-4.0066,-4.0336,-4.059,-4.0646,-4.0618,-4.0463,-4.0166,-4.0066,-3.995,-3.9544,-3.9498,-3.935,-3.8859,-3.9301,-3.9322,-3.8301,-3.8725,-3.887,-3.8165,-3.7585,-3.6976,-3.6286,-3.5706,-3.5328,-3.5305,-3.4748,-3.4399,-3.4399,-3.379,-3.3474,-3.3416,-3.2803,-3.2423,-3.2338,-3.1756,-3.1466,-3.1409,-3.0858,-3.0598,-5.3186,-5.6045,-5.7659,-5.5777,-5.1506,-4.6483,-4.1641,-3.6591,-3.2226,-2.9613,-2.8828,-2.8719,-2.9067,-2.9154,-2.9992,-3.2616,-3.2025,-3.3492,-3.9858,-4.0597,-4.2491,-4.7982,-4.9089,-4.9553,-4.9951,-4.9001,-4.8341,-4.8261,-4.6732,-4.631,-4.7415,-4.6556,-4.6007,-4.5874,-4.527,-4.479,-4.4565,-4.4565,-4.4518,-4.4425,-4.4518,-4.4518,-4.4397,-4.4031,-4.3385,-4.257,-4.2177,-4.1283,-4.0198,-4.0645,-4.0688,-4.0531,-4.1241,-4.1577,-4.1702,-4.148,-4.1433,-4.1398,-4.0859,-4.0732,-4.0773,-4.0689,-4.0688,-4.0688,-4.0688,-4.0688,-4.0688,-4.0688,-4.0688,-4.0688,-4.0688,-4.0562,-4.0449,-4.0449,-4.0562,-4.0688,-4.0688,-4.0688,-4.0674,-4.0506,-4.0449,-4.0435,-4.0265,-4.0209,-4.0052,-3.9483,-3.9747,-3.9739,-3.9089,-3.9322,-3.9353,-3.887,-3.8118,-3.7473,-3.6954,-3.6208,-3.5658,-3.5421,-3.4777,-3.4399,-3.4399,-3.4167,-3.3848,-3.3503,-3.3587,-3.3264,-3.2481,-3.2629,-3.2513,-3.2075,-3.1438,-3.1351,-4.9848,-5.3413,-5.5889,-5.4175,-4.9515,-4.4256,-3.9979,-3.5128,-3.1,-2.8991,-2.86,-2.86,-2.86,-2.86,-2.9247,-3.1233,-3.1254,-3.2795,-3.791,-3.8736,-4.0617,-4.5625,-4.6574,-4.7213,-4.8156,-4.828,-4.8021,-4.7417,-4.5731,-4.5355,-4.6614,-4.5837,-4.5308,-4.5308,-4.4744,-4.4425,-4.4425,-4.4472,-4.4472,-4.4425,-4.4472,-4.4359,-4.4144,-4.3891,-4.3329,-4.2542,-4.2093,-4.1339,-4.0403,-4.06,-4.0645,-4.0574,-4.1071,-4.1493,-4.1785,-4.1522,-4.1606,-4.1702,-4.1114,-4.0986,-4.1085,-4.0859,-4.073,-4.0688,-4.0688,-4.0688,-4.0688,-4.0688,-4.0688,-4.0688,-4.0688,-4.0688,-4.0688,-4.0688,-4.0688,-4.0688,-4.0688,-4.0688,-4.0688,-4.0688,-4.0688,-4.0688,-4.0688,-4.0688,-4.0533,-3.9957,-4.0139,-4.0177,-3.9556,-3.9774,-3.9733,-3.916,-3.8477,-3.7958,-3.7585,-3.6837,-3.6172,-3.5677,-3.5038,-3.4603,-3.4428,-3.4399,-3.4196,-3.3794,-3.4196,-3.3964,-3.3064,-3.3387,-3.3271,-3.2774,-3.2135,-3.2046,-4.7169,-5.0888,-5.3416,-5.2124,-4.7528,-4.2384,-3.9075,-3.4351,-3.0309,-2.891,-2.86,-2.86,-2.86,-2.86,-2.9046,-3.0479,-3.1026,-3.2218,-3.4865,-3.6675,-3.8565,-4.083,-4.2405,-4.4041,-4.6139,-4.7087,-4.7466,-4.7052,-4.6187,-4.5704,-4.5732,-4.4903,-4.4425,-4.4425,-4.4425,-4.4425,-4.4425,-4.4658,-4.4658,-4.4425,-4.4658,-4.4319,-4.3526,-4.4116,-4.375,-4.257,-4.257,-4.2071,-4.1263,-4.0882,-4.0816,-4.1001,-4.1001,-4.1451,-4.2051,-4.1564,-4.1689,-4.2009,-4.1564,-4.1396,-4.1354,-4.1085,-4.083,-4.0688,-4.0688,-4.0688,-4.0688,-4.0688,-4.0688,-4.0688,-4.0688,-4.0688,-4.0688,-4.0688,-4.0688,-4.0688,-4.0688,-4.0688,-4.0688,-4.0688,-4.0688,-4.0688,-4.0688,-4.0688,-4.0576,-4.0166,-4.0604,-4.0631,-3.9641,-4.0053,-3.9991,-3.8927,-3.8617,-3.8398,-3.8223,-3.7651,-3.7012,-3.6344,-3.5706,-3.5101,-3.4428,-3.4399,-3.4399,-3.4399,-3.4399,-3.4399,-3.4399,-3.3794,-3.3503,-3.3474,-3.2803,-3.2481,-4.1027,-4.3983,-4.587,-4.4818,-4.1659,-3.8112,-3.529,-3.2324,-2.9789,-2.8828,-2.86,-2.86,-2.86,-2.86,-2.9182,-3.1021,-3.1543,-3.2648,-3.5412,-3.7158,-3.9312,-4.2542,-4.5445,-4.7178,-4.7123,-4.6701,-4.6405,-4.6376,-4.5232,-4.4874,-4.5657,-4.4875,-4.4425,-4.4425,-4.4425,-4.4425,-4.4425,-4.4472,-4.4472,-4.4425,-4.4518,-4.418,-4.3497,-4.3694,-4.3104,-4.1924,-4.1924,-4.1455,-4.0677,-4.0714,-4.0673,-4.063,-4.1071,-4.1283,-4.1367,-4.1535,-4.1702,-4.1814,-4.1522,-4.148,-4.1535,-4.1128,-4.1071,-4.1142,-4.0773,-4.0688,-4.0688,-4.0688,-4.0688,-4.0688,-4.0688,-4.0816,-4.0873,-4.073,-4.0816,-4.0901,-4.073,-4.0688,-4.0688,-4.0688,-4.0688,-4.0688,-4.0688,-4.0688,-4.0674,-4.052,-4.0703,-4.0718,-4.0574,-4.0688,-4.0544,-3.9991,-3.9613,-3.9003,-3.8092,-3.7428,-3.6995,-3.6764,-3.5932,-3.5305,-3.5101,-3.4632,-3.4399,-3.4399,-3.4399,-3.4399,-3.4399,-3.4225,-3.3877,-3.3503,-3.3703,-3.3587,-3.6269,-3.9109,-4.0859,-4.0546,-3.8161,-3.5414,-3.3441,-3.1197,-2.9361,-2.8746,-2.8893,-2.9039,-2.866,-2.8957,-2.952,-3.0323,-3.1378,-3.2681,-3.439,-3.6074,-3.8277,-4.1523,-4.4917,-4.6833,-4.6486,-4.6223,-4.5978,-4.5808,-4.4762,-4.4424,-4.5148,-4.4715,-4.4425,-4.4425,-4.4425,-4.4425,-4.4425,-4.4425,-4.4425,-4.4425,-4.4425,-4.4088,-4.3497,-4.3497,-4.2935,-4.1952,-4.1727,-4.1331,0.0,-4.0757,-4.0673,-4.0673,-4.1015,-4.1114,-4.1198,-4.1339,-4.1577,-4.1702,-4.1535,-4.1577,-4.166,-4.1283,-4.1156,-4.11,-4.0901,-4.0773,-4.0688,-4.0688,-4.0688,-4.0688,-4.0773,-4.0916,-4.1015,-4.1141,-4.1283,-4.1326,-4.1096,-4.1053,-4.0969,-4.0744,-4.0688,-4.0688,-4.0688,-4.0688,-4.0688,-4.0688,-4.0688,-4.073,-4.0873,-4.0873,-4.0732,-4.0316,-3.9882,-3.9161,-3.8208,-3.7624,-3.7275,-3.7119,-3.6208,-3.5584,-3.5421,-3.4748,-3.4399,-3.4399,-3.4399,-3.4399,-3.4399,-3.4399,-3.4225,-3.3848,-3.4225,-3.4196,0.0,-3.575,-3.7703,-3.8495,-3.64,-3.3924,-3.2989,-3.0882,0.0,-2.8816,-2.9421,-2.9738,-2.8947,-2.966,-3.0016,-2.9002,-3.0876,-3.2382,-3.2282,-3.4175,-3.64,-3.8718,-4.1893,-4.4065,-4.4509,-4.5616,-4.5998,-4.5324,-4.4734,-4.4425,-4.4425,-4.4425,-4.4425,-4.4425,-4.4425,-4.4425,-4.4425,-4.4425,-4.4397,-4.434,-4.4397,-4.4059,-4.3357,-4.3469,-4.3104,-4.2402,-4.184,-4.1587,-4.1502,-4.094,-4.0816,-4.0958,-4.0816,-4.0986,-4.1354,-4.1128,-4.1339,-4.1702,-4.1702,-4.1702,-4.166,-4.148,-4.11,-4.073,-4.0958,-4.0901,-4.0688,-4.0688,-4.0688,-4.073,-4.0916,-4.1001,-4.1171,-4.1822,-4.1964,-4.1949,-4.1715,-4.1643,-4.1446,-4.0884,-4.0716,-4.0688,-4.0688,-4.0688,-4.0688,-4.0688,-4.0688,-4.0688,-4.0688,-4.0688,-4.0576,-4.018,-3.964,-3.9069,-3.8603,-3.814,-3.7737,-3.7382,-3.6562,-3.5927,-3.5532,-3.4893,-3.4482,-3.4453,-3.4395,-3.4399,-3.4399,-3.4399,-3.4399,-3.4399,-3.4399,-3.4399,-2.9418,0.0,-3.135,-3.24,-3.1772,-3.0885,0.0,-2.9883,-2.9287,-2.9923,-3.0021,-3.0117,-3.051,-3.0804,-3.1032,-3.1123,-3.2,-3.281,-3.3083,-3.6891,-3.9936,-4.0848,-4.4518,-4.6063,-4.3473,-4.5124,-4.583,-4.4706,-4.4481,-4.4425,-4.4425,-4.4425,-4.4425,-4.4425,-4.4425,-4.4425,-4.4425,-4.4425,-4.4172,-4.3722,-4.42,-4.3582,-4.2093,-4.3048,-4.2626,-4.1165,-4.1474,-4.1362,-4.0912,-4.0772,-4.073,-4.0816,-4.1142,-4.1156,-4.1128,-4.1451,-4.1619,-4.1702,-4.1702,-4.1702,-4.1702,-4.166,-4.1198,-4.0773,-4.1156,-4.0986,-4.0688,-4.0688,-4.0688,-4.0688,-4.0773,-4.0873,-4.1128,-4.1577,-4.1833,-4.2062,-4.2277,-4.1952,-4.1587,-4.1418,-4.1025,-4.0688,-4.0688,-4.0688,-4.0688,-4.0688,-4.0688,-4.0688,-4.0688,-4.0688,-4.0631,-4.0576,-4.0139,-3.9669,-3.9057,-3.8204,-3.772,-3.7765,-3.7404,-3.7032,-3.6649,-3.5978,-3.543,-3.494,-3.4558,-3.4399,-3.4399,-3.4399,-3.4399,-3.4399,-3.4399,-3.4399,-2.8449,-2.8765,-2.9338,-3.068,-3.0589,-3.0201,-3.0361,-2.9754,-2.941,-3.0247,-3.0067,-2.9986,-3.0642,-3.0792,-3.0921,-3.1391,-3.1923,-3.2912,-3.4647,-3.7896,-4.0515,-4.1652,-4.4049,-4.5115,-4.3764,-4.528,-4.5774,-4.4509,-4.4425,-4.4425,-4.4425,-4.4425,-4.4425,-4.4425,-4.4425,-4.4425,-4.4425,-4.4425,-4.4116,-4.3497,-4.3835,-4.3301,-4.2064,-4.2458,-4.2064,-4.1137,-4.1165,-4.0997,-4.0688,-4.0688,-4.0688,-4.073,-4.0972,-4.1071,-4.1043,-4.1198,-4.1367,-4.1535,-4.1423,-4.1381,-4.1381,-4.1535,-4.1156,-4.0773,-4.1114,-4.0986,-4.0688,-4.0688,-4.0688,-4.073,-4.0816,-4.0916,-4.1185,-4.1987,-4.2301,-4.2458,-4.2603,-4.2289,-4.1896,-4.1306,-4.0912,-4.0688,-4.0688,-4.0688,-4.0688,-4.0688,-4.0688,-4.0688,-4.0688,-4.0688,-4.0688,-4.0688,-4.011,-3.9555,-3.9244,-3.8388,-3.7976,-3.8169,-3.7729,-3.7596,-3.7805,-3.6913,-3.6029,-3.5247,-3.4679,-3.4399,-3.4399,-3.4399,-3.4399,-3.4399,-3.4399,-3.4574,-2.87,-2.9163,-2.9772,-3.1141,-3.1002,-3.0621,-3.0851,-3.0101,-2.9568,-3.0451,-3.0173,-2.9976,-3.0462,-3.0867,-3.1104,-3.1092,-3.1892,-3.3627,-3.6781,-3.874,-4.0426,-4.1875,-4.3011,-4.382,-4.427,-4.5511,-4.5774,-4.4509,-4.4425,-4.4425,-4.4425,-4.4425,-4.4425,-4.4425,-4.4312,-4.4312,-4.4425,-4.4425,-4.4059,-4.3357,-4.3469,-4.3076,-4.2289,-4.1812,-4.1559,-4.1446,-4.0912,-4.0688,-4.0688,-4.0688,-4.0688,-4.0688,-4.073,-4.0859,-4.1001,-4.0816,-4.0986,-4.1396,-4.1156,-4.1043,-4.1085,-4.1354,-4.11,-4.0773,-4.0958,-4.0859,-4.0688,-4.073,-4.073,-4.073,-4.0916,-4.0958,-4.1241,-4.243,-4.2713,-4.2725,-4.2728,-4.257,-4.2149,-4.1165,-4.0828,-4.0688,-4.0688,-4.0688,-4.0688,-4.0688,-4.0688,-4.0688,-4.0688,-4.0688,-4.0688,-4.0688,-3.9927,-3.9401,-3.9316,-3.8779,-3.8479,-3.8552,-3.7962,-3.7926,-3.8744,-3.7575,-3.6533,-3.5642,-3.5009,-3.4627,-3.4511,-3.4627,-3.4627,-3.4511,-3.4627,-3.498,-2.8985,-2.9697,-3.0671,-3.1185,-3.0847,-3.0529,-3.1226,-3.0446,-3.0051,-3.1789,-3.1663,-3.1302,-3.1663,-3.3459,-3.4221,-3.2249,-3.4362,-3.7165,-3.9699,-4.2251,-4.3496,-4.2532,-4.5712,-4.6712,-4.3424,-4.5057,-4.5774,-4.4509,-4.4425,-4.4425,-4.4425,-4.4425,-4.4425,-4.4425,-4.3891,-4.3891,-4.4425,-4.4425,-4.3835,-4.2711,-4.3245,-4.2626,-4.0997,-4.1418,-4.1334,-4.0828,-4.0744,-4.0688,-4.0688,-4.0688,-4.0688,-4.0688,-4.0873,-4.0958,-4.1001,-4.0958,-4.1156,-4.1396,-4.1354,-4.1354,-4.1354,-4.1396,-4.1198,-4.0958,-4.1001,-4.0859,-4.073,-4.0916,-4.0859,-4.0688,-4.073,-4.073,-4.0899,-4.1631,-4.1799,-4.2109,-4.3132,-4.2514,-4.1868,-4.2233,-4.1418,-4.0688,-4.0688,-4.0688,-4.0688,-4.0688,-4.0688,-4.0688,-4.0688,-4.0688,-4.0688,-4.0688,-4.0562,-4.0252,-3.9759,-3.9577,-3.9365,-3.8871,-3.888,-3.8785,-3.8567,-3.7528,-3.6893,-3.6662,-3.6237,-3.5664,-3.5004,-3.5693,-3.5664,-3.5004,-3.5693,-3.6054,-2.9343,-2.9713,-3.04,-3.14,-3.1177,-3.0979,-3.2147,-3.0962,-3.0309,-3.2758,-3.1552,-3.0513,-3.208,-3.3463,-3.4715,-3.577,-3.8529,-4.0956,-4.2053,-4.298,-4.3667,-4.4063,-4.5546,-4.5804,-4.3978,-4.5336,-4.5633,-4.4031,-4.3919,-4.3778,-4.3441,-4.3413,-4.3413,-4.3413,-4.316,-4.3132,-4.3413,-4.3413,-4.3132,-4.257,-4.2514,-4.184,-4.0716,-4.0997,-4.0969,-4.0688,-4.0688,-4.0688,-4.0688,-4.0688,-4.0688,-4.0688,-4.0816,-4.0873,-4.1001,-4.1001,-4.1029,-4.1015,-4.1015,-4.1015,-4.1015,-4.1015,-4.0944,-4.0859,-4.0859,-4.0773,-4.073,-4.0816,-4.0773,-4.073,-4.0859,-4.0773,-4.0856,-4.1474,-4.1896,-4.2289,-4.2879,-4.2795,-4.2626,-4.2598,-4.184,-4.1193,-4.1193,-4.0912,-4.0688,-4.0688,-4.0688,-4.0688,-4.0688,-4.0688,-4.0828,-4.1165,-4.0603,-4.021,-4.0266,-3.9985,-3.9648,-3.9408,-3.9574,-3.9455,-3.8911,-3.8284,-3.767,-3.6979,-3.6526,-3.6135,-3.5745,-3.6135,-3.6106,-3.5774,-3.6135,-3.6489,-2.9617,-2.9701,-3.0101,-3.1382,-3.1219,-3.1222,-3.3168,-3.1895,-3.1119,-3.412,-3.2505,-3.1071,-3.2992,-3.3621,-3.518,-3.9134,-4.2,-4.3863,-4.4312,-4.42,-4.4536,-4.574,-4.5532,-4.5152,-4.4795,-4.5532,-4.5352,-4.3638,-4.3497,-4.3245,-4.2598,-4.257,-4.257,-4.257,-4.243,-4.243,-4.257,-4.2289,-4.2205,-4.2345,-4.184,-4.1278,-4.0688,-4.0688,-4.0688,-4.0688,-4.0688,-4.0688,-4.0688,-4.0688,-4.0688,-4.0688,-4.0688,-4.0816,-4.0916,-4.0916,-4.0859,-4.0688,-4.073,-4.0773,-4.0773,-4.0816,-4.0816,-4.0773,-4.0773,-4.073,-4.0716,-4.097,-4.0955,-4.0927,-4.093,-4.0816,-4.0828,-4.1278,-4.1896,-4.2402,-4.2542,-4.2935,-4.3188,-4.2851,-4.2193,-4.1659,-4.1615,-4.1265,-4.0998,-4.0912,-4.0912,-4.0912,-4.0912,-4.08,-4.0884,-4.1362,-4.0547,-4.0182,-4.0659,-4.0126,-3.9788,-3.9788,-3.9756,-3.9511,-3.8989,-3.8732,-3.8208,-3.7365,-3.6916,-3.6621,-3.6476,-3.6657,-3.6657,-3.6476,-3.6657,-3.7041,-2.9617,-3.0038,-3.052,-3.0796,-3.0378,-3.0753,-3.4106,-3.3482,-3.3177,-3.6561,-3.6363,-3.5498,-3.526,-3.5573,-3.7091,-4.08,-4.3048,-4.4959,-4.6701,-4.783,-4.8167,-4.7213,-4.7522,-4.7129,-4.5397,-4.5332,-4.4874,-4.3582,-4.3497,-4.3245,-4.2598,-4.257,-4.257,-4.257,-4.2008,-4.198,-4.257,-4.1418,-4.1109,-4.1671,-4.1643,-4.1278,-4.0688,-4.0688,-4.0688,-4.0688,-4.0688,-4.0688,-4.0688,-4.0688,-4.0688,-4.0688,-4.0688,-4.0688,-4.073,-4.073,-4.0688,-4.073,-4.0916,-4.1001,-4.1001,-4.1269,-4.1198,-4.1001,-4.1001,-4.0859,-4.0871,-4.1694,-4.1733,-4.1418,-4.0828,-4.0688,-4.0716,-4.0744,-4.125,-4.184,-4.2458,-4.2598,-4.2795,-4.3329,-4.2636,-4.1877,-4.1659,-4.1762,-4.182,-4.1559,-4.1559,-4.1559,-4.1559,-4.1053,-4.0716,-4.0772,-4.0688,-4.0659,-4.0688,-4.0126,-3.9788,-3.9788,-3.9057,-3.8495,-3.8309,-3.8063,-3.8103,-3.8357,-3.7988,-3.7497,-3.6958,-3.7721,-3.7655,-3.6987,-3.7721,-3.8086,-2.9179,-2.9628,-3.0227,-3.094,-3.0665,-3.1043,-3.4168,-3.4278,-3.4489,-3.7356,-3.7363,-3.6777,-3.6675,-3.7896,-3.983,-4.2523,-4.4434,-4.6083,-4.7572,-4.7516,-4.7291,-4.7207,-4.7066,-4.656,-4.5388,-4.4987,-4.4256,-4.302,-4.2542,-4.2064,-4.1446,-4.1418,-4.1418,-4.1418,-4.1165,-4.1165,-4.1418,-4.094,-4.08,-4.1053,-4.1053,-4.0912,-4.0688,-4.0688,-4.0688,-4.0688,-4.0688,-4.0688,-4.0688,-4.0688,-4.0688,-4.0688,-4.0688,-4.0688,-4.0688,-4.0688,-4.0688,-4.0688,-4.0773,-4.0816,-4.0859,-4.1071,-4.1029,-4.0859,-4.0958,-4.0859,-4.0744,-4.1098,-4.1139,-4.1124,-4.1423,-4.1408,-4.1165,-4.08,-4.1474,-4.2289,-4.2542,-4.3188,-4.3778,-4.4031,-4.3476,-4.293,-4.2795,-4.2547,-4.2338,-4.2249,-4.2205,-4.2064,-4.1671,-4.1418,-4.1278,-4.1278,-4.1278,-4.1109,-4.0716,-4.0491,-4.0013,-3.9296,-3.8545,-3.8105,-3.8025,-3.8036,-3.8033,-3.7929,-3.7892,-3.7852,-3.7742,-3.8049,-3.8049,-3.7742,-3.8049,-3.8202,-2.8703,-2.907,-2.9723,-3.0597,-3.0832,-3.1594,-3.4548,-3.5277,-3.6128,-3.898,-3.8952,-3.8444,-3.8653,-3.9491,-4.0843,-4.3076,-4.4687,-4.6139,-4.7375,-4.6813,-4.6364,-4.6588,-4.6251,-4.5661,-4.4818,-4.4369,-4.361,-4.2374,-4.1868,-4.1362,-4.0716,-4.0688,-4.0688,-4.0688,-4.0688,-4.0688,-4.0688,-4.0688,-4.0688,-4.0688,-4.0688,-4.0688,-4.0688,-4.0688,-4.0688,-4.0688,-4.0688,-4.0688,-4.0688,-4.0688,-4.0688,-4.0688,-4.0688,-4.0688,-4.0688,-4.0688,-4.0688,-4.0688,-4.0688,-4.0688,-4.073,-4.0916,-4.083,-4.073,-4.0916,-4.0859,-4.0744,-4.094,-4.0997,-4.1124,-4.172,-4.1605,-4.1221,-4.08,-4.1671,-4.257,-4.257,-4.3554,-4.4425,-4.4425,-4.3937,-4.3561,-4.3497,-4.3223,-4.2941,-4.2924,-4.2879,-4.2654,-4.2008,-4.1727,-4.1531,-4.1362,-4.1502,-4.1362,-4.0744,-4.0773,-4.0238,-3.8986,-3.8352,-3.7901,-3.7625,-3.7822,-3.7781,-3.751,-3.7701,-3.7891,-3.8118,-3.8165,-3.8202,-3.8202,-3.8202,-3.8202,-2.8136,-2.8419,-2.9041,-2.9633,-3.0668,-3.2314,-3.5414,-3.6595,-3.8074,-4.1812,-4.1587,-4.0884,-4.1502,-4.0126,-3.9774,-4.2177,-4.361,-4.4846,-4.6111,-4.6279,-4.6026,-4.538,-4.5248,-4.4818,-4.361,-4.3497,-4.2964,-4.1699,-4.1615,-4.1334,-4.0716,-4.0688,-4.0688,-4.0688,-4.0688,-4.0688,-4.0688,-4.0688,-4.0688,-4.0688,-4.0688,-4.0688,-4.0688,-4.0688,-4.0688,-4.0688,-4.0688,-4.0688,-4.0688,-4.0688,-4.0688,-4.0688,-4.0688,-4.0688,-4.0688,-4.0688,-4.0688,-4.0688,-4.0688,-4.0688,-4.073,-4.0916,-4.083,-4.073,-4.0916,-4.0859,-4.0828,-4.1418,-4.1615,-4.1615,-4.1615,-4.1165,-4.0688,-4.0688,-4.1671,-4.257,-4.257,-4.3526,-4.4397,-4.4425,-4.4075,-4.3743,-4.3543,-4.3652,-4.3743,-4.3543,-4.3497,-4.3273,-4.2654,-4.2008,-4.1362,-4.0772,-4.125,-4.1362,-4.0744,-4.0873,-4.0407,-3.9015,-3.854,-3.7918,-3.7046,-3.7173,-3.7289,-3.7289,-3.751,-3.7701,-3.7891,-3.8089,-3.8202,-3.8202,-3.8202,-3.8202,-2.8225,-2.8195,-2.8533,-2.9732,-3.1075,-3.2854,-3.5647,-3.7349,-3.9408,-4.3104,-4.2514,-4.139,-4.1587,-4.2233,-4.2711,-4.2598,-4.361,-4.4678,-4.5493,-4.524,-4.4734,-4.4116,-4.4031,-4.3722,-4.2935,-4.243,-4.2008,-4.1643,-4.0929,-4.0449,-4.028,-4.0022,-3.9877,-3.9877,-3.9877,-3.9877,-3.9877,-3.9877,-3.9877,-3.9836,-4.0137,-4.0421,-4.0688,-4.0688,-4.0688,-4.0688,-4.0688,-4.0688,-4.0688,-4.0688,-4.0688,-4.0688,-4.0688,-4.0688,-4.0688,-4.0688,-4.0688,-4.0688,-4.0688,-4.0688,-4.073,-4.0916,-4.083,-4.073,-4.0916,-4.0859,-4.0744,-4.0912,-4.0969,-4.0969,-4.0969,-4.0828,-4.0688,-4.0688,-4.1306,-4.2036,-4.2486,-4.3188,-4.3891,-4.434,-4.4303,-4.4208,-4.4144,-4.419,-4.4208,-4.4144,-4.3778,-4.3104,-4.2036,-4.1362,-4.0912,-4.0716,-4.0856,-4.0884,-4.0716,-4.073,-4.0604,-4.0182,-3.9253,-3.8183,-3.7035,-3.7056,-3.7134,-3.7289,-3.751,-3.7701,-3.7891,-3.8089,-3.8202,-3.8202,-3.8202,-3.8202,-2.7881,-2.7997,-2.8565,-3.0708,-3.2155,-3.3895,-3.6749,-3.8956,-4.1293,-4.4481,-4.3469,-4.2233,-4.2964,-4.3216,-4.3301,-4.3301,-4.3947,-4.4453,-4.4593,-4.4284,-4.3835,-4.3188,-4.3132,-4.2795,-4.1924,-4.1474,-4.1053,-4.0547,-3.997,-3.963,-3.963,-3.9414,-3.9256,-3.9256,-3.9256,-3.9256,-3.9256,-3.9256,-3.9256,-3.9256,-3.9502,-3.9745,-3.9985,-4.021,-4.0463,-4.0688,-4.0688,-4.0547,-4.0322,-4.0322,-4.0182,-3.9985,-4.0238,-4.0322,-4.035,-4.0603,-4.0688,-4.0688,-4.0688,-4.0688,-4.073,-4.0859,-4.0816,-4.073,-4.0859,-4.0816,-4.0688,-4.0688,-4.0688,-4.0688,-4.0688,-4.0688,-4.0688,-4.0688,-4.1165,-4.1783,-4.243,-4.3048,-4.3666,-4.4284,-4.4425,-4.4425,-4.4425,-4.4425,-4.434,-4.4088,-4.3301,-4.2486,-4.1699,-4.1081,-4.0688,-4.0688,-4.0688,-4.0688,-4.0688,-4.0773,-4.0661,-4.035,-3.9506,-3.8533,-3.74,-3.7119,-3.7056,-3.7173,-3.7394,-3.7586,-3.7777,-3.8005,-3.8127,-3.8202,-3.8202,-3.8202,-2.7476,-2.7968,-2.9023,-3.2107,-3.3712,-3.534,-3.8452,-4.0955,-4.3245,-4.5549,-4.42,-4.3132,-4.4987,-4.3469,-4.2486,-4.4144,-4.4369,-4.4144,-4.3582,-4.3441,-4.3188,-4.257,-4.2486,-4.2008,-4.0744,-4.0603,-4.0126,-3.8986,-3.8846,-3.879,-3.8733,-3.8774,-3.8746,-3.8689,-3.8746,-3.8774,-3.8774,-3.8774,-3.8774,-3.8774,-3.883,-3.8818,-3.8846,-3.9465,-4.0013,-4.0547,-4.0547,-4.0238,-3.9788,-3.9732,-3.9465,-3.9127,-3.9592,-3.9816,-3.9929,-4.0491,-4.0688,-4.0688,-4.0688,-4.0688,-4.0688,-4.0688,-4.0688,-4.0688,-4.0688,-4.0688,-4.0688,-4.0688,-4.0688,-4.0688,-4.0688,-4.0688,-4.0688,-4.0688,-4.1137,-4.1727,-4.243,-4.302,-4.361,-4.4284,-4.4425,-4.4425,-4.4425,-4.4369,-4.4088,-4.3441,-4.2345,-4.1587,-4.1531,-4.1053,-4.0688,-4.0688,-4.0688,-4.0688,-4.0688,-4.0901,-4.0675,-4.0027,-3.9489,-3.8839,-3.8102,-3.7372,-3.6978,-3.6978,-3.7173,-3.7394,-3.7586,-3.7777,-3.8005,-3.8165,-3.8202,-3.8202,-2.8713,-2.8796,-2.9387,-3.2085,-3.4969,-3.7793,-4.0435,-4.184,-4.2879,-4.3891,-4.3301,-4.3132,-4.4987,-4.4855,-4.4509,-4.4425,-4.4003,-4.3638,-4.3526,-4.3076,-4.2542,-4.1896,-4.1812,-4.1334,-4.0097,-3.9985,-3.9676,-3.8958,-3.8545,-3.8145,-3.7664,-3.7792,-3.7642,-3.7196,-3.7613,-3.787,-3.787,-3.787,-3.787,-3.787,-3.8195,-3.8342,-3.8371,-3.8858,-3.9183,-3.9296,-3.9296,-3.9493,-3.9732,-3.9296,-3.9605,-4.0266,-3.9929,-4.0069,-4.0519,-4.0659,-4.0688,-4.0688,-4.0688,-4.0688,-4.0688,-4.0688,-4.0688,-4.0688,-4.0688,-4.0688,-4.0688,-4.0688,-4.0688,-4.0688,-4.0688,-4.0688,-4.0688,-4.0688,-4.08,-4.1193,-4.2345,-4.2683,-4.3104,-4.42,-4.4425,-4.4425,-4.4425,-4.4003,-4.3301,-4.2177,-4.1783,-4.1446,-4.094,-4.0772,-4.0688,-4.0688,-4.0688,-4.0688,-4.0688,-4.073,-4.0871,-4.1193,-3.9774,-3.9112,-3.9367,-3.7821,-3.6978,-3.6978,-3.7173,-3.7289,-3.7394,-3.7739,-3.7929,-3.7967,-3.8127,-3.8202,-2.7766,-2.8426,-2.9815,-3.3152,-3.5826,-3.7997,-3.9479,-4.0575,-4.1334,-4.1643,-4.2654,-4.3666,-4.434,-4.4453,-4.4256,-4.3638,-4.3273,-4.2964,-4.2654,-4.2317,-4.1783,-4.0856,-4.0744,-4.0238,-3.9002,-3.8608,-3.8227,-3.7726,-3.7106,-3.6712,-3.6552,-3.6486,-3.6344,-3.6105,-3.6315,-3.6448,-3.6448,-3.676,-3.676,-3.6476,-3.7268,-3.7614,-3.7642,-3.8521,-3.8733,-3.8412,-3.8761,-3.8902,-3.8861,-3.8524,-3.8608,-3.8917,-3.8889,-3.9086,-3.9423,-4.0041,-4.0266,-4.0294,-4.0603,-4.0688,-4.0688,-4.0688,-4.0688,-4.0688,-4.0688,-4.0688,-4.0688,-4.0688,-4.0688,-4.0688,-4.0688,-4.0688,-4.0688,-4.0688,-4.0912,-4.139,-4.2374,-4.2823,-4.3301,-4.4228,-4.4172,-4.3975,-4.3975,-4.3216,-4.2374,-4.1699,-4.1362,-4.1053,-4.0744,-4.0688,-4.0688,-4.0688,-4.0688,-4.0688,-4.0688,-4.0773,-4.0971,-4.131,-4.0435,-3.9786,-3.9532,-3.8492,-3.7597,-3.7007,-3.7095,-3.7173,-3.7289,-3.751,-3.7663,-3.7777,-3.7863,-3.7901,-2.6381,-2.8025,-3.0537,-3.4172,-3.6118,-3.7278,-3.7777,-3.8777,-3.9648,-3.976,-4.2008,-4.3778,-4.3273,-4.3273,-4.316,-4.2654,-4.2486,-4.2177,-4.1559,-4.1362,-4.0828,-3.9592,-3.9564,-3.9086,-3.7709,-3.7231,-3.6775,-3.6231,-3.5582,-3.5272,-3.5415,-3.528,-3.517,-3.5195,-3.5207,-3.5189,-3.5189,-3.5695,-3.5695,-3.5189,-3.623,-3.6764,-3.6866,-3.7946,-3.8199,-3.7765,-3.8339,-3.8299,-3.7878,-3.7793,-3.7569,-3.7344,-3.7737,-3.7962,-3.8187,-3.9255,-3.962,-3.9704,-4.0322,-4.0547,-4.0547,-4.0659,-4.0688,-4.0688,-4.0688,-4.0688,-4.0688,-4.0688,-4.0688,-4.0688,-4.0688,-4.0772,-4.0828,-4.0716,-4.125,-4.1924,-4.2458,-4.2964,-4.3554,-4.4256,-4.3919,-4.3413,-4.3216,-4.2317,-4.1587,-4.1474,-4.1025,-4.0688,-4.0688,-4.0688,-4.0688,-4.0688,-4.0688,-4.0688,-4.073,-4.0873,-4.1001,-4.1043,-4.0958,-4.0406,-3.9414,-3.8927,-3.8215,-3.7175,-3.7035,-3.7056,-3.725,-3.725,-3.7394,-3.7548,-3.7586,-3.7625,-2.6522,-2.9116,-3.2094,-3.3441,-3.5164,-3.6769,-3.7692,-3.8468,-3.9183,-3.9676,-4.0969,-4.1952,-4.1896,-4.2317,-4.2683,-4.2598,-4.2121,-4.1531,-4.0912,-4.035,-3.9564,-3.8299,-3.8677,-3.8311,-3.6511,-3.6764,-3.6539,-3.5451,-3.5282,-3.4964,-3.443,-3.4908,-3.4936,-3.4393,-3.4908,-3.5189,-3.5189,-3.5273,-3.5273,-3.5189,-3.5358,-3.5723,-3.623,-3.6399,-3.6736,-3.7119,-3.7203,-3.7484,-3.785,-3.7344,-3.7709,-3.8621,-3.8102,-3.8243,-3.879,-3.8958,-3.9043,-3.9127,-3.9704,-3.9901,-3.9985,-4.0519,-4.0688,-4.0688,-4.0688,-4.0688,-4.0688,-4.0688,-4.0688,-4.0688,-4.0688,-4.1081,-4.1362,-4.0828,-4.1587,-4.2486,-4.257,-4.2654,-4.3048,-4.42,-4.3919,-4.316,-4.2064,-4.1727,-4.1418,-4.0912,-4.0744,-4.0688,-4.0688,-4.0688,-4.0688,-4.0688,-4.0688,-4.0773,-4.0958,-4.1001,-4.1085,-4.1354,-4.0631,-4.0179,-4.0009,-3.873,-3.7934,-3.7765,-3.7259,-3.7017,-3.7017,-3.7211,-3.7289,-3.7327,-3.751,-3.7625,-2.6763,-2.7939,-2.963,-3.2539,-3.3516,-3.425,-3.6062,-3.6662,-3.6905,-3.7158,-3.844,-3.976,-4.0463,-4.1109,-4.1306,-4.0646,-4.0266,-3.9985,-3.9704,-3.9465,-3.8958,-3.8018,-3.785,-3.7383,-3.623,-3.5686,-3.5273,-3.482,-3.4381,-3.4135,-3.403,-3.4079,-3.4036,-3.3889,-3.4036,-3.414,-3.414,-3.4478,-3.4815,-3.5189,-3.4815,-3.4955,-3.5611,-3.5611,-3.6117,-3.6978,-3.6978,-3.7147,-3.7372,-3.7091,-3.7316,-3.7833,-3.7512,-3.7569,-3.7889,-3.8187,-3.8327,-3.8468,-3.9451,-3.9788,-3.9873,-4.0491,-4.0688,-4.0688,-4.0688,-4.0688,-4.0688,-4.0688,-4.0688,-4.0688,-4.0688,-4.1165,-4.1531,-4.1278,-4.1643,-4.2233,-4.2935,-4.2823,-4.2626,-4.2823,-4.2626,-4.2149,-4.125,-4.1109,-4.1025,-4.0744,-4.0688,-4.0688,-4.0688,-4.0688,-4.0688,-4.0688,-4.0688,-4.0773,-4.1001,-4.1156,-4.1283,-4.1396,-4.1368,-4.0986,-4.0151,-3.9717,-3.8974,-3.7934,-3.7288,-3.7056,-3.7173,-3.7134,-3.7173,-3.7289,-3.725,-3.725,-2.6275,-2.6589,-2.7363,-3.0953,-3.1679,-3.2052,-3.3988,-3.4623,-3.4804,-3.4908,-3.6314,-3.776,-3.8508,-3.9507,-3.9929,-3.9071,-3.8902,-3.8846,-3.8677,-3.8677,-3.8311,-3.7316,-3.6922,-3.6427,-3.5461,-3.4674,-3.4205,-3.4207,-3.3649,-3.3431,-3.3709,-3.3466,-3.3361,-3.3536,-3.3396,-3.329,-3.329,-3.374,-3.4225,-3.4711,-3.4225,-3.4337,-3.4964,-3.4964,-3.5555,-3.6567,-3.6708,-3.6838,-3.6978,-3.6978,-3.6978,-3.6978,-3.6978,-3.6978,-3.7035,-3.7512,-3.7765,-3.8046,-3.917,-3.9648,-3.9873,-4.0491,-4.0688,-4.0688,-4.0688,-4.0688,-4.0688,-4.0688,-4.0688,-4.0688,-4.0688,-4.1278,-4.1783,-4.1446,-4.1755,-4.2261,-4.2879,-4.302,-4.2767,-4.1812,-4.1755,-4.1615,-4.0828,-4.0688,-4.0688,-4.0688,-4.0688,-4.0688,-4.0688,-4.0688,-4.0688,-4.0688,-4.0688,-4.0773,-4.1001,-4.1198,-4.1354,-4.148,-4.1782,-4.1483,-4.0489,-4.0365,-3.9633,-3.8159,-3.7411,-3.7134,-3.7289,-3.7134,-3.7173,-3.7394,-3.7211,-3.7134,-2.453,-2.5894,-2.7033,-2.8168,-2.9767,-3.1155,-3.1599,-3.2732,-3.379,-3.4169,-3.5441,-3.6288,-3.5564,-3.7383,-3.8986,-3.893,-3.8902,-3.8705,-3.8046,-3.7962,-3.7288,-3.5555,-3.5836,-3.5433,-3.3635,-3.3908,-3.3964,-3.341,-3.3326,-3.3326,-3.3326,-3.3326,-3.329,-3.3326,-3.3326,-3.329,-3.329,-3.3319,-3.3347,-3.3375,-3.3347,-3.3655,-3.4245,-3.4245,-3.4646,-3.533,-3.5892,-3.6483,-3.6978,-3.6978,-3.6978,-3.6978,-3.6978,-3.6978,-3.6978,-3.7035,-3.74,-3.799,-3.8733,-3.9324,-3.9873,-4.0491,-4.0688,-4.0688,-4.0688,-4.0688,-4.0688,-4.0688,-4.0688,-4.0688,-4.0688,-4.1615,-4.2233,-4.1025,-4.2121,-4.3076,-4.1952,-4.3076,-4.3778,-4.1952,-4.2121,-4.2149,-4.0912,-4.0688,-4.0688,-4.0688,-4.0688,-4.0688,-4.0688,-4.0688,-4.0688,-4.0688,-4.0688,-4.0773,-4.1001,-4.1001,-4.1212,-4.166,-4.1283,-4.1156,-4.1339,-4.0019,-3.9122,-3.8846,-3.7822,-3.7289,-3.7289,-3.7289,-3.7394,-3.7586,-3.7586,-3.7471,-2.3502,-2.4583,-2.5696,-2.7335,-2.8083,-2.8849,-3.0392,-3.1293,-3.1815,-3.1942,-3.381,-3.5102,-3.4299,-3.6109,-3.758,-3.7186,-3.7439,-3.7608,-3.7344,-3.7316,-3.6922,-3.5892,-3.5639,-3.5105,-3.3964,-3.3712,-3.3515,-3.3319,-3.2595,-3.2483,-3.3234,-3.2567,-3.2511,-3.3262,-3.329,-3.329,-3.329,-3.329,-3.329,-3.329,-3.329,-3.3403,-3.3599,-3.3599,-3.3936,-3.459,-3.4815,-3.5461,-3.6455,-3.681,-3.6978,-3.6978,-3.6978,-3.6978,-3.6978,-3.6978,-3.7372,-3.799,-3.8677,-3.9324,-3.9873,-4.0491,-4.0688,-4.0688,-4.0688,-4.0688,-4.0688,-4.0688,-4.0688,-4.0688,-4.0688,-4.1643,-4.257,-4.2514,-4.3301,-4.375,-4.2514,-4.243,-4.2289,-4.1221,-4.1221,-4.1221,-4.0772,-4.0688,-4.0688,-4.0688,-4.0688,-4.0688,-4.0688,-4.0688,-4.0688,-4.0688,-4.0688,-4.0773,-4.1001,-4.1001,-4.1128,-4.148,-4.1198,-4.0915,-4.0767,-4.0133,-3.9414,-3.8672,-3.8296,-3.7831,-3.7289,-3.7289,-3.7394,-3.7625,-3.7625,-3.751,-2.2855,-2.3679,-2.4697,-2.6617,-2.677,-2.6945,-2.8769,-2.9595,-3.0017,-3.0123,-3.2017,-3.3568,-3.3397,-3.4759,-3.5892,-3.5883,-3.6183,-3.6437,-3.6399,-3.6427,-3.6174,-3.5517,-3.5096,-3.459,-3.3964,-3.3543,-3.329,-3.329,-3.2567,-3.2455,-3.3234,-3.2539,-3.2483,-3.3262,-3.329,-3.329,-3.329,-3.329,-3.329,-3.329,-3.329,-3.329,-3.329,-3.329,-3.3515,-3.3908,-3.4104,-3.4927,-3.6145,-3.6539,-3.681,-3.6978,-3.6978,-3.6978,-3.6978,-3.6978,-3.7512,-3.8299,-3.8761,-3.9436,-4.0154,-4.0575,-4.0688,-4.0688,-4.0688,-4.0688,-4.0688,-4.0688,-4.0688,-4.0688,-4.0688,-4.1474,-4.2458,-4.3301,-4.3807,-4.3891,-4.3076,-4.2711,-4.2233,-4.1193,-4.1193,-4.1193,-4.0772,-4.0688,-4.0688,-4.0688,-4.0688,-4.0688,-4.0688,-4.0688,-4.0688,-4.0688,-4.0688,-4.073,-4.0873,-4.0873,-4.1029,-4.1241,-4.1029,-4.0717,-4.0383,-4.0089,-3.9491,-3.8528,-3.8378,-3.7986,-3.7394,-3.7471,-3.7586,-3.7701,-3.7777,-3.7672,0.0,0.0,0.0,-2.5797,-2.58,-2.5631,-2.6691,-2.7626,-2.8455,-2.894,-3.0205,-3.153,-3.263,-3.3339,-3.4063,-3.5164,-3.5382,-3.5337,-3.5226,-3.5226,-3.4964,-3.4273,-3.4189,-3.3964,-3.3347,-3.329,-3.329,-3.329,-3.3262,-3.3234,-3.329,-3.329,-3.329,-3.329,-3.329,-3.329,-3.329,-3.329,-3.329,-3.329,-3.329,-3.329,-3.329,-3.329,-3.329,-3.3319,-3.3908,-3.4899,-3.6061,-3.6089,-3.6455,-3.695,-3.6978,-3.6978,-3.7017,-3.7017,-3.7805,-3.8874,-3.8902,-3.969,-4.0659,-4.0688,-4.0688,-4.0688,-4.0688,-4.0688,-4.0688,-4.0688,-4.0688,-4.0688,-4.0716,-4.1193,-4.1952,-4.3188,-4.3497,-4.3526,-4.3526,-4.3975,-4.3835,-4.2008,-4.2149,-4.2177,-4.094,-4.0716,-4.0688,-4.0688,-4.0688,-4.0688,-4.0688,-4.0688,-4.0688,-4.0688,-4.0688,-4.0688,-4.0688,-4.0688,-4.0773,-4.1001,-4.0816,-4.0619,-4.0383,-3.9784,-3.9185,-3.85,-3.8131,-3.7815,-3.7625,-3.7815,-3.7891,-3.7891,-3.8089,-3.8089,-2.1787,0.0,0.0,0.0,0.0,0.0,-2.5373,-2.5949,-2.6529,-2.7107,-2.8367,-2.9753,-3.0812,-3.1622,-3.2519,-3.3618,-3.4818,-3.5557,-3.5373,-3.5337,-3.5074,-3.4273,-3.4189,-3.3964,-3.3347,-3.329,-3.329,-3.329,-3.2511,-3.2398,-3.3234,-3.329,-3.329,-3.329,-3.329,-3.329,-3.329,-3.329,-3.329,-3.329,-3.329,-3.329,-3.329,-3.329,-3.329,-3.329,-3.3459,-3.3992,-3.4815,-3.5714,-3.6202,-3.6399,-3.681,-3.7095,-3.7211,-3.7211,-3.7799,-3.8644,-3.9005,-3.9643,-4.0336,-4.059,-4.0688,-4.0688,-4.0688,-4.0688,-4.0688,-4.0688,-4.0688,-4.08,-4.125,-4.184,-4.2514,-4.3301,-4.3835,-4.4144,-4.4144,-4.3947,-4.3469,-4.2486,-4.2064,-4.1755,-4.1418,-4.0997,-4.0688,-4.0688,-4.0688,-4.0688,-4.0688,-4.0688,-4.0688,-4.0688,-4.0688,-4.0688,-4.0688,-4.0688,-4.0773,-4.1001,-4.0816,-4.0463,-3.9998,-3.9665,-3.9115,-3.8303,-3.8176,-3.8043,-3.7815,-3.7853,-3.7891,-3.7891,-3.7967,-3.7891,0.0,-2.2214,-2.3028,-2.3851,0.0,0.0,-2.4307,-2.4842,-2.5315,-2.5741,-2.7093,-2.8422,-2.9088,-2.9782,-3.0564,-3.1544,-3.2713,-3.3768,-3.454,-3.4718,-3.454,-3.3888,-3.3895,-3.379,-3.3354,-3.329,-3.329,-3.329,-3.2651,-3.2567,-3.3234,-3.329,-3.329,-3.329,-3.329,-3.329,-3.329,-3.329,-3.329,-3.329,-3.329,-3.329,-3.329,-3.329,-3.329,-3.329,-3.329,-3.3487,-3.3908,-3.5217,-3.5864,-3.6174,-3.6792,-3.7095,-3.7289,-3.7289,-3.7802,-3.8574,-3.9069,-3.9612,-4.0194,-4.0576,-4.0688,-4.0688,-4.0688,-4.0688,-4.0688,-4.0688,-4.0688,-4.0772,-4.1137,-4.1699,-4.2261,-4.2626,-4.3188,-4.3638,-4.3638,-4.3357,-4.3076,-4.2964,-4.2233,-4.1615,-4.1615,-4.1109,-4.0688,-4.0688,-4.0688,-4.0688,-4.0688,-4.0688,-4.0688,-4.0688,-4.0688,-4.0688,-4.0688,-4.0688,-4.073,-4.0901,-4.0773,-4.0491,-4.0072,-3.9922,-3.947,-3.8638,-3.887,-3.8793,-3.8447,-3.8158,-3.7898,-3.7667,-3.7555,-3.7517,0.0,0.0,0.0,-2.3918,-2.3166,0.0,-2.3427,-2.4019,-2.4427,-2.4689,-2.5914,-2.7043,-2.7353,-2.7904,-2.8539,-2.9262,-2.9898,-3.1013,-3.3107,-3.3671,-3.3693,-3.3283,-3.3472,-3.3536,-3.3361,-3.3326,-3.329,-3.329,-3.329,-3.329,-3.329,-3.329,-3.329,-3.329,-3.329,-3.329,-3.329,-3.329,-3.329,-3.329,-3.329,-3.329,-3.329,-3.329,-3.329,-3.329,-3.329,-3.329,-3.3375,-3.4562,-3.5442,-3.6089,-3.6764,-3.7095,-3.7289,-3.7327,-3.7813,-3.85,-3.8996,-3.954,-4.0081,-4.0407,-4.0618,-4.0688,-4.0603,-4.0659,-4.0688,-4.0688,-4.0688,-4.0688,-4.0688,-4.1165,-4.1615,-4.1615,-4.2121,-4.257,-4.257,-4.2514,-4.2654,-4.3273,-4.243,-4.1615,-4.1615,-4.1109,-4.0688,-4.0688,-4.0688,-4.0688,-4.0688,-4.0688,-4.0688,-4.0688,-4.0688,-4.0688,-4.0688,-4.0688,-4.0688,-4.0688,-4.073,-4.0619,-4.0383,-4.0339,-3.9969,-3.9218,-3.9741,-3.9741,-3.9151,-3.8522,-3.7883,-3.7302,-3.7119,-3.709,-2.1765,-2.193,-2.2363,-2.2849,-2.3073,0.0,-2.289,-2.2849,-2.3031,-2.3521,-2.3569,-2.3989,-2.5429,-2.6388,-2.7184,-2.7791,-2.8944,-3.0329,-3.2054,-3.2896,-3.3212,-3.2868,-3.3259,-3.357,-3.3536,-3.3396,-3.329,-3.329,-3.329,-3.329,-3.329,-3.329,-3.329,-3.329,-3.329,-3.329,-3.329,-3.329,-3.329,-3.329,-3.329,-3.329,-3.329,-3.329,-3.329,-3.329,-3.329,-3.329,-3.3382,-3.4076,-3.4787,-3.547,-3.6595,-3.7095,-3.7289,-3.7471,-3.7749,-3.8103,-3.8706,-3.9179,-3.9617,-3.9527,-4.0027,-4.0603,-4.0097,-4.0294,-4.0688,-4.0688,-4.0688,-4.0688,-4.0688,-4.1165,-4.1615,-4.1615,-4.2121,-4.257,-4.257,-4.2177,-4.198,-4.2626,-4.2149,-4.1615,-4.1615,-4.1109,-4.0688,-4.0688,-4.0688,-4.0688,-4.0688,-4.0688,-4.0688,-4.0688,-4.0688,-4.0688,-4.0688,-4.0688,-4.0688,-4.0688,-4.0859,-4.0759,-4.0412,-4.0101,-3.9697,-3.9218,-3.9305,-3.9228,-3.8957,-3.8446,-3.7883,-3.7302,-3.7266,-3.6903,-2.2147,-2.1903,-2.2011,-2.2483,-2.2896,0.0,0.0,-2.2896,-2.3507,-2.3411,-2.3488,-2.3712,-2.4262,-2.4969,-2.5589,-2.6009,-2.6638,-2.7678,-2.9398,-3.096,-3.1997,-3.2264,-3.2388,-3.2644,-3.3203,-3.3089,-3.3058,-3.3297,-3.329,-3.329,-3.329,-3.329,-3.329,-3.329,-3.329,-3.329,-3.329,-3.329,-3.329,-3.329,-3.329,-3.329,-3.329,-3.329,-3.329,-3.329,-3.329,-3.329,-3.3347,-3.3936,-3.4385,-3.4815,-3.6089,-3.688,-3.7289,-3.7433,-3.7663,-3.7978,-3.8466,-3.8807,-3.9059,-3.9511,-3.9785,-3.997,-4.0196,-4.0463,-4.0688,-4.0688,-4.0688,-4.0688,-4.0688,-4.0912,-4.1165,-4.1165,-4.1418,-4.1643,-4.1643,-4.139,-4.125,-4.1587,-4.139,-4.125,-4.1559,-4.1109,-4.0688,-4.0688,-4.0688,-4.0688,-4.0688,-4.0688,-4.0688,-4.0688,-4.0688,-4.0575,-4.0266,-4.0238,-4.0238,-4.0238,-4.0055,-4.0052,-4.0218,-3.9743,-3.9671,-3.9989,-3.9789,-3.9537,-3.9341,-3.8823,-3.8014,-3.6979,-3.6662,-3.6309,-2.2451,-2.1963,-2.1863,-2.2534,-2.2855,-2.2873,0.0,0.0,0.0,-2.3574,-2.3778,-2.3916,-2.335,-2.3733,-2.407,-2.3971,-2.4267,-2.4937,-2.625,-2.8165,-2.9897,-3.0991,-3.0888,-3.1123,-3.2221,-3.2283,-3.2489,-3.2973,-3.3108,-3.3164,-3.3164,-3.3269,-3.329,-3.329,-3.329,-3.329,-3.329,-3.329,-3.329,-3.329,-3.329,-3.329,-3.329,-3.329,-3.329,-3.329,-3.329,-3.329,-3.3319,-3.3824,-3.4104,-3.4329,-3.5574,-3.6503,-3.7109,-3.726,-3.751,-3.7863,-3.8235,-3.8453,-3.8631,-3.9422,-3.9455,-3.9401,-4.0407,-4.0688,-4.0688,-4.0688,-4.0688,-4.0688,-4.0688,-4.0688,-4.0688,-4.0688,-4.0688,-4.0688,-4.0688,-4.0688,-4.0688,-4.0688,-4.0688,-4.0856,-4.1362,-4.1025,-4.0688,-4.0688,-4.0688,-4.0688,-4.0688,-4.0688,-4.0688,-4.0688,-4.0688,-4.0533,-4.0069,-3.9887,-3.983,-3.9872,-3.9281,-3.925,-3.9882,-3.9552,-3.9796,-4.0833,-4.0318,-3.996,-3.9722,-3.9118,-3.8093,-3.6682,-3.6131,-3.589,-2.2361,-2.2468,-2.2759,-2.2985,-2.3459,-2.3853,-2.3847,0.0,-2.3521,-2.3223,0.0,-2.2578,-2.2381,0.0,0.0,-2.1398,-2.305,-2.4218,-2.3425,-2.4504,-2.6129,-2.8195,-2.851,-2.8996,-3.0125,-3.0718,-3.1286,-3.2008,-3.2443,-3.2687,-3.2687,-3.3086,-3.329,-3.329,-3.329,-3.329,-3.329,-3.329,-3.329,-3.329,-3.329,-3.329,-3.329,-3.329,-3.329,-3.329,-3.329,-3.329,-3.329,-3.3347,-3.3712,-3.4329,-3.5574,-3.6145,-3.6324,-3.7013,-3.7327,-3.7433,-3.7825,-3.8198,-3.8443,-3.8236,-3.8614,-3.9401,-4.0407,-4.0688,-4.0688,-4.0688,-4.0688,-4.0688,-4.0688,-4.0688,-4.0688,-4.0688,-4.0688,-4.0688,-4.0688,-4.0688,-4.0688,-4.0688,-4.0688,-4.0716,-4.08,-4.0744,-4.0688,-4.0688,-4.0688,-4.0688,-4.0688,-4.0688,-4.0688,-4.0688,-4.0688,-4.0745,-4.0873,-4.0196,-3.9872,-4.0039,-3.9515,-3.9203,-3.93,-3.9579,-4.0158,-4.1036,-4.0267,-3.9722,-3.9522,-3.8763,-3.7784,-3.6682,-3.6625,-3.6282,-2.3574,-2.4136,-2.4537,-2.4283,-2.5207,-2.6014,-2.5319,-2.4583,-2.4095,-2.4185,0.0,0.0,0.0,0.0,0.0,0.0,-2.2637,-2.3103,-2.2632,-2.2472,-2.3674,-2.717,-2.7052,-2.7423,-2.9309,-2.9706,-3.0043,-3.0637,-3.0952,-3.1201,-3.1373,-3.2331,-3.3002,-3.3262,-3.329,-3.329,-3.329,-3.329,-3.329,-3.329,-3.329,-3.329,-3.329,-3.329,-3.329,-3.329,-3.329,-3.329,-3.329,-3.329,-3.3431,-3.3796,-3.5105,-3.578,-3.6174,-3.687,-3.7173,-3.7327,-3.7625,-3.7834,-3.7967,-3.7902,-3.8739,-3.9782,-3.9924,-4.0336,-4.0688,-4.0688,-4.0688,-4.0688,-4.0688,-4.0688,-4.0688,-4.0688,-4.0688,-4.0688,-4.0688,-4.0688,-4.073,-4.0859,-4.0773,-4.073,-4.083,-4.0773,-4.0688,-4.0688,-4.0688,-4.0688,-4.0688,-4.0688,-4.0688,-4.0688,-4.0378,-4.0055,-3.9815,-3.914,-3.8733,-3.8815,-3.8561,-3.8529,-3.8649,-3.915,-3.9917,-4.0914,-4.0908,-4.0428,-3.9482,-3.9145,-3.8257,-3.6854,-3.6628,-3.6627,-2.5228,-2.5933,-2.6199,-2.5408,-2.6203,-2.6878,-2.5673,-2.4801,-2.4291,-2.4544,-2.379,0.0,0.0,0.0,0.0,0.0,0.0,-2.247,-2.1931,-2.1481,-2.2409,-2.5747,-2.5883,-2.6395,-2.8226,-2.8511,-2.8709,-2.9075,-2.9505,-2.9842,-3.0136,-3.1693,-3.2732,-3.3114,-3.3241,-3.329,-3.329,-3.329,-3.329,-3.329,-3.329,-3.329,-3.329,-3.329,-3.329,-3.329,-3.329,-3.329,-3.329,-3.329,-3.329,-3.3438,-3.4711,-3.547,-3.5949,-3.6736,-3.7095,-3.725,-3.7471,-3.7586,-3.773,-3.7901,-3.8859,-3.9893,-3.965,-4.0124,-4.0688,-4.0688,-4.0688,-4.0688,-4.0688,-4.0688,-4.0688,-4.0688,-4.073,-4.0773,-4.0688,-4.073,-4.0816,-4.0873,-4.0816,-4.073,-4.0873,-4.0816,-4.0688,-4.0688,-4.0688,-4.0688,-4.0688,-4.0688,-4.0688,-4.0688,-4.0294,-3.983,-3.9294,-3.8564,-3.8018,-3.7681,-3.7821,-3.811,-3.8587,-3.9041,-3.9841,-4.1023,-4.1258,-4.0818,-3.9739,-3.9527,-3.87,-3.7349,-3.6805,-3.7015,-2.7217,-2.7561,-2.7554,-2.6039,-2.5676,-2.5405,-2.4399,-2.3826,-2.354,-2.354,-2.3997,-2.4275,-2.3822,0.0,0.0,0.0,0.0,0.0,0.0,-2.1591,-2.256,-2.315,-2.481,-2.6043,-2.6372,-2.6859,-2.7228,-2.7369,-2.8367,-2.902,-2.9254,-3.1241,-3.2466,-3.2636,-3.3058,-3.329,-3.329,-3.329,-3.329,-3.329,-3.329,-3.329,-3.329,-3.329,-3.329,-3.329,-3.329,-3.329,-3.329,-3.329,-3.329,-3.3438,-3.4711,-3.5189,-3.5358,-3.6567,-3.6978,-3.7017,-3.7211,-3.7586,-3.793,-3.8115,-3.8797,-3.956,-3.9758,-4.021,-4.0688,-4.0688,-4.0688,-4.0688,-4.0688,-4.0688,-4.0688,-4.0688,-4.0859,-4.0916,-4.073,-4.0859,-4.0916,-4.073,-4.0688,-4.0688,-4.0688,-4.0688,-4.0688,-4.0688,-4.0688,-4.0688,-4.0688,-4.0688,-4.0688,-4.0688,-4.0688,-4.052,-4.0109,-3.9322,-3.8339,-3.7091,-3.7569,-3.8387,-3.9424,-3.9482,-4.0175,-4.1645,-4.0961,-4.0523,-4.0465,-3.9621,-3.8875,-3.8224,-3.7377,-3.7473,-3.0003,-3.0779,-3.0904,-2.9612,-2.8988,-2.8422,-2.7332,-2.5449,-2.3943,-2.4063,-2.3969,-2.3817,-2.3707,0.0,0.0,0.0,0.0,0.0,0.0,-2.1806,-2.2348,-2.2621,-2.3875,-2.4659,-2.4458,-2.4209,-2.4091,-2.4165,-2.4991,-2.5571,-2.5786,-2.8926,-3.0841,-3.1199,-3.2567,-3.329,-3.329,-3.329,-3.329,-3.329,-3.329,-3.329,-3.329,-3.329,-3.329,-3.329,-3.329,-3.329,-3.329,-3.329,-3.329,-3.3438,-3.4711,-3.5189,-3.533,-3.6567,-3.6978,-3.7017,-3.7211,-3.7471,-3.7691,-3.7776,-3.8172,-3.8757,-3.9247,-3.9745,-4.0182,-4.0575,-4.0688,-4.0688,-4.0688,-4.0688,-4.0688,-4.0688,-4.073,-4.0773,-4.0688,-4.0859,-4.1001,-4.0916,-4.0873,-4.0873,-4.0873,-4.0773,-4.0688,-4.0688,-4.0688,-4.0688,-4.0688,-4.0688,-4.0688,-4.0688,-4.0322,-4.0055,-3.9914,-3.9309,-3.8536,-3.7653,-3.7793,-3.8307,-3.928,-3.9187,-3.9836,-4.1493,-4.1083,-4.0728,-4.0494,-4.0212,-3.9463,-3.832,-3.853,-3.853,-3.2507,-3.3113,-3.3144,-3.1716,-3.0953,-3.0165,-2.879,-2.6967,-2.5549,-2.552,-2.5542,-2.5367,-2.4675,0.0,0.0,0.0,0.0,0.0,0.0,-2.2107,-2.2333,-2.231,-2.3368,-2.384,-2.3184,-2.2904,-2.2596,-2.2187,-2.3026,-2.3635,-2.3862,-2.7597,-2.9882,-3.0274,-3.223,-3.329,-3.329,-3.329,-3.329,-3.329,-3.329,-3.329,-3.329,-3.329,-3.329,-3.329,-3.329,-3.329,-3.329,-3.329,-3.329,-3.3438,-3.4711,-3.5189,-3.533,-3.6567,-3.6978,-3.7017,-3.7134,-3.7327,-3.7471,-3.7433,-3.7753,-3.8269,-3.8653,-3.9237,-3.9873,-4.0266,-4.0519,-4.0688,-4.0688,-4.0688,-4.0688,-4.0688,-4.073,-4.0773,-4.0688,-4.0859,-4.1001,-4.0916,-4.0873,-4.0873,-4.0873,-4.0773,-4.0688,-4.0688,-4.0688,-4.0688,-4.0688,-4.0688,-4.0688,-4.0688,-4.035,-4.0013,-3.9816,-3.9465,-3.8958,-3.8299,-3.844,-3.8871,-3.9499,-3.9404,-4.0081,-4.1582,-4.1312,-4.1155,-4.1139,-4.0993,-4.0335,-3.9213,-3.9734,-3.9367]},{"header":{"parameterUnit":"m.s-1","parameterCategory":1,"la1":30.6,"la2":29.2853,"lo1":-89.7004,"lo2":-87.6739,"dy":0.0162,"dx":0.0183,"nx":112,"ny":82,"refTime":"2023-03-31T12:00:00:Z","depth":0,"parameterNumber":3,"parameterNumberName":"V-component_of_WINDS"},"data":[0.0,0.0,0.0,0.0,0.0,0.0,0.0,0.0,0.0,0.0,0.0,0.0,0.0,0.0,0.0,0.0,0.0,0.0,0.0,0.0,0.0,0.0,0.0,0.0,0.0,0.0,0.0,0.0,0.0,0.0,0.0,0.0,0.0,0.0,0.0,0.0,0.0,0.0,0.0,0.0,0.0,0.0,0.0,0.0,0.0,0.0,0.0,0.0,0.0,0.0,0.0,0.0,0.0,0.0,0.0,0.0,0.0,0.0,0.0,0.0,0.0,0.0,0.0,0.0,0.0,0.0,0.0,0.0,0.0,0.0,0.0,0.0,0.0,0.0,0.0,0.0,0.0,0.0,0.0,0.0,0.0,0.0,0.0,0.0,0.0,0.0,0.0,0.0,0.0,0.0,1.7655,2.2035,2.5156,2.6238,2.465,2.3867,2.1184,1.5793,0.0,0.0,0.0,0.0,0.0,0.0,0.0,0.0,0.0,0.0,0.0,0.0,0.0,0.0,0.0,0.0,0.0,0.0,0.0,0.0,0.0,0.0,0.0,0.0,0.0,0.0,0.0,0.0,0.0,0.0,0.0,0.0,0.0,0.0,0.0,0.0,0.0,0.0,0.0,0.0,0.0,0.0,0.0,0.0,0.0,0.0,0.0,0.0,0.0,0.0,0.0,0.0,0.0,0.0,0.0,0.0,0.0,0.0,0.0,0.0,0.0,0.0,0.0,0.0,0.0,0.0,0.0,0.0,0.0,0.0,0.0,0.0,0.0,0.0,0.0,0.0,0.0,0.0,0.0,0.0,0.0,0.0,0.0,0.0,0.0,0.0,0.0,0.0,0.0,0.0,0.0,0.0,0.0,0.0,0.0,0.0,0.0,0.0,0.0,0.0,0.0,0.0,0.0,0.0,2.0353,2.6368,2.7491,2.7675,2.7387,2.5189,2.2045,1.7801,0.0,0.0,0.0,0.0,0.0,0.0,0.0,0.0,0.0,0.0,0.0,0.0,0.0,0.0,0.0,0.0,0.0,0.0,0.0,0.0,0.0,0.0,0.0,0.0,0.0,0.0,0.0,0.0,0.0,0.0,0.0,0.0,0.0,0.0,0.0,0.0,0.0,0.0,0.0,0.0,0.0,0.0,0.0,0.0,0.0,0.0,0.0,0.0,0.0,0.0,0.0,0.0,0.0,0.0,0.0,0.0,0.0,0.0,0.0,0.0,0.0,0.0,0.0,0.0,0.0,0.0,0.0,0.0,0.0,0.0,0.0,0.0,0.0,0.0,0.0,0.0,0.0,0.0,0.0,0.0,0.0,0.0,0.0,0.0,0.0,0.0,0.0,0.0,0.0,0.0,0.0,0.0,0.0,0.0,0.0,0.0,0.0,0.0,0.0,0.0,0.0,0.0,0.0,1.903,2.2327,2.6354,2.7473,2.7656,2.6883,2.5204,2.2208,1.749,1.6159,0.0,0.0,0.0,0.0,0.0,0.0,0.0,0.0,0.0,0.0,0.0,0.0,0.0,0.0,0.0,0.0,0.0,0.0,0.0,0.0,0.0,0.0,0.0,0.0,0.0,0.0,0.0,0.0,0.0,0.0,0.0,0.0,0.0,0.0,0.0,0.0,0.0,0.0,0.0,0.0,0.0,0.0,0.0,0.0,0.0,0.0,0.0,0.0,0.0,0.0,0.0,0.0,0.0,0.0,0.0,0.0,0.0,0.0,0.0,0.0,0.0,0.0,0.0,0.0,0.0,0.0,0.0,0.0,0.0,0.0,0.0,0.0,0.0,0.0,0.0,0.0,0.0,0.0,0.0,0.0,0.0,0.0,0.0,0.0,0.0,0.0,0.0,0.0,0.0,0.0,0.0,0.0,0.0,0.0,0.0,0.0,0.0,0.0,0.0,0.0,0.0,0.0,2.1439,2.3801,2.5936,2.6925,2.7003,2.5936,2.4594,2.1778,1.6994,1.5811,0.0,0.0,0.0,0.0,0.0,0.0,0.0,0.0,0.0,0.0,0.0,0.0,0.0,0.0,0.0,0.0,0.0,0.0,0.0,0.0,0.0,0.0,0.0,0.0,0.0,0.0,0.0,0.0,0.0,0.0,0.0,0.0,0.0,0.0,0.0,0.0,0.0,0.0,0.0,0.0,0.0,0.0,0.0,0.0,0.0,0.0,0.0,0.0,0.0,0.0,0.0,0.0,0.0,0.0,0.0,0.0,0.0,0.0,0.0,0.0,0.0,0.0,0.0,0.0,0.0,0.0,0.0,0.0,0.0,0.0,0.0,0.0,0.0,0.0,0.0,0.0,0.0,0.0,0.0,0.0,0.0,0.0,0.0,0.0,0.0,0.0,0.0,0.0,0.0,0.0,0.0,0.0,0.0,0.0,0.0,0.0,0.0,0.0,0.0,0.0,0.0,0.0,2.1983,2.4693,2.6976,2.6497,2.6017,2.593,2.3319,2.0423,1.7437,1.4999,0.0,0.0,0.0,0.0,0.0,0.0,0.0,0.0,0.0,0.0,0.0,0.0,0.0,0.0,0.0,0.0,0.0,0.0,0.0,0.0,0.0,0.0,0.0,0.0,0.0,0.0,0.0,0.0,0.0,0.0,0.0,0.0,0.0,0.0,0.0,0.0,0.0,0.0,0.0,0.0,0.0,0.0,0.0,0.0,0.0,0.0,0.0,0.0,0.0,0.0,0.0,0.0,0.0,0.0,0.0,0.0,0.0,0.0,0.0,0.0,0.0,0.0,0.0,0.0,0.0,0.0,0.0,0.0,0.0,0.0,0.0,0.0,0.0,0.0,0.0,0.0,0.0,0.0,0.0,0.0,0.0,0.0,0.0,0.0,0.0,0.0,0.0,0.0,0.0,0.0,0.0,0.0,0.0,0.0,0.0,0.0,0.0,0.0,0.0,0.0,0.0,0.0,2.1139,2.3513,2.5978,2.604,2.5666,2.5076,2.2914,2.0161,1.6824,0.0,0.0,0.0,0.0,0.0,0.0,0.0,0.0,0.0,0.0,0.0,0.0,0.0,0.0,0.0,0.0,0.0,0.0,0.0,0.0,0.0,0.0,0.0,0.0,0.0,0.0,0.0,0.0,0.0,0.0,0.0,0.0,0.0,0.0,0.0,0.0,0.0,0.0,0.0,0.0,0.0,0.0,0.0,0.0,0.0,0.0,0.0,0.0,0.0,0.0,0.0,0.0,0.0,0.0,0.0,0.0,0.0,0.0,0.0,0.0,0.0,0.0,0.0,0.0,0.0,0.0,0.0,0.0,0.0,0.0,0.0,0.0,0.0,0.0,0.0,0.0,0.0,0.0,0.0,0.0,0.0,0.0,0.0,0.0,0.0,0.0,0.0,0.0,0.0,0.0,0.0,0.0,0.0,0.0,0.0,0.0,0.0,0.0,0.0,0.0,0.0,0.0,1.8748,2.0855,2.2909,2.4952,2.5204,2.4916,2.4115,2.2243,1.9701,1.6324,0.0,0.0,0.0,0.0,0.0,0.0,0.0,0.0,0.0,0.0,0.0,0.0,0.0,0.0,0.0,0.0,0.0,0.0,0.0,0.0,0.0,0.0,0.0,0.0,0.0,0.0,0.0,0.0,0.0,0.0,0.0,0.0,0.0,0.0,0.0,0.0,0.0,0.0,0.0,0.0,0.0,0.0,0.0,0.0,0.0,0.0,0.0,0.0,0.0,0.0,0.0,0.0,0.0,0.0,0.0,0.0,0.0,0.0,0.0,0.0,0.0,0.0,0.0,0.0,0.0,0.0,0.0,0.0,0.0,0.0,0.0,0.0,0.0,0.0,0.0,0.0,0.0,0.0,0.0,0.0,0.0,0.0,0.0,0.0,0.0,0.0,0.0,0.0,0.0,0.0,0.0,0.0,0.0,0.0,0.0,0.0,0.0,0.0,0.0,0.0,0.0,0.0,1.9175,2.141,2.319,2.4135,2.4002,2.3615,2.3147,2.1273,1.8938,0.0,0.0,0.0,0.0,0.0,0.0,0.0,0.0,0.0,0.0,0.0,0.0,0.0,0.0,0.0,0.0,0.0,0.0,0.0,0.0,0.0,0.0,0.0,0.0,0.0,0.0,0.0,0.0,0.0,0.0,0.0,0.0,0.0,0.0,0.0,0.0,0.0,0.0,0.0,0.0,0.0,0.0,0.0,0.0,0.0,0.0,0.0,0.0,0.0,0.0,0.0,0.0,0.0,0.0,0.0,0.0,0.0,0.0,0.0,0.0,0.0,0.0,0.0,0.0,0.0,0.0,0.0,0.0,0.0,0.0,0.0,0.0,0.0,0.0,0.0,0.0,0.0,0.0,0.0,0.0,0.0,0.0,0.0,0.0,0.0,0.0,0.0,0.0,0.0,0.0,0.0,0.0,0.0,0.0,0.0,0.0,0.0,0.0,0.0,0.0,0.0,0.0,0.0,2.0097,2.2662,2.4728,2.5661,2.5893,2.5567,2.4576,2.269,2.0103,1.674,0.0,0.0,0.0,0.0,0.0,0.0,0.0,0.0,0.0,0.0,0.0,0.0,0.0,0.0,0.0,0.0,0.0,0.0,0.0,0.0,0.0,0.0,0.0,0.0,0.0,0.0,0.0,0.0,0.0,0.0,0.0,0.0,0.0,0.0,0.0,0.0,0.0,0.0,0.0,0.0,0.0,0.0,0.0,0.0,0.0,0.0,0.0,0.0,0.0,0.0,0.0,0.0,0.0,0.0,0.0,0.0,0.0,0.0,0.0,0.0,0.0,0.0,0.0,0.0,0.0,0.0,0.0,0.0,0.0,0.0,0.0,0.0,0.0,0.0,0.0,0.0,0.0,0.0,0.0,0.0,0.0,0.0,0.0,0.0,0.0,0.0,0.0,0.0,0.0,0.0,0.0,0.0,0.0,0.0,0.0,0.0,0.0,0.0,0.0,0.0,0.0,0.0,2.0724,2.2742,2.4472,2.569,2.6117,2.5933,2.5004,2.336,2.1136,1.8288,0.0,0.0,0.0,0.0,0.0,0.0,0.0,0.0,0.0,0.0,0.0,0.0,0.0,0.0,0.0,0.0,0.0,0.0,0.0,0.0,0.0,0.0,0.0,0.0,0.0,0.0,0.0,0.0,0.0,0.0,0.0,0.0,0.0,0.0,0.0,0.0,0.0,0.0,0.0,0.0,0.0,0.0,0.0,0.0,0.0,0.0,0.0,0.0,0.0,0.0,0.0,0.0,0.0,0.0,0.0,0.0,0.0,0.0,0.0,0.0,0.0,0.0,0.0,0.0,0.0,0.0,0.0,0.0,0.0,0.0,0.0,0.0,0.0,0.0,0.0,0.0,0.0,0.0,0.0,0.0,0.0,0.0,0.0,0.0,0.0,0.0,0.0,0.0,0.0,0.0,0.0,0.0,0.0,0.0,0.0,0.0,0.0,0.0,0.0,0.0,0.0,0.0,2.1141,2.2215,2.341,2.5028,2.5483,2.5418,2.4886,2.362,2.2075,2.0259,0.0,0.0,0.0,0.0,0.0,0.0,0.0,0.0,0.0,0.0,0.0,0.0,0.0,0.0,0.0,0.0,0.0,0.0,0.0,0.0,0.0,0.0,0.0,0.0,0.0,0.0,0.0,0.0,0.0,0.0,0.0,0.0,0.0,0.0,0.0,0.0,0.0,0.0,0.0,0.0,0.0,0.0,0.0,0.0,0.0,0.0,0.0,0.0,0.0,0.0,0.0,0.0,0.0,0.0,0.0,0.0,0.0,0.0,0.0,0.0,2.8998,2.7839,0.0,0.0,0.0,0.0,0.0,0.0,0.0,0.0,0.0,0.0,0.0,0.0,0.0,0.0,0.0,0.0,0.0,0.0,0.0,0.0,0.0,0.0,0.0,0.0,0.0,0.0,0.0,0.0,0.0,0.0,0.0,0.0,0.0,0.0,0.0,0.0,0.0,0.0,0.0,0.0,2.2052,2.3853,2.5388,2.6607,2.7186,2.7069,2.5921,2.4722,2.3021,2.063,1.9076,0.0,0.0,0.0,0.0,0.0,0.0,0.0,0.0,0.0,0.0,0.0,0.0,0.0,0.0,0.0,0.0,0.0,0.0,0.0,0.0,0.0,0.0,0.0,0.0,0.0,0.0,0.0,0.0,0.0,0.0,0.0,0.0,0.0,0.0,0.0,0.0,0.0,0.0,0.0,0.0,0.0,0.0,0.0,0.0,0.0,0.0,0.0,0.0,0.0,0.0,0.0,0.0,0.0,0.0,0.0,0.0,0.0,0.0,0.0,3.2019,3.0365,0.0,0.0,0.0,0.0,0.0,0.0,0.0,0.0,0.0,0.0,0.0,0.0,0.0,0.0,0.0,0.0,0.0,0.0,0.0,0.0,0.0,0.0,0.0,0.0,0.0,0.0,0.0,0.0,0.0,0.0,0.0,0.0,0.0,0.0,0.0,0.0,0.0,0.0,0.0,0.0,2.2334,2.4004,2.5444,2.6681,2.7118,2.6981,2.6176,2.4671,2.3233,2.1928,2.0061,0.0,0.0,0.0,0.0,0.0,0.0,0.0,0.0,0.0,0.0,0.0,0.0,0.0,0.0,0.0,0.0,0.0,0.0,0.0,0.0,0.0,0.0,0.0,0.0,0.0,0.0,0.0,0.0,0.0,0.0,0.0,0.0,0.0,0.0,0.0,0.0,0.0,0.0,0.0,0.0,0.0,0.0,0.0,0.0,0.0,0.0,0.0,0.0,0.0,0.0,0.0,0.0,0.0,3.8609,3.9218,3.9218,3.9218,3.9218,3.9044,3.6235,3.406,3.2378,3.0918,0.0,0.0,0.0,0.0,0.0,0.0,0.0,0.0,0.0,0.0,0.0,0.0,0.0,0.0,0.0,0.0,0.0,0.0,0.0,0.0,0.0,0.0,2.3415,2.423,2.3109,2.172,2.1309,0.0,0.0,0.0,0.0,0.0,0.0,0.0,0.0,0.0,0.0,0.0,2.2315,2.3591,2.482,2.6278,2.6437,2.6311,2.5927,2.4287,2.33,2.3249,2.0962,1.92,0.0,0.0,0.0,0.0,0.0,0.0,0.0,0.0,0.0,0.0,0.0,0.0,0.0,0.0,0.0,0.0,0.0,0.0,0.0,0.0,0.0,0.0,0.0,0.0,0.0,0.0,0.0,0.0,0.0,0.0,0.0,0.0,3.17,3.2193,0.0,0.0,0.0,0.0,0.0,0.0,0.0,0.0,0.0,0.0,0.0,0.0,0.0,3.7223,3.8318,4.0361,4.1378,4.1337,4.2615,4.3224,4.3224,4.3224,4.3224,4.3137,4.1628,0.0,3.5566,3.3806,0.0,0.0,0.0,0.0,0.0,0.0,0.0,0.0,0.0,0.0,0.0,0.0,0.0,0.0,0.0,0.0,0.0,0.0,0.0,0.0,0.0,0.0,2.7237,2.6392,2.4883,2.3898,2.4719,2.311,2.1342,2.0838,2.0496,2.0141,0.0,0.0,0.0,0.0,0.0,0.0,2.2152,2.3374,2.4684,2.6402,2.6545,2.619,2.5324,2.4526,2.3878,2.3399,2.2099,2.0677,1.9101,1.9581,0.0,0.0,0.0,0.0,0.0,0.0,0.0,0.0,0.0,0.0,0.0,0.0,0.0,0.0,0.0,0.0,0.0,0.0,0.0,0.0,0.0,0.0,0.0,0.0,0.0,0.0,0.0,0.0,0.0,3.2362,3.3238,3.2075,3.347,3.362,0.0,0.0,0.0,0.0,0.0,0.0,0.0,0.0,0.0,3.8376,3.977,4.096,4.1889,4.3805,4.4937,4.5314,4.6214,4.665,4.665,4.665,4.6446,4.6098,4.5547,4.3718,4.0844,3.7165,3.4937,3.3664,0.0,0.0,0.0,0.0,3.0217,3.0069,3.0502,3.0619,3.0678,3.1168,0.0,0.0,0.0,0.0,0.0,0.0,0.0,2.8223,2.7994,2.8784,2.9426,2.8557,2.7349,2.6396,2.6336,2.508,2.3659,2.2563,2.1973,2.1474,2.1034,2.0103,0.0,0.0,0.0,2.0904,2.2421,2.3902,2.4895,2.5134,2.5641,2.5539,2.4386,2.3625,2.3006,2.2541,2.1576,2.0566,1.9586,1.9813,1.9206,0.0,0.0,0.0,0.0,0.0,0.0,0.0,0.0,0.0,0.0,0.0,0.0,0.0,0.0,0.0,0.0,0.0,0.0,0.0,0.0,0.0,0.0,0.0,0.0,0.0,0.0,0.0,0.0,3.3859,3.4743,3.2417,3.4917,3.5503,0.0,0.0,0.0,0.0,0.0,0.0,3.7941,3.8899,4.0234,4.2005,4.3631,4.485,4.5692,4.7114,4.813,4.8769,4.8914,4.9059,4.9233,4.9059,4.8711,4.8246,4.7927,4.6969,4.5285,4.0844,3.8182,3.6807,3.531,3.3856,3.2759,3.3271,3.2909,3.223,3.3182,3.3128,3.2609,3.272,3.2191,3.1213,2.9668,0.0,0.0,0.0,0.0,3.0185,3.0591,3.0903,3.098,3.051,2.9725,2.8913,2.8288,2.7426,2.6129,2.4075,2.3399,2.2959,2.2318,2.1369,0.0,2.1228,2.1389,2.1822,2.2733,2.419,2.4938,2.4378,2.487,2.479,2.3656,2.2864,2.2242,2.1831,2.1155,2.0568,2.0025,2.0009,1.961,1.8679,0.0,0.0,0.0,0.0,0.0,0.0,0.0,0.0,0.0,0.0,0.0,0.0,0.0,0.0,0.0,0.0,0.0,0.0,0.0,0.0,0.0,0.0,0.0,0.0,0.0,0.0,0.0,0.0,0.0,3.4157,3.8032,0.0,0.0,0.0,0.0,3.7912,3.858,4.0031,4.2528,4.2702,4.4182,4.7288,4.8072,4.9059,5.0336,5.0423,5.0801,5.141,5.0191,4.9959,5.0569,4.993,4.9611,4.9572,4.8304,4.7724,4.7433,4.4763,4.2528,4.0612,3.8696,3.7912,3.768,3.6548,3.6489,3.6947,3.7005,3.6382,3.5733,3.67,3.5328,3.3009,3.1092,3.0481,0.0,0.0,3.0945,3.1368,3.1288,3.1741,3.2158,3.2027,3.1592,3.1309,3.1519,3.069,2.8769,2.5064,2.4699,2.4557,2.3266,0.0,2.2757,2.1434,2.18,2.2423,2.2951,2.3734,2.4494,2.5057,2.4769,2.4201,2.3297,2.2789,2.2335,2.1925,2.1675,2.1267,2.06,2.0618,2.0232,1.9373,1.8462,0.0,0.0,0.0,0.0,0.0,0.0,0.0,0.0,0.0,0.0,0.0,0.0,0.0,0.0,0.0,0.0,0.0,0.0,0.0,0.0,0.0,0.0,0.0,0.0,0.0,0.0,0.0,0.0,3.9789,4.3124,0.0,4.1662,4.2051,4.2353,4.1947,4.366,4.5285,4.6621,4.7491,4.8827,5.0851,5.1091,5.1614,5.2484,5.2107,5.202,5.2223,5.1352,5.083,5.0656,4.9811,4.9193,4.8789,4.7922,4.7315,4.6882,4.6094,4.4588,4.2536,4.0871,3.9779,3.9217,3.9159,3.8784,3.839,3.8794,3.8055,3.6834,3.6115,3.5079,3.379,3.228,3.1816,3.1816,3.1816,3.228,3.2887,3.3197,3.3203,3.2988,3.2442,3.1783,3.1156,3.0745,3.0246,2.9313,2.7392,2.6563,2.5761,2.4425,2.3741,2.3206,2.2636,2.2798,2.3064,2.3248,2.4076,2.4397,2.3663,2.4009,2.3791,2.2461,2.2184,2.1916,2.1478,2.1058,2.0783,2.0615,2.0085,1.9834,1.991,1.907,1.8486,0.0,0.0,0.0,0.0,0.0,0.0,0.0,0.0,0.0,0.0,0.0,0.0,0.0,0.0,0.0,0.0,0.0,0.0,0.0,0.0,0.0,0.0,0.0,0.0,0.0,3.9439,4.3094,4.3791,4.7329,4.8856,4.6616,4.7085,4.7317,4.6911,4.8856,5.0249,5.0656,5.1497,5.2368,5.3181,5.3007,5.3094,5.35,5.2891,5.2623,5.2623,5.1701,5.0975,5.0336,4.9493,4.876,4.8153,4.7489,4.6998,4.6593,4.6408,4.5524,4.4106,4.2955,4.1977,4.1249,4.141,4.0833,3.9978,3.979,3.8993,3.7844,3.6179,3.5379,3.4893,3.4051,3.3645,3.347,3.347,3.3645,3.3877,3.4312,3.4157,3.3716,3.3206,3.2676,3.2074,3.1426,3.1035,3.0548,2.9692,2.8424,2.7101,2.5865,2.517,2.4776,2.4696,2.4737,2.4675,2.4516,2.4898,2.4754,2.3589,2.3619,2.3282,2.2271,2.1966,2.1658,2.1233,2.1096,2.089,2.0558,2.0293,2.0186,2.0316,1.9757,1.8955,1.7962,0.0,0.0,0.0,0.0,0.0,0.0,0.0,0.0,0.0,0.0,0.0,0.0,0.0,0.0,0.0,0.0,0.0,0.0,0.0,0.0,0.0,0.0,0.0,3.7098,4.2653,4.6553,4.5999,5.0556,5.2613,4.9944,5.157,5.2798,5.2739,5.3907,5.4604,5.4575,5.4546,5.457,5.457,5.3902,5.3524,5.3524,5.2943,5.2623,5.2565,5.1294,5.0365,4.9669,4.8953,4.8362,4.7724,4.7039,4.6749,4.6691,4.5854,4.5504,4.5417,4.5007,4.4531,4.3921,4.3224,4.2615,4.1877,4.0129,3.9388,3.8938,3.7318,3.6568,3.6309,3.6309,3.588,3.5421,3.5392,3.4922,3.4428,3.4395,3.4366,3.4366,3.4366,3.4332,3.423,3.3854,3.33,3.2573,3.1665,3.0088,2.8504,2.7495,2.7471,2.7537,2.7367,2.7319,0.0,2.6634,2.608,2.5571,2.5041,2.3702,2.2799,2.2742,2.2207,2.1692,2.1242,2.1891,2.1717,2.0496,2.1285,2.1355,2.048,2.0409,1.9499,1.775,0.0,0.0,0.0,0.0,0.0,0.0,0.0,0.0,0.0,0.0,0.0,0.0,0.0,0.0,0.0,0.0,0.0,0.0,0.0,0.0,0.0,4.1085,4.4779,4.3407,4.6823,5.0584,5.368,5.6203,5.7419,5.6667,5.7129,5.6868,5.5445,5.6549,5.6868,5.5939,5.5648,5.5508,5.5508,5.4412,5.387,5.387,5.3458,5.2804,5.1875,5.1527,5.054,4.8924,4.8143,4.7413,4.6807,4.6143,4.5854,4.5854,4.5817,4.5425,4.4813,4.4297,4.3929,4.3589,4.2783,4.232,4.1935,4.0821,4.0089,3.9466,3.8427,3.75,3.6793,3.6793,3.6469,3.5903,3.5334,3.5172,3.498,3.4345,3.4059,3.3922,3.3652,3.3374,3.3058,3.2731,3.2486,3.2118,3.1241,3.067,2.972,2.7919,2.7631,2.7313,2.6304,2.5838,2.5647,2.5909,2.5486,2.5115,2.4951,2.4944,2.4491,2.3294,2.3103,2.2643,2.1763,2.1596,2.1447,2.1346,2.0885,2.034,1.9692,1.9788,1.9394,0.0,0.0,0.0,0.0,0.0,0.0,0.0,0.0,0.0,0.0,0.0,0.0,0.0,0.0,0.0,0.0,0.0,0.0,0.0,0.0,0.0,0.0,4.5384,4.9597,5.0057,5.2414,5.5115,5.7823,5.9306,6.009,6.009,6.009,5.9422,5.7739,5.829,5.8145,5.6868,5.6128,5.5775,5.5893,5.4552,5.3849,5.4003,5.3671,5.2891,5.1614,5.1614,5.0452,4.8333,4.7785,4.7102,4.6189,4.5722,4.5549,4.564,4.5685,4.5264,4.4553,0.0,0.0,0.0,0.0,4.2048,4.2005,4.1105,4.0602,4.0141,3.8971,3.8313,3.7841,3.7469,3.6859,3.6193,3.571,3.5288,3.4864,3.4351,3.4128,3.3991,3.3687,3.3374,3.3058,3.2624,3.2396,3.208,3.1563,3.1366,0.0,2.9303,2.8963,2.8686,2.817,2.7828,2.7515,2.7318,2.66,2.5913,2.5385,2.4991,2.4425,2.3465,2.3182,0.0,0.0,0.0,2.136,2.1452,2.0887,0.0,0.0,0.0,1.9567,1.8638,1.9196,0.0,0.0,1.7407,1.7087,0.0,0.0,0.0,0.0,0.0,0.0,0.0,0.0,0.0,0.0,0.0,0.0,0.0,0.0,0.0,0.0,4.9364,5.2755,5.6355,5.8411,5.9521,5.9539,6.0496,6.1193,6.1193,6.1193,6.0671,5.9393,5.9306,5.8697,5.7274,5.6165,0.0,0.0,0.0,5.3803,5.4003,5.3612,5.2775,5.1527,5.1439,5.0104,4.7666,4.7666,4.7027,4.5895,4.564,4.5685,4.5866,4.5553,4.503,4.4396,4.4352,4.3472,4.2153,4.182,4.1897,4.1964,4.1151,0.0,0.0,3.9212,3.8898,3.8958,3.8131,3.7197,3.6411,3.6324,3.5421,3.4432,3.4311,3.4254,3.4162,3.3957,3.3722,3.3479,3.3023,3.257,3.2208,3.2218,3.1998,3.1638,3.1114,3.0771,3.0708,3.1123,3.1154,3.0738,2.9679,2.8603,2.7506,2.6426,2.504,0.0,2.3943,2.336,2.2756,2.2187,2.1923,2.1547,2.102,2.117,2.0735,1.9609,2.0323,1.9946,1.846,1.9645,1.9847,1.9164,1.8514,1.8141,0.0,0.0,0.0,0.0,0.0,0.0,0.0,0.0,0.0,0.0,0.0,0.0,0.0,0.0,0.0,5.0317,5.3988,5.713,5.9448,6.1151,6.1813,6.0966,6.1048,6.1193,6.1193,6.1193,6.0671,5.9393,5.9306,5.8493,5.6665,5.6638,5.6162,5.5176,5.4875,5.4488,5.4003,5.3173,5.2107,5.0859,5.0336,0.0,4.6998,4.6998,4.6592,4.5895,4.585,4.585,4.5837,4.5241,4.4239,4.3056,4.2826,4.2267,4.1581,4.1676,4.1897,4.2022,4.1462,4.113,4.0677,3.9446,3.8916,3.8581,3.8055,3.7529,0.0,3.6513,3.5571,3.4573,3.3924,3.3386,3.2988,3.2775,3.2596,3.2417,3.2372,3.2037,3.1829,3.2155,3.2001,3.1901,3.1946,3.1299,3.0649,3.0097,2.9685,2.9454,2.9637,2.9096,2.8747,2.895,2.9061,2.8574,2.7209,2.6517,2.576,2.4896,2.3914,2.2532,2.0619,2.168,2.166,2.0262,2.0919,2.0649,1.9409,2.0051,1.993,1.9037,1.939,1.9308,0.0,0.0,0.0,0.0,0.0,0.0,0.0,0.0,0.0,0.0,0.0,4.4356,4.6362,0.0,5.0725,5.4371,5.7155,5.9285,6.0354,6.1405,6.185,6.1253,6.1193,6.1193,6.1193,6.0903,6.0322,5.9364,5.8668,5.7884,5.6897,5.6138,5.564,5.5445,5.4361,5.371,5.3495,5.2557,5.1468,5.0191,4.9872,4.8663,4.6778,4.6778,4.6475,4.5866,4.5457,4.5312,4.5314,4.4269,4.3358,4.2653,4.2052,4.1737,4.1535,4.166,4.1897,4.2051,4.1843,4.1612,4.1278,4.0318,3.9579,3.895,3.8282,3.7423,3.6588,3.6278,3.5602,3.4762,3.3937,3.3512,3.3135,3.2544,3.2237,3.2092,3.2073,3.189,3.1817,3.2,3.2036,3.2073,3.2182,3.1863,3.1405,3.1022,3.0723,3.0477,3.0392,2.9884,2.9483,2.936,2.9336,2.9016,2.8156,2.7202,2.6181,2.5078,2.4439,2.3602,2.2468,2.2725,2.2549,2.1812,2.1684,2.1366,2.0912,2.1456,2.1407,2.0822,2.1426,2.1014,0.0,0.0,0.0,0.0,0.0,0.0,0.0,4.252,4.401,4.6629,4.7464,4.8752,5.2359,5.364,5.5037,5.7933,5.9408,6.0301,6.0555,6.0706,6.0787,6.0642,6.0845,6.1019,6.1019,6.0409,5.9771,5.9161,5.8116,5.7332,5.6955,5.562,5.4977,5.5226,5.3649,5.269,5.2564,5.1666,5.0598,4.9349,4.9233,4.8228,4.665,4.665,4.6359,4.5866,4.5165,4.4789,4.4647,4.3329,4.2667,4.2366,4.1553,4.1438,4.166,4.1702,4.1897,4.2092,4.1864,4.1807,4.1732,4.0677,3.9912,3.9236,3.8439,3.7219,3.6133,3.6095,3.545,3.4631,3.3956,3.3698,3.334,3.2409,3.22,3.2144,3.1954,3.1853,3.1853,3.1927,3.2073,3.2146,3.2182,3.2218,3.2218,3.2218,3.2218,3.1956,3.1325,3.085,3.0339,2.9695,2.9248,2.8784,2.8399,2.7434,2.619,2.4591,2.4721,2.4703,2.4287,2.3899,2.3533,2.3157,2.2645,2.2359,2.227,2.2955,2.3081,2.2733,2.33,2.2476,3.7214,3.6102,3.6788,4.1065,4.1322,4.2101,0.0,4.9337,4.9701,5.1772,5.3697,5.5228,5.5886,5.7484,5.9157,6.0626,6.0683,6.0637,6.0898,6.0087,5.9306,5.8697,5.9626,6.0322,6.0322,5.9771,5.9132,5.8464,5.829,5.7448,5.5707,5.5997,5.5209,5.304,5.3233,5.2594,5.0971,5.029,4.9262,4.7985,4.7433,4.6737,4.5982,4.5982,4.5953,4.5866,4.5808,4.514,4.4066,4.3487,4.2553,4.1481,4.0972,4.1057,4.148,4.1619,4.1897,4.1964,4.0945,4.0867,4.0937,3.9298,3.8828,3.8812,3.7949,3.7201,3.6582,3.6413,3.5038,3.356,3.348,3.2925,3.2239,3.1591,3.1931,3.2348,3.1961,3.1743,3.1743,3.2109,3.2036,3.2,3.2182,3.2218,3.2218,3.2218,3.2218,3.2155,3.2074,3.2001,3.1938,3.1857,3.1784,3.0966,2.9061,2.8889,2.7717,2.5016,2.5972,2.5781,2.3952,2.4931,2.4741,2.3071,2.3966,2.3942,2.2911,2.356,2.3623,2.314,2.3321,2.287,3.972,3.9634,4.0589,4.3233,4.5238,4.7558,5.1403,5.2236,5.3163,5.626,5.7428,5.8191,5.9143,6.025,6.0989,6.0718,6.1055,6.1058,6.0313,5.9707,5.8784,5.7361,5.7374,5.7742,5.8561,5.8342,5.8025,5.7886,5.7117,5.6432,5.5997,5.4836,5.3849,5.3152,5.231,5.1294,5.0104,4.9436,4.8478,4.723,4.6923,4.6505,4.5895,4.5895,4.5663,4.5314,4.5314,4.4615,4.3516,4.294,4.2266,4.1453,4.0914,4.0816,4.1057,4.1367,4.1606,4.1561,4.0764,4.0412,4.0158,3.9086,3.8547,3.8246,3.7873,3.7209,3.6413,3.6002,3.4959,3.3897,3.3239,3.2978,3.2626,3.1521,3.1823,3.2163,3.1665,3.1596,3.1669,3.1963,3.2036,3.2109,3.2182,3.2218,3.2218,3.2218,3.2218,3.2218,3.2218,3.2218,3.2218,3.2218,3.2218,3.1649,3.0299,3.0314,2.9533,2.7429,2.7888,2.769,2.6472,2.6548,2.6317,2.5613,2.5595,2.516,2.4295,2.4569,2.4422,2.382,2.3913,2.3782,4.099,4.1949,4.3256,4.5451,4.8749,5.1933,5.4031,5.4996,5.6268,5.9171,5.9578,5.9696,6.0415,6.1119,6.1157,5.9875,6.062,6.082,5.9218,5.8514,5.7505,5.5546,5.4495,5.4188,5.5029,5.5984,5.664,5.6903,5.5975,5.5562,5.5881,5.3936,5.2891,5.2978,5.1294,4.9988,4.9146,4.8508,4.7666,4.6563,4.6425,4.6073,4.564,4.5549,4.529,4.4962,4.4962,4.4396,4.3356,4.2651,4.1992,4.1262,4.0582,4.0386,4.0559,4.0887,4.11,4.1113,4.0288,3.9826,3.9395,3.8621,3.8058,3.7613,3.7534,3.7056,3.6413,3.5747,3.5147,3.4441,3.3288,3.3334,3.3286,3.1589,3.1967,3.2425,3.1569,3.1596,3.1817,3.1963,3.2109,3.2273,3.2436,3.2327,3.2273,3.2436,3.2327,3.2218,3.2218,3.2218,3.2218,3.2218,3.2218,3.1875,3.1065,3.1118,3.0651,2.932,2.9174,2.8946,2.849,2.783,2.7456,2.7422,2.6889,2.6367,2.5769,2.5574,2.534,2.5107,2.4487,2.4495,3.925,4.0626,4.2385,4.7743,5.0889,5.3498,5.6835,5.86,5.962,5.9839,6.0107,5.9963,5.8938,5.9375,5.9481,5.8264,5.9213,5.9487,5.7644,5.6287,5.4788,5.283,5.0969,4.9598,4.9116,5.2425,5.4818,5.5384,5.5416,5.5155,5.4604,5.3878,5.292,5.173,5.0394,4.9117,4.784,4.7201,4.6563,4.5924,4.5396,4.5138,4.511,4.463,4.4676,4.5081,4.5081,4.4665,4.3892,4.2959,4.1856,4.063,3.9716,3.9601,3.9996,4.0039,4.0343,4.0519,3.9283,3.8833,3.8636,3.7428,3.7035,3.6929,3.6563,3.6721,3.6783,3.5924,3.5435,3.4874,3.3695,3.3911,3.3884,3.1543,3.2448,3.3403,3.1937,3.189,3.2182,3.2182,3.2218,3.2409,3.2979,3.2599,3.2409,3.2979,3.2572,3.2218,3.2218,3.2218,3.2218,3.2218,3.2218,3.1875,3.1065,3.1011,3.0672,2.9942,2.932,2.8999,2.8999,2.8405,2.7819,2.7205,2.7759,2.7733,2.7152,2.6405,2.6405,2.704,2.5034,2.4816,4.0616,4.3432,4.6651,5.1314,5.3699,5.5762,5.8857,5.8677,5.8011,5.8404,5.651,5.4422,5.3208,5.3559,5.3791,5.3079,5.5688,5.7348,5.6216,5.6185,5.5091,5.1716,5.1167,5.0212,4.8056,4.9934,5.1706,5.286,5.3341,5.3285,5.2713,5.2081,5.1305,5.0443,4.9157,4.8288,4.7782,4.7143,4.6321,4.5367,4.4862,4.463,4.463,4.4443,4.449,4.4602,4.4224,4.3709,4.3031,4.1976,4.1079,4.0282,3.9588,3.938,3.9513,3.9513,3.9399,3.9106,3.8574,3.7938,3.7222,3.6398,3.6377,3.6575,3.6445,3.6693,3.6816,3.5813,3.537,3.4952,3.3993,3.4107,3.4204,3.3058,3.3265,3.35,3.2605,3.2196,3.2036,3.2182,3.2517,3.287,3.3061,3.3213,3.3295,3.3142,3.2599,3.2218,3.2218,3.2218,3.2218,3.2218,3.2218,3.2101,3.1812,3.1784,3.1469,3.0672,3.0046,2.9563,2.9161,2.8571,2.8174,2.8115,2.833,2.8109,2.739,2.7144,2.6894,2.6587,2.591,2.5739,4.2829,4.6546,5.0409,5.4291,5.6374,5.794,5.9575,5.872,5.7334,5.6384,5.3813,5.1167,4.9205,4.8614,4.8564,4.9085,5.1327,5.3297,5.4186,5.4205,5.3381,5.1249,5.0482,4.9402,4.7724,4.8126,4.9132,5.072,5.1857,5.2209,5.1465,5.1033,5.0529,4.9823,4.8397,4.7461,4.72,4.6562,4.5692,4.4555,4.4256,4.3974,4.3689,4.3832,4.4003,4.4188,4.3518,4.3024,4.2683,4.1418,4.0529,3.9942,3.9383,3.9067,3.902,3.921,3.864,3.7787,3.7893,3.7344,3.6497,3.59,3.5898,3.6138,3.6138,3.6457,3.661,3.5802,3.5691,3.5593,3.4407,3.4627,3.491,3.3853,3.3838,3.3916,3.3246,3.2853,3.2658,3.2769,3.3105,3.3457,3.3647,3.3962,3.4016,3.3457,3.305,3.2643,3.2236,3.2218,3.2218,3.2218,3.2218,3.2218,3.2218,3.2218,3.1983,3.1469,3.084,3.0273,2.9646,2.9059,2.8693,2.86,2.86,2.8378,2.7904,2.7624,2.7373,2.7095,2.6507,2.6308,4.5696,4.9757,5.3435,5.6598,5.8582,5.9593,5.8931,5.8486,5.7186,5.3634,5.1793,4.9824,4.6652,4.4613,4.4091,4.631,4.6651,4.7975,5.1909,5.0791,5.0058,5.1505,4.9026,4.7365,4.7775,4.7061,4.7276,4.901,5.0984,5.1628,5.0569,5.0668,5.0419,4.9693,4.7919,4.6679,4.6109,4.5486,4.4674,4.3586,4.3539,4.3184,4.2511,4.2803,4.3208,4.3811,4.2972,4.261,4.258,4.1091,4.0138,3.9502,3.9087,3.8691,3.8477,3.9003,3.8125,3.6687,3.7241,3.7025,3.6428,3.5859,3.5669,3.5669,3.5669,3.5978,3.6258,3.5817,3.627,3.6565,3.4952,3.5422,3.5864,3.3975,3.4188,3.46,3.3877,3.3819,3.3869,3.3869,3.3935,3.4151,3.4748,3.4829,3.4612,3.4005,3.3896,3.3501,3.2372,3.2273,3.2246,3.2218,3.2218,3.2218,3.2218,3.2218,3.2218,3.2218,3.1612,3.1015,3.0418,2.9821,2.923,2.86,2.86,2.86,2.86,2.7872,2.7899,2.8541,2.6938,2.6542,4.8581,5.2444,5.5756,5.7567,5.7392,5.6665,5.641,5.375,5.0662,4.8117,4.4923,4.1867,3.9429,3.9856,4.1168,4.3021,4.6373,4.9759,5.2733,5.2916,5.2822,5.2872,5.1895,5.0458,4.8516,4.8527,4.8116,4.6769,4.8409,4.8972,4.7842,4.852,4.8498,4.7612,4.6243,4.5669,4.5873,4.4662,4.38,4.3328,4.3136,4.297,4.2803,4.2658,4.2452,4.2132,4.1302,4.068,4.0286,3.9474,3.9114,3.9042,3.88,3.8541,3.838,3.8165,3.7472,3.6591,3.6419,3.607,3.5683,3.5358,3.5249,3.5249,3.5249,3.5575,3.5817,3.5345,3.575,3.6084,3.5359,3.5521,3.5736,3.5237,3.486,3.4511,3.4337,3.3961,3.3677,3.3677,3.4143,3.4708,3.5144,3.4874,3.4471,3.4179,3.3738,3.3292,3.2942,3.287,3.2707,3.2273,3.2218,3.2218,3.2218,3.2218,3.2218,3.2218,3.1612,3.1015,3.0418,2.9821,2.923,2.86,2.8444,2.8379,2.8379,2.8082,2.8044,2.821,2.7792,2.737,5.1693,5.5143,5.7767,5.8491,5.7312,5.5503,5.3576,5.0519,4.6986,4.3265,4.0785,3.8594,3.6432,3.6755,3.8115,4.0531,4.3456,4.6962,5.1394,5.2158,5.2723,5.4013,5.3391,5.2054,5.0128,4.9913,4.9009,4.6864,4.8009,4.8219,4.6846,4.7754,4.7818,4.6794,4.5789,4.5153,4.4924,4.3842,4.3184,4.3067,4.297,4.2852,4.2706,4.2706,4.2521,4.2246,4.114,4.0499,4.0124,3.9042,3.8692,3.8729,3.8354,3.8282,3.8353,3.7735,3.7284,3.6928,3.6507,3.6293,3.607,3.5328,3.5086,3.5086,3.5086,3.529,3.5386,3.5168,3.5467,3.579,3.5345,3.5656,3.5995,3.5548,3.5277,3.5062,3.4794,3.4768,3.4794,3.4794,3.4848,3.5009,3.521,3.4995,3.4701,3.4579,3.4313,3.3966,3.3611,3.343,3.3128,3.2506,3.2452,3.2307,3.1954,3.1927,3.1927,3.1927,3.1631,3.1173,3.0554,2.9962,2.9342,2.8744,2.8383,2.8216,2.8216,2.8145,2.8112,2.8112,2.8013,2.757,5.4569,5.7231,5.9038,5.8902,5.7363,5.4848,5.0805,4.7835,4.4443,3.9224,3.8061,3.7406,3.5437,3.479,3.5609,3.8833,3.9964,4.2702,4.9184,5.0144,5.1331,5.4537,5.3768,5.2575,5.1677,5.0761,4.9552,4.7862,4.8473,4.8285,4.6785,4.7567,4.7564,4.6392,4.5723,4.478,4.3562,4.3145,4.29,4.2852,4.29,4.2803,4.256,4.2755,4.2848,4.2805,4.1532,4.0905,4.0648,3.9168,3.8602,3.8594,3.7954,3.7979,3.8282,3.751,3.7257,3.725,3.7016,3.6989,3.6833,3.5702,3.5367,3.5367,3.5367,3.5367,3.5367,3.5367,3.5587,3.5832,3.549,3.595,3.6373,3.5612,3.5687,3.5831,3.5447,3.5907,3.6422,3.6342,3.5746,3.5207,3.5086,3.5044,3.5044,3.5003,3.5003,3.4817,3.4353,3.3925,3.3426,3.2793,3.2777,3.2461,3.1649,3.1596,3.1596,3.1596,3.1596,3.1329,3.0716,3.013,2.951,2.889,2.8339,2.8046,2.8046,2.8046,2.8013,2.8013,2.7822,2.7492,5.5565,5.7302,5.8112,5.7097,5.476,5.1821,4.8465,4.4047,3.973,3.6454,3.4698,3.349,3.2638,3.3741,3.5647,3.8103,4.0619,4.3863,4.8428,5.0204,5.1502,5.2844,5.2854,5.2256,5.0844,4.9646,4.8505,4.7531,4.7352,4.6945,4.6188,4.6303,4.5689,4.4015,4.4063,4.3552,4.24,4.2733,4.2803,4.256,4.2803,4.29,4.2852,4.2658,4.2037,4.1125,4.067,3.9906,3.8979,3.8466,3.853,3.8774,3.8134,3.7997,3.8118,3.7572,3.6864,3.6262,3.6727,3.6609,3.6236,3.6513,3.6593,3.6593,3.6593,3.6593,3.6593,3.6593,3.6764,3.6934,3.6849,3.6596,3.6464,3.6953,3.6527,3.6129,3.6726,3.693,3.6891,3.6422,3.6192,3.5853,3.5001,3.4839,3.4797,3.4564,3.4522,3.4579,3.4665,3.4339,3.3686,3.2593,3.2486,3.2246,3.1649,3.1596,3.1596,3.1596,3.1596,3.1329,3.0716,3.013,2.951,2.889,2.8239,2.7855,2.7855,2.7689,2.759,2.759,2.7556,2.7504,5.5702,5.7283,5.7902,5.6659,5.3655,4.9848,4.5638,4.1142,3.6787,3.3009,3.2188,3.196,3.1245,3.252,3.443,3.6901,3.8785,4.1882,4.7443,4.8887,5.0303,5.2741,5.2936,5.2322,5.0839,5.0154,4.8952,4.7056,4.7163,4.6866,4.5848,4.5475,4.4891,4.3826,4.3659,4.3222,4.2533,4.2776,4.2852,4.2706,4.2852,4.29,4.29,4.2803,4.222,4.1356,4.0918,4.0226,3.9392,3.8818,3.8684,3.8836,3.8076,3.8042,3.8229,3.7395,3.7226,3.7471,3.7514,3.7628,3.7768,3.8064,3.7568,3.6914,3.6914,3.6914,3.6914,3.6914,3.6957,3.7043,3.7043,3.7016,3.7059,3.7144,3.6802,3.6663,3.7467,3.7343,3.7086,3.7214,3.6887,3.6465,3.5987,3.5891,3.5743,3.5315,3.5094,3.4989,3.4824,3.4492,3.3991,3.3264,3.3276,3.2892,3.1827,3.1823,3.1728,3.1325,3.1299,3.1167,3.0877,3.026,2.9706,2.9126,2.8741,2.826,2.7656,2.7871,2.7811,2.749,2.749,2.749,5.5511,5.7036,5.7677,5.6266,5.2749,4.8384,4.333,3.9029,3.4831,3.0547,3.0485,3.1043,3.0472,3.1212,3.2818,3.5495,3.6501,3.9155,4.5544,4.6982,4.8596,5.1802,5.2399,5.1988,5.0602,5.0078,4.8954,4.6701,4.6861,4.6568,4.5502,4.4915,4.438,4.3945,4.3563,4.3202,4.2803,4.2803,4.2852,4.29,4.2852,4.2852,4.29,4.29,4.2493,4.1788,4.1327,4.0748,4.0015,3.9231,3.8953,3.8926,3.8114,3.8113,3.8405,3.7493,3.774,3.8515,3.8414,3.861,3.8996,3.922,3.8448,3.7417,3.7417,3.7417,3.7417,3.7417,3.7417,3.7417,3.7417,3.7588,3.7678,3.725,3.7267,3.7568,3.8199,3.787,3.7541,3.8021,3.7568,3.709,3.6914,3.6914,3.67,3.6002,3.5833,3.5521,3.4794,3.4653,3.4454,3.4068,3.4045,3.3503,3.2097,3.2069,3.1844,3.1209,3.1052,3.0973,3.0973,3.0424,2.9892,2.9457,2.9388,2.883,2.7881,2.8229,2.815,2.7673,2.7542,2.749,5.4944,5.6342,5.6895,5.5127,5.1479,4.7184,4.2567,3.7979,3.3808,3.0759,2.9926,2.982,2.9938,3.0077,3.1098,3.4,3.5006,3.7053,4.1775,4.4769,4.6858,4.7749,4.9803,5.0518,4.9054,4.7704,4.6863,4.684,4.5661,4.4915,4.4809,4.4456,4.3868,4.3128,4.3325,4.3103,4.256,4.256,4.2658,4.29,4.2658,4.2658,4.29,4.29,4.2276,4.1191,4.1137,4.0577,3.9694,3.9114,3.9042,3.9203,3.8432,3.8206,3.8232,3.8379,3.7907,3.7366,3.8737,3.8576,3.7989,3.8996,3.9193,3.9084,3.9084,3.9084,3.9084,3.9084,3.9084,3.9084,3.9084,3.8556,3.8048,3.8021,3.8529,3.9112,3.9166,3.9139,3.8905,3.8199,3.8021,3.7745,3.7037,3.6914,3.6614,3.5764,3.6092,3.5953,3.4638,3.4868,3.4999,3.4439,3.3916,3.3366,3.2672,3.215,3.181,3.1719,3.1287,3.0973,3.0973,3.0424,3.0074,3.0022,2.9536,2.9258,2.9118,2.8656,2.8394,2.8281,2.7785,2.749,5.238,5.4597,5.5681,5.3863,4.9739,4.4986,4.0832,3.6273,3.2297,3.0266,2.9722,2.961,2.9708,2.9732,3.0387,3.2404,3.2661,3.4231,3.8913,4.0333,4.2306,4.6134,4.7405,4.8273,4.8873,4.7944,4.6886,4.5898,4.4444,4.3755,4.4118,4.3892,4.3563,4.3249,4.3148,4.2971,4.2755,4.2755,4.2803,4.29,4.2803,4.2803,4.2873,4.2521,4.1896,4.111,4.073,4.0304,3.9848,3.9336,3.9292,3.9397,3.8711,3.8349,3.8213,3.8512,3.8217,3.7851,3.8944,3.8907,3.8523,3.9121,3.9292,3.9292,3.9292,3.9292,3.9292,3.9292,3.9292,3.9292,3.9292,3.9084,3.8807,3.8807,3.9084,3.9292,3.9292,3.9292,3.9193,3.8861,3.8807,3.8708,3.8378,3.8324,3.8091,3.7386,3.7391,3.7057,3.5976,3.5953,3.5746,3.4999,3.4548,3.4038,3.3273,3.2817,3.2319,3.1823,3.1313,3.0973,3.0973,3.0764,3.0477,3.01,3.0241,3.0016,2.931,2.9379,2.9274,2.8943,2.8307,2.8229,4.92,5.226,5.3972,5.2316,4.792,4.3018,3.9459,3.4975,3.1203,2.9891,2.9617,2.9617,2.9617,2.9617,3.0023,3.1301,3.1391,3.2723,3.6769,3.7489,3.9309,4.3963,4.478,4.5693,4.7633,4.7341,4.6374,4.4801,4.3683,4.3229,4.3659,4.3402,4.3278,4.3278,4.302,4.29,4.29,4.2852,4.2852,4.29,4.2852,4.2744,4.2629,4.2385,4.1842,4.1082,4.0648,4.0359,4.014,3.955,3.9336,3.9353,3.889,3.844,3.8122,3.8466,3.8376,3.8213,3.8845,3.898,3.8819,3.9114,3.9247,3.9292,3.9292,3.9292,3.9292,3.9292,3.9292,3.9292,3.9292,3.9292,3.9292,3.9292,3.9292,3.9292,3.9292,3.9292,3.9292,3.9292,3.9292,3.9292,3.9292,3.9292,3.9057,3.8418,3.8341,3.796,3.6967,3.6847,3.6488,3.5493,3.5257,3.4782,3.3916,3.3461,3.2857,3.2123,3.1548,3.1156,3.0999,3.0973,3.079,3.0361,3.079,3.0581,2.9771,2.9996,2.9892,2.951,2.8935,2.8917,4.585,4.9142,5.1584,5.0335,4.6098,4.1469,3.8651,3.4426,3.0842,2.9806,2.9617,2.9617,2.9617,2.9617,2.9947,3.0949,3.178,3.3073,3.5402,3.7402,3.9159,4.0652,4.1671,4.2903,4.4556,4.4978,4.4749,4.3877,4.3543,4.3372,4.3399,4.3079,4.29,4.29,4.29,4.29,4.29,4.2658,4.2658,4.29,4.2658,4.2334,4.2032,4.2602,4.2249,4.111,4.111,4.0895,4.0549,3.9652,3.9158,3.8908,3.8908,3.8485,3.7946,3.8421,3.8285,3.7992,3.8421,3.8602,3.8647,3.8819,3.9087,3.9292,3.9292,3.9292,3.9292,3.9292,3.9292,3.9292,3.9292,3.9292,3.9292,3.9292,3.9292,3.9292,3.9292,3.9292,3.9292,3.9292,3.9292,3.9292,3.9292,3.9292,3.9013,3.8199,3.8532,3.8389,3.7047,3.735,3.713,3.5748,3.5854,3.5573,3.4491,3.3901,3.3326,3.2725,3.215,3.1536,3.0999,3.0973,3.0973,3.0973,3.0973,3.0973,3.0973,3.0361,3.01,3.0074,2.9536,2.931,3.9446,4.2289,4.4103,4.2717,4.0142,3.729,3.4755,3.2254,3.0313,2.9722,2.9617,2.9617,2.9617,2.9617,3.0087,3.1567,3.182,3.2648,3.4799,3.6198,3.8129,4.1082,4.3981,4.556,4.511,4.5098,4.4617,4.3341,4.3301,4.3335,4.3421,4.3052,4.29,4.29,4.29,4.29,4.29,4.2852,4.2852,4.29,4.2803,4.2479,4.2005,4.2195,4.1625,4.0485,4.0485,4.0296,3.9974,3.9489,3.9363,3.9407,3.889,3.8666,3.8575,3.8395,3.8213,3.8148,3.8466,3.8512,3.8395,3.8774,3.889,3.8872,3.9203,3.9292,3.9292,3.9292,3.9292,3.9292,3.9292,3.9158,3.9042,3.9247,3.9158,3.9069,3.9247,3.9292,3.9292,3.9292,3.9292,3.9292,3.9292,3.9292,3.9193,3.8959,3.905,3.8979,3.8336,3.8443,3.814,3.713,3.6618,3.5897,3.4752,3.4146,3.3752,3.3541,3.2424,3.1719,3.1536,3.1182,3.0973,3.0973,3.0973,3.0973,3.0973,3.0817,3.0503,3.01,3.0346,3.0241,3.4644,3.7439,3.9114,3.8309,3.6452,3.4349,3.2791,3.1061,2.9748,2.9638,2.9659,2.968,2.9613,2.9596,2.9974,3.0992,3.1378,3.2116,3.3943,3.5295,3.7288,4.045,4.3852,4.5523,4.4307,4.4637,4.4497,4.3375,4.3226,4.3182,4.3219,4.2993,4.29,4.29,4.29,4.29,4.29,4.29,4.29,4.29,4.29,4.2575,4.2005,4.2005,4.1462,4.0513,4.0296,4.0087,0.0,3.9445,3.9363,3.9363,3.9007,3.8845,3.8756,3.8549,3.8349,3.8213,3.8395,3.8349,3.8258,3.8666,3.88,3.8917,3.9069,3.9203,3.9292,3.9292,3.9292,3.9292,3.9203,3.8997,3.9007,3.9384,3.9348,3.9303,3.9599,3.9644,3.9563,3.9346,3.9292,3.9292,3.9292,3.9292,3.9292,3.9292,3.9292,3.9247,3.9042,3.9042,3.8737,3.7926,3.719,3.6359,3.5319,3.4627,3.4082,3.379,3.2817,3.211,3.1823,3.1287,3.0973,3.0973,3.0973,3.0973,3.0973,3.0973,3.0817,3.0477,3.0817,3.079,0.0,3.4,3.5857,3.6213,3.4392,3.2405,3.2136,3.0547,0.0,2.9516,2.9743,2.9868,2.9715,2.9725,2.9756,2.9771,3.0608,3.1752,3.3066,3.4929,3.696,3.9228,4.2076,4.3492,4.2701,4.3859,4.442,4.3769,4.3199,4.29,4.29,4.29,4.29,4.29,4.29,4.29,4.29,4.29,4.2873,4.2819,4.2873,4.2548,4.1869,4.1978,4.1625,4.0947,4.0404,4.016,4.0078,3.9536,3.9158,3.8953,3.9158,3.898,3.8647,3.8774,3.8549,3.8213,3.8213,3.8213,3.8258,3.8512,3.8917,3.9247,3.8953,3.9069,3.9292,3.9292,3.9292,3.9247,3.8997,3.8908,3.9069,3.9688,3.9822,3.9895,4.0196,4.0214,4.0024,3.9481,3.9319,3.9292,3.9292,3.9292,3.9292,3.9292,3.9292,3.9292,3.9292,3.9292,3.9013,3.8297,3.7617,3.6914,3.6156,3.5334,3.4504,3.3732,3.3357,3.2777,3.1993,3.1418,3.1116,3.1089,3.1037,3.0973,3.0973,3.0973,3.0973,3.0973,3.0973,3.0973,2.7734,0.0,2.9556,2.9689,2.9563,2.9309,0.0,2.9111,2.916,2.9405,2.9695,2.9986,3.0311,3.0403,3.0562,3.1191,3.186,3.2596,3.3592,3.7133,4.011,4.1296,4.4035,4.497,4.2814,4.3862,4.4257,4.3172,4.2955,4.29,4.29,4.29,4.29,4.29,4.29,4.29,4.29,4.29,4.2656,4.2222,4.2683,4.2086,4.0648,4.1571,4.1164,3.9753,4.0051,3.9943,3.9509,3.9373,3.9247,3.9158,3.8872,3.88,3.8774,3.8485,3.8304,3.8213,3.8213,3.8213,3.8213,3.8258,3.8756,3.9203,3.88,3.898,3.9292,3.9292,3.9292,3.9292,3.9203,3.9042,3.9114,3.9888,3.9959,4.0003,4.0738,4.0513,4.016,3.9997,3.9617,3.9292,3.9292,3.9292,3.9292,3.9292,3.9292,3.9292,3.9292,3.9292,3.9237,3.9013,3.8341,3.7644,3.6983,3.5782,3.4868,3.453,3.4576,3.4232,3.3436,3.2896,3.2395,3.1947,3.1322,3.0973,3.0973,3.0973,3.0973,3.0973,3.0973,3.0973,2.6938,2.7059,2.7418,2.7807,2.7907,2.804,2.8498,2.8796,2.9091,2.9465,2.9871,3.0117,3.0178,3.0193,3.0452,3.1254,3.1439,3.2272,3.4572,3.7896,4.0692,4.2478,4.3953,4.4431,4.3574,4.4206,4.4203,4.2982,4.29,4.29,4.29,4.29,4.29,4.29,4.29,4.29,4.29,4.29,4.2602,4.2005,4.2331,4.1815,4.0621,4.1001,4.0621,3.9726,3.9753,3.959,3.9292,3.9292,3.9292,3.9247,3.9051,3.889,3.8863,3.8756,3.8575,3.8395,3.8459,3.8504,3.8504,3.8395,3.88,3.9203,3.8845,3.898,3.9292,3.9292,3.9292,3.9247,3.9158,3.8997,3.9168,4.0194,4.0318,4.038,4.0962,4.0838,4.0458,3.9888,3.9509,3.9292,3.9292,3.9292,3.9292,3.9292,3.9292,3.9292,3.9292,3.9292,3.9292,3.9292,3.8314,3.7537,3.7241,3.627,3.5568,3.536,3.526,3.5059,3.4718,3.3899,3.3014,3.2016,3.1363,3.0973,3.0973,3.0973,3.0973,3.0973,3.0973,3.113,2.7355,2.7434,2.7641,2.8287,2.7975,2.7814,2.8832,2.8942,2.893,2.9535,3.0041,3.0238,2.9804,3.0004,3.0433,3.089,3.1135,3.2544,3.6303,3.8655,4.078,4.308,4.3388,4.3629,4.4173,4.4529,4.4203,4.2982,4.29,4.29,4.29,4.29,4.29,4.29,4.2792,4.2792,4.29,4.29,4.2548,4.1869,4.1978,4.1598,4.0838,4.0377,4.0133,4.0024,3.9509,3.9292,3.9292,3.9292,3.9292,3.9292,3.9247,3.9114,3.8908,3.9158,3.898,3.8602,3.88,3.8863,3.8819,3.8647,3.8917,3.9203,3.8953,3.9114,3.9292,3.9247,3.9247,3.9247,3.8997,3.8953,3.9222,4.0353,4.0622,4.0722,4.1172,4.111,4.0703,3.9753,3.9427,3.9292,3.9292,3.9292,3.9292,3.9292,3.9292,3.9292,3.9292,3.9292,3.9292,3.9292,3.8222,3.7472,3.7391,3.688,3.6515,3.6266,3.5868,3.5678,3.5659,3.4507,3.333,3.2162,3.1522,3.1246,3.1142,3.1246,3.1246,3.1142,3.1246,3.1496,2.7566,2.812,2.8853,2.8701,2.8204,2.7914,2.8426,2.8578,2.8768,2.9257,2.9851,3.0228,2.9851,3.1476,3.2546,3.1553,3.4138,3.7246,3.996,4.2159,4.3401,4.3092,4.5216,4.5704,4.3141,4.3988,4.4203,4.2982,4.29,4.29,4.29,4.29,4.29,4.29,4.2385,4.2385,4.29,4.29,4.2331,4.1245,4.1761,4.1164,3.959,3.9997,3.9916,3.9427,3.9346,3.9292,3.9292,3.9292,3.9292,3.9292,3.9042,3.8953,3.8908,3.8953,3.88,3.8602,3.8647,3.8647,3.8647,3.8602,3.8756,3.8953,3.8908,3.9114,3.9247,3.8997,3.9114,3.9292,3.9247,3.9247,3.941,4.0114,4.0277,4.0575,4.1652,4.1055,4.0431,4.0784,3.9997,3.9292,3.9292,3.9292,3.9292,3.9292,3.9292,3.9292,3.9292,3.9292,3.9292,3.9292,3.9084,3.8786,3.8228,3.8136,3.7849,3.7292,3.7057,3.6646,3.5965,3.4615,3.3806,3.3595,3.2843,3.2254,3.1935,3.228,3.2254,3.1935,3.228,3.2463,2.8152,2.8444,2.8912,2.9217,2.8883,2.8637,2.9329,2.8999,2.8951,3.0281,3.0138,2.992,3.0376,3.1756,3.316,3.4317,3.7533,4.0247,4.1416,4.2144,4.3006,4.4159,4.4661,4.462,4.3691,4.4261,4.4067,4.2521,4.2412,4.2276,4.1951,4.1924,4.1924,4.1924,4.1679,4.1652,4.1924,4.1924,4.1652,4.111,4.1055,4.0404,3.9319,3.959,3.9563,3.9292,3.9292,3.9292,3.9292,3.9292,3.9292,3.9292,3.9158,3.9042,3.8908,3.8908,3.8935,3.9007,3.9007,3.9007,3.9007,3.9007,3.9024,3.9114,3.9114,3.9203,3.9247,3.9158,3.9203,3.9247,3.9114,3.9203,3.9454,4.0051,4.0458,4.0838,4.1408,4.1327,4.1164,4.1137,4.0404,3.978,3.978,3.9509,3.9292,3.9292,3.9292,3.9292,3.9292,3.9292,3.9427,3.9753,3.921,3.883,3.8884,3.8613,3.8288,3.7973,3.7801,3.7359,3.6684,3.5467,3.4518,3.3885,3.3106,3.2607,3.2397,3.2607,3.2581,3.2424,3.2607,3.2855,2.86,2.8682,2.8942,2.9522,2.924,2.9179,3.0527,3.0003,2.9855,3.2027,3.1458,3.0801,3.1514,3.2326,3.3973,3.73,4.0294,4.2358,4.2792,4.2683,4.3291,4.5243,4.4452,4.389,4.4309,4.4452,4.3796,4.2141,4.2005,4.1761,4.1137,4.111,4.111,4.111,4.0974,4.0974,4.111,4.0838,4.0757,4.0892,4.0404,3.9861,3.9292,3.9292,3.9292,3.9292,3.9292,3.9292,3.9292,3.9292,3.9292,3.9292,3.9292,3.9158,3.8997,3.8997,3.9114,3.9292,3.9247,3.9203,3.9203,3.9158,3.9158,3.9203,3.9203,3.9247,3.9319,3.9392,3.9464,3.9437,3.9096,3.9158,3.9427,3.9861,4.0458,4.0947,4.1082,4.1462,4.1707,4.1381,4.0657,4.0142,4.0187,3.9762,3.9419,3.9509,3.9509,3.9509,3.9509,3.94,3.9481,3.9943,3.9156,3.8803,3.9264,3.8749,3.8423,3.8423,3.7892,3.7413,3.6999,3.596,3.5088,3.4389,3.3606,3.3118,3.2987,3.3078,3.3078,3.2987,3.3078,3.3352,2.86,2.9007,2.9408,2.9289,2.8765,2.8993,3.1527,3.1566,3.183,3.4393,3.4658,3.4206,3.3607,3.4128,3.5818,3.94,4.1571,4.3416,4.5098,4.629,4.6616,4.5693,4.5991,4.5611,4.4031,4.3873,4.3335,4.2086,4.2005,4.1761,4.1137,4.111,4.111,4.111,4.0567,4.054,4.111,3.9997,3.9699,4.0241,4.0214,3.9861,3.9292,3.9292,3.9292,3.9292,3.9292,3.9292,3.9292,3.9292,3.9292,3.9292,3.9292,3.9292,3.9247,3.9247,3.9292,3.9247,3.8997,3.8908,3.8908,3.8737,3.8756,3.8908,3.8908,3.9114,3.9383,3.9653,3.9951,3.9997,3.9427,3.9292,3.9319,3.9346,3.9834,4.0404,4.1001,4.1137,4.1327,4.1842,4.0815,3.9914,4.0142,3.9978,3.986,4.0133,4.0133,4.0133,4.0133,3.9644,3.9319,3.9373,3.9292,3.9264,3.9292,3.8749,3.8423,3.8423,3.6983,3.6213,3.6354,3.5417,3.5145,3.5847,3.5039,3.436,3.3792,3.4114,3.4129,3.3818,3.4114,3.4293,2.7872,2.8363,2.881,2.8852,2.8973,2.9653,3.1862,3.2316,3.2944,3.5372,3.5534,3.513,3.4727,3.6277,3.838,4.0707,4.2722,4.4501,4.594,4.5885,4.5668,4.5587,4.5451,4.4963,4.3927,4.3443,4.2738,4.1544,4.1082,4.0621,4.0024,3.9997,3.9997,3.9997,3.9753,3.9753,3.9997,3.9536,3.94,3.9644,3.9644,3.9509,3.9292,3.9292,3.9292,3.9292,3.9292,3.9292,3.9292,3.9292,3.9292,3.9292,3.9292,3.9292,3.9292,3.9292,3.9292,3.9292,3.9203,3.9158,3.9114,3.889,3.8935,3.9114,3.8953,3.9114,3.9346,3.9429,3.9555,3.9627,3.9654,3.9726,3.9753,3.94,4.0051,4.0838,4.1082,4.1707,4.2276,4.2521,4.1802,4.1186,4.1327,4.0908,4.0618,4.0711,4.0757,4.0621,4.0241,3.9997,3.9861,3.9861,3.9861,3.9699,3.9319,3.9102,3.864,3.7865,3.6899,3.6398,3.6481,3.6016,3.5621,3.5447,3.5027,3.4609,3.4207,3.4334,3.4334,3.4207,3.4334,3.4397,2.7238,2.7647,2.8206,2.8532,2.9194,3.0377,3.2713,3.3477,3.4509,3.7234,3.7207,3.6722,3.6841,3.7887,3.9356,4.1147,4.2966,4.4556,4.575,4.5207,4.4773,4.499,4.4664,4.4094,4.328,4.2846,4.2114,4.092,4.0431,3.9943,3.9319,3.9292,3.9292,3.9292,3.9292,3.9292,3.9292,3.9292,3.9292,3.9292,3.9292,3.9292,3.9292,3.9292,3.9292,3.9292,3.9292,3.9292,3.9292,3.9292,3.9292,3.9292,3.9292,3.9292,3.9292,3.9292,3.9292,3.9292,3.9292,3.9292,3.9247,3.8997,3.9087,3.9247,3.8997,3.9114,3.9346,3.9536,3.959,3.9627,3.9851,3.9915,3.9807,3.94,4.0241,4.111,4.111,4.2059,4.29,4.29,4.2337,4.1883,4.2005,4.1558,4.1287,4.1361,4.1408,4.1191,4.0567,4.0296,4.0106,3.9943,4.0078,3.9943,3.9346,3.9203,3.8688,3.7567,3.6874,3.6441,3.6334,3.6128,3.5775,3.5208,3.5003,3.4797,3.4548,3.4439,3.4397,3.4397,3.4397,3.4397,2.6758,2.7027,2.762,2.8244,2.9423,3.1205,3.4124,3.5263,3.6768,4.0377,4.016,3.9481,4.0078,3.8749,3.8326,4.073,4.2114,4.3308,4.4529,4.4691,4.4447,4.3823,4.3791,4.328,4.2114,4.2005,4.1489,4.0268,4.0187,3.9916,3.9319,3.9292,3.9292,3.9292,3.9292,3.9292,3.9292,3.9292,3.9292,3.9292,3.9292,3.9292,3.9292,3.9292,3.9292,3.9292,3.9292,3.9292,3.9292,3.9292,3.9292,3.9292,3.9292,3.9292,3.9292,3.9292,3.9292,3.9292,3.9292,3.9292,3.9247,3.8997,3.9087,3.9247,3.8997,3.9114,3.9427,3.9997,4.0187,4.0187,4.0187,3.9753,3.9292,3.9292,4.0241,4.111,4.111,4.2032,4.2873,4.29,4.2193,4.1692,4.1958,4.1788,4.1692,4.1958,4.2005,4.1788,4.1191,4.0567,3.9943,3.9373,3.9834,3.9943,3.9346,3.9042,3.8512,3.7594,3.6734,3.6141,3.5696,3.5507,3.5386,3.5386,3.5208,3.5003,3.4797,3.4522,3.4397,3.4397,3.4397,3.4397,2.6378,2.6639,2.7077,2.7969,2.9619,3.1658,3.405,3.5832,3.7973,4.1625,4.1055,3.997,4.016,4.0784,4.1245,4.1137,4.2114,4.3145,4.3932,4.3687,4.3199,4.2602,4.2521,4.2222,4.1462,4.0974,4.0567,4.0214,3.9266,3.8637,3.8475,3.7896,3.7595,3.7595,3.7595,3.7595,3.7595,3.7595,3.7595,3.7638,3.8172,3.878,3.9292,3.9292,3.9292,3.9292,3.9292,3.9292,3.9292,3.9292,3.9292,3.9292,3.9292,3.9292,3.9292,3.9292,3.9292,3.9292,3.9292,3.9292,3.9247,3.8997,3.9087,3.9247,3.8997,3.9114,3.9346,3.9509,3.9563,3.9563,3.9563,3.9427,3.9292,3.9292,3.9888,4.0594,4.1028,4.1707,4.2385,4.2819,4.2689,4.2506,4.2629,4.2581,4.2506,4.2629,4.2276,4.1625,4.0594,3.9943,3.9509,3.9319,3.9454,3.9481,3.9319,3.9247,3.904,3.8803,3.7741,3.6712,3.5764,3.5629,3.5548,3.5386,3.5208,3.5003,3.4797,3.4522,3.4397,3.4397,3.4397,3.4397,2.5773,2.6165,2.693,2.8699,3.0581,3.2661,3.5103,3.7373,3.9789,4.2955,4.1978,4.0784,4.1489,4.1734,4.1815,4.1815,4.2439,4.2928,4.3063,4.2765,4.2331,4.1707,4.1652,4.1327,4.0485,4.0051,3.9644,3.9156,3.8347,3.7855,3.7855,3.7402,3.7171,3.7171,3.7171,3.7171,3.7171,3.7171,3.7171,3.7171,3.765,3.8131,3.8613,3.883,3.9074,3.9292,3.9292,3.9156,3.8939,3.8939,3.8803,3.8613,3.8857,3.8939,3.8966,3.921,3.9292,3.9292,3.9292,3.9292,3.9247,3.9114,3.9158,3.9247,3.9114,3.9158,3.9292,3.9292,3.9292,3.9292,3.9292,3.9292,3.9292,3.9292,3.9753,4.035,4.0974,4.1571,4.2168,4.2765,4.29,4.29,4.29,4.29,4.2819,4.2575,4.1815,4.1028,4.0268,3.9671,3.9292,3.9292,3.9292,3.9292,3.9292,3.9203,3.9094,3.8966,3.7984,3.6968,3.6117,3.5845,3.5629,3.5507,3.5331,3.5127,3.4921,3.4673,3.4481,3.4397,3.4397,3.4397,2.5233,2.591,2.7183,3.0006,3.2061,3.4202,3.7052,3.9464,4.1761,4.3986,4.2683,4.1652,4.3443,4.1978,4.1028,4.2629,4.2846,4.2629,4.2086,4.1951,4.1707,4.111,4.1028,4.0567,3.9346,3.921,3.8749,3.7567,3.7431,3.7377,3.7323,3.728,3.7253,3.7199,3.7253,3.728,3.728,3.728,3.728,3.728,3.7335,3.7404,3.7431,3.8027,3.864,3.9156,3.9156,3.8857,3.8423,3.8369,3.8027,3.7702,3.8233,3.845,3.8559,3.9102,3.9292,3.9292,3.9292,3.9292,3.9292,3.9292,3.9292,3.9292,3.9292,3.9292,3.9292,3.9292,3.9292,3.9292,3.9292,3.9292,3.9292,3.9292,3.9726,4.0296,4.0974,4.1544,4.2114,4.2765,4.29,4.29,4.29,4.2846,4.2575,4.1951,4.0892,4.016,4.0106,3.9644,3.9292,3.9292,3.9292,3.9292,3.9292,3.9069,3.8853,3.857,3.772,3.7099,3.6795,3.609,3.571,3.571,3.5507,3.5331,3.5127,3.4921,3.4673,3.4439,3.4397,3.4397,2.6484,2.6912,2.7766,3.0314,3.3403,3.6497,3.9047,4.0404,4.1408,4.2385,4.1815,4.1652,4.3443,4.3411,4.2982,4.29,4.2493,4.2141,4.2032,4.1598,4.1082,4.0458,4.0377,3.9916,3.8722,3.8613,3.8315,3.754,3.6899,3.6356,3.5898,3.5707,3.541,3.4914,3.5383,3.5624,3.5624,3.5624,3.5624,3.5624,3.6246,3.6545,3.6572,3.7362,3.7756,3.7865,3.7865,3.8055,3.8369,3.7865,3.8163,3.8884,3.8559,3.8695,3.9129,3.9264,3.9292,3.9292,3.9292,3.9292,3.9292,3.9292,3.9292,3.9292,3.9292,3.9292,3.9292,3.9292,3.9292,3.9292,3.9292,3.9292,3.9292,3.9292,3.94,3.978,4.0892,4.1218,4.1625,4.2683,4.29,4.29,4.29,4.2493,4.1815,4.073,4.035,4.0024,3.9536,3.9373,3.9292,3.9292,3.9292,3.9292,3.9292,3.9247,3.9383,3.978,3.8326,3.7605,3.8016,3.6524,3.571,3.571,3.5507,3.5386,3.5331,3.4962,3.4756,3.4714,3.4481,3.4397,2.561,2.6507,2.8109,3.146,3.4146,3.6454,3.8125,3.9183,3.9916,4.0214,4.1191,4.2168,4.2819,4.2928,4.2738,4.2141,4.1788,4.1489,4.1191,4.0865,4.035,3.9454,3.9346,3.8857,3.7663,3.7284,3.6835,3.6115,3.5521,3.4915,3.446,3.4473,3.4338,3.3965,3.4312,3.4512,3.4512,3.4808,3.4808,3.4539,3.5521,3.6007,3.6034,3.7037,3.7323,3.7094,3.735,3.7485,3.7528,3.7202,3.7284,3.7582,3.7555,3.7745,3.807,3.8667,3.8884,3.8912,3.921,3.9292,3.9292,3.9292,3.9292,3.9292,3.9292,3.9292,3.9292,3.9292,3.9292,3.9292,3.9292,3.9292,3.9292,3.9292,3.9509,3.997,4.092,4.1354,4.1815,4.2711,4.2656,4.2466,4.2466,4.1734,4.092,4.0268,3.9943,3.9644,3.9346,3.9292,3.9292,3.9292,3.9292,3.9292,3.9292,3.9203,3.9222,3.9546,3.8708,3.8087,3.7844,3.701,3.6307,3.5737,3.5588,3.5507,3.5386,3.5208,3.5044,3.4921,3.4771,3.4729,2.4173,2.5906,2.8539,3.2428,3.435,3.5453,3.6401,3.7446,3.8288,3.8396,4.0567,4.2276,4.1788,4.1788,4.1679,4.1191,4.1028,4.073,4.0133,3.9943,3.9427,3.8233,3.8206,3.7745,3.6415,3.5954,3.5358,3.4457,3.4062,3.3765,3.3388,3.37,3.3815,3.3619,3.3777,3.3908,3.3908,3.4395,3.4395,3.3908,3.491,3.5425,3.5601,3.6564,3.6808,3.6469,3.6943,3.6985,3.6578,3.6497,3.628,3.6062,3.6442,3.6659,3.6877,3.7908,3.826,3.8342,3.8939,3.9156,3.9156,3.9264,3.9292,3.9292,3.9292,3.9292,3.9292,3.9292,3.9292,3.9292,3.9292,3.9373,3.9427,3.9319,3.9834,4.0485,4.1001,4.1489,4.2059,4.2738,4.2412,4.1924,4.1734,4.0865,4.016,4.0051,3.9617,3.9292,3.9292,3.9292,3.9292,3.9292,3.9292,3.9292,3.9247,3.9042,3.8908,3.8863,3.8783,3.8343,3.7402,3.7346,3.6904,3.59,3.5764,3.5629,3.5426,3.5426,3.5331,3.5168,3.5127,3.5086,2.425,2.6739,2.9732,3.1665,3.3369,3.4969,3.632,3.7148,3.7756,3.8315,3.9563,4.0513,4.0458,4.0865,4.1218,4.1137,4.0675,4.0106,3.9509,3.8966,3.8206,3.6985,3.7268,3.6916,3.5181,3.5425,3.5209,3.4086,3.3923,3.3691,3.3176,3.3637,3.3664,3.3213,3.3637,3.3908,3.3908,3.3989,3.3989,3.3908,3.407,3.4423,3.491,3.5073,3.5398,3.5845,3.5927,3.6198,3.6551,3.6062,3.6415,3.7214,3.6795,3.6931,3.7377,3.754,3.7621,3.7702,3.8342,3.8532,3.8613,3.9129,3.9292,3.9292,3.9292,3.9292,3.9292,3.9292,3.9292,3.9292,3.9292,3.9671,3.9943,3.9427,4.016,4.1028,4.111,4.1191,4.1571,4.2683,4.2412,4.1679,4.0621,4.0296,3.9997,3.9509,3.9346,3.9292,3.9292,3.9292,3.9292,3.9292,3.9292,3.9203,3.8953,3.8908,3.8819,3.8647,3.8389,3.8128,3.7967,3.7157,3.6632,3.6469,3.5981,3.5669,3.5669,3.5467,3.5386,3.5345,3.5208,3.5086,2.4739,2.5826,2.7449,3.0344,3.1529,3.2573,3.4522,3.525,3.5561,3.5805,3.7121,3.8396,3.9074,3.9699,3.9888,3.9166,3.8884,3.8613,3.8342,3.8027,3.754,3.6714,3.6551,3.6022,3.491,3.4461,3.3989,3.3333,3.3057,3.2749,3.2293,3.2695,3.2796,3.2442,3.2796,3.2969,3.2969,3.3295,3.362,3.3908,3.362,3.3756,3.4314,3.4314,3.4802,3.571,3.571,3.5873,3.609,3.5818,3.6035,3.6455,3.6225,3.628,3.651,3.6877,3.7012,3.7148,3.8098,3.8423,3.8505,3.9102,3.9292,3.9292,3.9292,3.9292,3.9292,3.9292,3.9292,3.9292,3.9292,3.9753,4.0106,3.9861,4.0214,4.0784,4.1462,4.1354,4.1164,4.1354,4.1164,4.0703,3.9834,3.9699,3.9617,3.9346,3.9292,3.9292,3.9292,3.9292,3.9292,3.9292,3.9292,3.9203,3.8908,3.88,3.8666,3.8602,3.8746,3.864,3.8101,3.8103,3.7636,3.6632,3.6008,3.5629,3.5507,3.5548,3.5507,3.5386,3.5426,3.5426,2.4288,2.4524,2.5183,2.855,2.9606,3.0349,3.2395,3.3144,3.3463,3.3637,3.4992,3.6306,3.7106,3.8152,3.8559,3.7648,3.7485,3.7431,3.7268,3.7268,3.6916,3.6035,3.5655,3.51,3.4244,3.3485,3.2959,3.2674,3.2353,3.2073,3.178,3.2036,3.2146,3.1963,3.2109,3.2218,3.2218,3.2653,3.305,3.3447,3.305,3.3159,3.3691,3.3691,3.426,3.5236,3.5371,3.5574,3.571,3.571,3.571,3.571,3.571,3.571,3.5764,3.6225,3.6469,3.6741,3.7826,3.8288,3.8505,3.9102,3.9292,3.9292,3.9292,3.9292,3.9292,3.9292,3.9292,3.9292,3.9292,3.9861,4.035,4.0024,4.0323,4.0811,4.1408,4.1544,4.13,4.0377,4.0323,4.0187,3.9427,3.9292,3.9292,3.9292,3.9292,3.9292,3.9292,3.9292,3.9292,3.9292,3.9292,3.9203,3.8908,3.8756,3.8647,3.8512,3.9047,3.9023,3.8255,3.8556,3.819,3.6849,3.6049,3.5548,3.5386,3.5548,3.5507,3.5331,3.5467,3.5548,2.2086,2.3315,2.4501,2.6096,2.7819,2.9308,3.0315,3.1334,3.2206,3.2996,3.3927,3.4511,3.4194,3.6022,3.7567,3.7512,3.7485,3.7296,3.6741,3.6659,3.6008,3.426,3.4531,3.4217,3.2481,3.2816,3.287,3.2264,3.2182,3.2182,3.2182,3.2182,3.2218,3.2182,3.2182,3.2218,3.2218,3.2246,3.2273,3.23,3.2273,3.2572,3.3142,3.3142,3.3457,3.4043,3.4585,3.5154,3.571,3.571,3.571,3.571,3.571,3.571,3.571,3.5764,3.6117,3.6687,3.7323,3.7892,3.8505,3.9102,3.9292,3.9292,3.9292,3.9292,3.9292,3.9292,3.9292,3.9292,3.9292,4.0187,4.0784,3.9617,4.0675,4.1598,4.0513,4.1598,4.2276,4.0513,4.0675,4.0703,3.9509,3.9292,3.9292,3.9292,3.9292,3.9292,3.9292,3.9292,3.9292,3.9292,3.9292,3.9203,3.8908,3.8908,3.8684,3.8258,3.8666,3.88,3.8549,3.7729,3.7369,3.7431,3.6128,3.5386,3.5386,3.5386,3.5331,3.5127,3.5127,3.5249,2.1821,2.2724,2.3649,2.5213,2.6245,2.7198,2.8465,2.9502,3.0258,3.0578,3.2015,3.3093,3.2691,3.4642,3.6211,3.5832,3.6076,3.6239,3.6062,3.6035,3.5655,3.4585,3.4341,3.3826,3.287,3.2626,3.2436,3.2246,3.1477,3.1368,3.2164,3.145,3.1395,3.2191,3.2218,3.2218,3.2218,3.2218,3.2218,3.2218,3.2218,3.2327,3.2517,3.2517,3.2843,3.3403,3.362,3.4244,3.5127,3.5547,3.571,3.571,3.571,3.571,3.571,3.571,3.609,3.6687,3.7268,3.7892,3.8505,3.9102,3.9292,3.9292,3.9292,3.9292,3.9292,3.9292,3.9292,3.9292,3.9292,4.0214,4.111,4.1055,4.1815,4.2249,4.1055,4.0974,4.0838,3.9807,3.9807,3.9807,3.9373,3.9292,3.9292,3.9292,3.9292,3.9292,3.9292,3.9292,3.9292,3.9292,3.9292,3.9203,3.8908,3.8908,3.8774,3.8512,3.8756,3.8658,3.8016,3.7836,3.7402,3.6538,3.6026,3.5665,3.5386,3.5386,3.5331,3.5086,3.5086,3.5208,2.1312,2.2033,2.283,2.4551,2.5018,2.5403,2.6769,2.7658,2.8237,2.8523,2.9987,3.1303,3.1485,3.3057,3.4359,3.4426,3.479,3.5033,3.5073,3.51,3.4856,3.4299,3.3892,3.3403,3.287,3.2463,3.2218,3.2218,3.145,3.1341,3.2164,3.1422,3.1368,3.2191,3.2218,3.2218,3.2218,3.2218,3.2218,3.2218,3.2218,3.2218,3.2218,3.2218,3.2436,3.2816,3.3006,3.3729,3.4829,3.5209,3.5547,3.571,3.571,3.571,3.571,3.571,3.6225,3.6985,3.735,3.8,3.8776,3.9183,3.9292,3.9292,3.9292,3.9292,3.9292,3.9292,3.9292,3.9292,3.9292,4.0051,4.1001,4.1815,4.2304,4.2385,4.1598,4.1245,4.0784,3.978,3.978,3.978,3.9373,3.9292,3.9292,3.9292,3.9292,3.9292,3.9292,3.9292,3.9292,3.9292,3.9292,3.9247,3.9042,3.9042,3.8935,3.8711,3.8935,3.8639,3.774,3.7712,3.715,3.6007,3.571,3.55,3.5331,3.5249,3.5127,3.5003,3.4921,3.4977,0.0,0.0,0.0,2.4056,2.4111,2.4006,2.5329,2.5818,2.6246,2.6987,2.7921,2.9019,3.0361,3.1089,3.1974,3.3369,3.365,3.3754,3.3869,3.3869,3.3691,3.3169,3.3088,3.287,3.2273,3.2218,3.2218,3.2218,3.2191,3.2164,3.2218,3.2218,3.2218,3.2218,3.2218,3.2218,3.2218,3.2218,3.2218,3.2218,3.2218,3.2218,3.2218,3.2218,3.2218,3.2246,3.2816,3.3702,3.4748,3.4775,3.5127,3.5683,3.571,3.571,3.5669,3.5669,3.6428,3.7458,3.7485,3.8244,3.9264,3.9292,3.9292,3.9292,3.9292,3.9292,3.9292,3.9292,3.9292,3.9292,3.9319,3.978,4.0513,4.1707,4.2005,4.2032,4.2032,4.2466,4.2331,4.0567,4.0703,4.073,3.9536,3.9319,3.9292,3.9292,3.9292,3.9292,3.9292,3.9292,3.9292,3.9292,3.9292,3.9292,3.9292,3.9292,3.9203,3.8908,3.9158,3.8799,3.774,3.718,3.662,3.598,3.5171,3.488,3.5086,3.488,3.4797,3.4797,3.4522,3.4522,2.0051,0.0,0.0,0.0,0.0,0.0,2.325,2.3778,2.4416,2.5057,2.5937,2.7026,2.8358,2.8976,2.9733,3.1076,3.2539,3.3522,3.3715,3.3754,3.3576,3.3169,3.3088,3.287,3.2273,3.2218,3.2218,3.2218,3.1395,3.1287,3.2164,3.2218,3.2218,3.2218,3.2218,3.2218,3.2218,3.2218,3.2218,3.2218,3.2218,3.2218,3.2218,3.2218,3.2218,3.2218,3.2381,3.2898,3.362,3.4489,3.4883,3.5073,3.5547,3.5588,3.5467,3.5467,3.587,3.6511,3.7095,3.7785,3.8529,3.9112,3.9292,3.9292,3.9292,3.9292,3.9292,3.9292,3.9292,3.94,3.9834,4.0404,4.1055,4.1815,4.2331,4.2629,4.2629,4.2439,4.1978,4.1028,4.0621,4.0323,3.9997,3.959,3.9292,3.9292,3.9292,3.9292,3.9292,3.9292,3.9292,3.9292,3.9292,3.9292,3.9292,3.9292,3.9203,3.8908,3.9158,3.8566,3.6893,3.6907,3.6236,3.4868,3.4601,3.4632,3.488,3.4839,3.4797,3.4797,3.4714,3.4797,0.0,2.0625,2.124,2.1903,0.0,0.0,2.1983,2.2614,2.3197,2.3484,2.461,2.5761,2.648,2.7052,2.7702,2.8715,3.0041,3.1489,3.2777,3.2874,3.2777,3.2725,3.2661,3.2488,3.2209,3.2218,3.2218,3.2218,3.1531,3.145,3.2164,3.2218,3.2218,3.2218,3.2218,3.2218,3.2218,3.2218,3.2218,3.2218,3.2218,3.2218,3.2218,3.2218,3.2218,3.2218,3.2218,3.2409,3.2816,3.3935,3.4558,3.4856,3.5453,3.5588,3.5386,3.5386,3.5639,3.6129,3.6914,3.7591,3.8226,3.9013,3.9292,3.9292,3.9292,3.9292,3.9292,3.9292,3.9292,3.9373,3.9726,4.0268,4.0811,4.1164,4.1707,4.2141,4.2141,4.1869,4.1598,4.1489,4.0784,4.0187,4.0187,3.9699,3.9292,3.9292,3.9292,3.9292,3.9292,3.9292,3.9292,3.9292,3.9292,3.9292,3.9292,3.9292,3.9247,3.9069,3.9203,3.8593,3.7042,3.7147,3.6485,3.4789,3.4999,3.5083,3.5,3.4737,3.45,3.429,3.4413,3.4454,0.0,0.0,0.0,2.2061,2.1321,0.0,2.1326,2.2009,2.2432,2.2377,2.3642,2.478,2.4846,2.5402,2.598,2.6463,2.7157,2.8543,3.128,3.1536,3.1626,3.2001,3.1973,3.1963,3.2146,3.2182,3.2218,3.2218,3.2218,3.2218,3.2218,3.2218,3.2218,3.2218,3.2218,3.2218,3.2218,3.2218,3.2218,3.2218,3.2218,3.2218,3.2218,3.2218,3.2218,3.2218,3.2218,3.2218,3.23,3.3376,3.4151,3.4775,3.5425,3.5588,3.5386,3.5345,3.5571,3.598,3.6764,3.744,3.8118,3.8851,3.9139,3.9292,3.921,3.9264,3.9292,3.9292,3.9292,3.9292,3.9292,3.9753,4.0187,4.0187,4.0675,4.111,4.111,4.1055,4.1191,4.1788,4.0974,4.0187,4.0187,3.9699,3.9292,3.9292,3.9292,3.9292,3.9292,3.9292,3.9292,3.9292,3.9292,3.9292,3.9292,3.9292,3.9292,3.9292,3.9247,3.8799,3.774,3.7616,3.6866,3.5312,3.5783,3.5783,3.5329,3.4685,3.411,3.3587,3.379,3.3764,2.0075,2.0585,2.1037,2.1261,2.1422,0.0,2.1159,2.1261,2.1524,2.203,2.1978,2.2272,2.3764,2.4339,2.48,2.541,2.6291,2.767,2.9891,3.0476,3.0768,3.1191,3.1631,3.1927,3.1963,3.2109,3.2218,3.2218,3.2218,3.2218,3.2218,3.2218,3.2218,3.2218,3.2218,3.2218,3.2218,3.2218,3.2218,3.2218,3.2218,3.2218,3.2218,3.2218,3.2218,3.2218,3.2218,3.2218,3.2236,3.2979,3.3593,3.4179,3.5263,3.5588,3.5386,3.5249,3.5124,3.5145,3.5701,3.6455,3.7187,3.751,3.8401,3.921,3.8722,3.8912,3.9292,3.9292,3.9292,3.9292,3.9292,3.9753,4.0187,4.0187,4.0675,4.111,4.111,4.073,4.054,4.1164,4.0703,4.0187,4.0187,3.9699,3.9292,3.9292,3.9292,3.9292,3.9292,3.9292,3.9292,3.9292,3.9292,3.9292,3.9292,3.9292,3.9292,3.9292,3.9114,3.8595,3.7767,3.7069,3.6296,3.5312,3.5391,3.5476,3.5542,3.4769,3.411,3.3587,3.3628,3.3447,2.0697,2.0785,2.0842,2.0966,2.1211,0.0,0.0,2.1211,2.1873,2.1975,2.1951,2.2112,2.2724,2.3284,2.3706,2.3885,2.4355,2.5418,2.7354,2.8369,2.9319,3.0351,3.0334,3.0575,3.1235,3.1469,3.1784,3.2155,3.2218,3.2218,3.2218,3.2218,3.2218,3.2218,3.2218,3.2218,3.2218,3.2218,3.2218,3.2218,3.2218,3.2218,3.2218,3.2218,3.2218,3.2218,3.2218,3.2218,3.2273,3.2843,3.3278,3.362,3.4775,3.5305,3.5386,3.529,3.5044,3.4876,3.5557,3.6109,3.6583,3.7413,3.7919,3.8347,3.8732,3.9074,3.9292,3.9292,3.9292,3.9292,3.9292,3.9509,3.9753,3.9753,3.9997,4.0214,4.0214,3.997,3.9834,4.016,3.997,3.9834,4.0133,3.9699,3.9292,3.9292,3.9292,3.9292,3.9292,3.9292,3.9292,3.9292,3.9292,3.9183,3.8884,3.8857,3.8857,3.8857,3.8428,3.8091,3.7916,3.7224,3.6671,3.6323,3.5905,3.5834,3.6049,3.5342,3.4605,3.3885,3.3595,3.3344,2.1399,2.1117,2.0884,2.1198,2.1312,2.1236,0.0,0.0,0.0,2.2031,2.227,2.2351,2.187,2.2375,2.2643,2.2062,2.2432,2.3203,2.4372,2.5695,2.7216,2.9026,2.8678,2.8769,3.0112,3.0502,3.0966,3.1703,3.1902,3.1956,3.1956,3.2128,3.2218,3.2218,3.2218,3.2218,3.2218,3.2218,3.2218,3.2218,3.2218,3.2218,3.2218,3.2218,3.2218,3.2218,3.2218,3.2218,3.2246,3.2735,3.3006,3.3224,3.4353,3.5021,3.5292,3.5359,3.5208,3.5001,3.5577,3.5858,3.6182,3.7166,3.7359,3.7472,3.8851,3.9292,3.9292,3.9292,3.9292,3.9292,3.9292,3.9292,3.9292,3.9292,3.9292,3.9292,3.9292,3.9292,3.9292,3.9292,3.9292,3.9454,3.9943,3.9617,3.9292,3.9292,3.9292,3.9292,3.9292,3.9292,3.9292,3.9292,3.9292,3.9057,3.8526,3.8434,3.838,3.8336,3.7768,3.7574,3.793,3.737,3.711,3.7253,3.6542,3.6297,3.6558,3.6002,3.5213,3.4206,3.3766,3.3395,2.1267,2.1888,2.2317,2.2196,2.2605,2.2984,2.2878,0.0,2.203,2.2231,0.0,2.1379,2.1472,0.0,0.0,1.9954,2.1447,2.2485,2.1559,2.2405,2.4101,2.6582,2.6703,2.7098,2.8463,2.9087,2.9624,3.0111,3.0788,3.1155,3.1155,3.1812,3.2218,3.2218,3.2218,3.2218,3.2218,3.2218,3.2218,3.2218,3.2218,3.2218,3.2218,3.2218,3.2218,3.2218,3.2218,3.2218,3.2218,3.2273,3.2626,3.3224,3.4353,3.4829,3.4925,3.5278,3.5345,3.529,3.5042,3.5387,3.5927,3.5345,3.6087,3.7472,3.8851,3.9292,3.9292,3.9292,3.9292,3.9292,3.9292,3.9292,3.9292,3.9292,3.9292,3.9292,3.9292,3.9292,3.9292,3.9292,3.9292,3.9319,3.94,3.9346,3.9292,3.9292,3.9292,3.9292,3.9292,3.9292,3.9292,3.9292,3.9292,3.9176,3.8872,3.8563,3.8336,3.8162,3.758,3.7284,3.7295,3.6827,3.6718,3.703,3.6656,3.6558,3.6774,3.6385,3.5544,3.4206,3.4153,3.3833,2.1744,2.2458,2.2831,2.23,2.3199,2.3995,2.3251,2.2724,2.2617,2.3203,0.0,0.0,0.0,0.0,0.0,0.0,2.1202,2.1733,2.1151,2.0864,2.198,2.5448,2.5116,2.5405,2.745,2.7883,2.8323,2.8946,2.9181,2.9544,3.0099,3.1018,3.173,3.2191,3.2218,3.2218,3.2218,3.2218,3.2218,3.2218,3.2218,3.2218,3.2218,3.2218,3.2218,3.2218,3.2218,3.2218,3.2218,3.2218,3.2354,3.2707,3.3826,3.4477,3.4856,3.5372,3.5507,3.5345,3.5086,3.5204,3.5405,3.4959,3.6125,3.7752,3.7886,3.8529,3.9292,3.9292,3.9292,3.9292,3.9292,3.9292,3.9292,3.9292,3.9292,3.9292,3.9292,3.9292,3.9247,3.9114,3.9203,3.9247,3.9087,3.9203,3.9292,3.9292,3.9292,3.9292,3.9292,3.9292,3.9292,3.9292,3.8993,3.8597,3.8114,3.7632,3.7323,3.7238,3.6995,3.6803,3.6676,3.6829,3.698,3.7164,3.7403,3.729,3.6817,3.6663,3.6067,3.5049,3.4607,3.438,2.2418,2.3095,2.3384,2.2628,2.3438,2.4148,2.3268,2.2775,2.2751,2.3393,2.2428,0.0,0.0,0.0,0.0,0.0,0.0,2.1323,2.0812,2.0207,2.0988,2.4167,2.4136,2.456,2.6321,2.6645,2.6948,2.7471,2.7755,2.8195,2.8849,3.0273,3.1334,3.1839,3.2101,3.2218,3.2218,3.2218,3.2218,3.2218,3.2218,3.2218,3.2218,3.2218,3.2218,3.2218,3.2218,3.2218,3.2218,3.2218,3.2218,3.2291,3.3447,3.4179,3.4639,3.5398,3.5588,3.5426,3.5249,3.5127,3.503,3.5189,3.6396,3.7692,3.738,3.8243,3.9292,3.9292,3.9292,3.9292,3.9292,3.9292,3.9292,3.9292,3.9247,3.9203,3.9292,3.9247,3.9158,3.9042,3.9158,3.9247,3.9042,3.9158,3.9292,3.9292,3.9292,3.9292,3.9292,3.9292,3.9292,3.9292,3.8912,3.838,3.7698,3.716,3.6714,3.6388,3.6524,3.6562,3.6458,3.6887,3.7234,3.7508,3.7889,3.7732,3.7057,3.694,3.6565,3.5832,3.5157,3.505,2.3348,2.3906,2.427,2.3446,2.3323,2.333,2.3205,2.2561,2.1952,2.1952,2.2378,2.2538,2.1877,0.0,0.0,0.0,0.0,0.0,0.0,2.0489,2.1455,2.2307,2.3906,2.4877,2.47,2.5266,2.5614,2.5522,2.6685,2.7359,2.728,2.9841,3.1216,3.1038,3.1784,3.2218,3.2218,3.2218,3.2218,3.2218,3.2218,3.2218,3.2218,3.2218,3.2218,3.2218,3.2218,3.2218,3.2218,3.2218,3.2218,3.2291,3.3447,3.3908,3.407,3.5236,3.571,3.5669,3.5467,3.5127,3.4986,3.5933,3.6576,3.7133,3.806,3.883,3.9292,3.9292,3.9292,3.9292,3.9292,3.9292,3.9292,3.9292,3.9114,3.8997,3.9247,3.9114,3.8997,3.9247,3.9292,3.9292,3.9292,3.9292,3.9292,3.9292,3.9292,3.9292,3.9292,3.9292,3.9292,3.9292,3.9292,3.8959,3.8145,3.7725,3.6943,3.5818,3.628,3.6668,3.6764,3.6817,3.7219,3.816,3.7864,3.7705,3.7652,3.7354,3.6891,3.6273,3.5859,3.5872,2.4953,2.5485,2.5702,2.4628,2.4703,2.4761,2.3812,2.3167,2.2721,2.2537,2.2351,2.2113,2.1771,0.0,0.0,0.0,0.0,0.0,0.0,2.083,2.1394,2.156,2.2905,2.3555,2.2858,2.2724,2.2564,2.2485,2.3203,2.3898,2.4524,2.757,2.9524,2.9998,3.145,3.2218,3.2218,3.2218,3.2218,3.2218,3.2218,3.2218,3.2218,3.2218,3.2218,3.2218,3.2218,3.2218,3.2218,3.2218,3.2218,3.2291,3.3447,3.3908,3.4043,3.5236,3.571,3.5669,3.5467,3.5249,3.5071,3.5381,3.5987,3.6619,3.7407,3.8131,3.8803,3.9183,3.9292,3.9292,3.9292,3.9292,3.9292,3.9292,3.9247,3.9203,3.9292,3.9114,3.8908,3.8997,3.9042,3.9042,3.9042,3.9203,3.9292,3.9292,3.9292,3.9292,3.9292,3.9292,3.9292,3.9292,3.8939,3.8597,3.8293,3.7795,3.7133,3.6361,3.6497,3.6751,3.7032,3.7187,3.7638,3.844,3.8479,3.8229,3.7679,3.758,3.7123,3.6285,3.6404,3.6404,2.6148,2.6517,2.6541,2.5512,2.5459,2.5368,2.4211,2.3754,2.3462,2.3029,2.2947,2.2791,2.2217,0.0,0.0,0.0,0.0,0.0,0.0,2.1024,2.124,2.1264,2.2419,2.2772,2.1761,2.1546,2.1303,2.0826,2.1472,2.2137,2.2693,2.6361,2.8606,2.9044,3.1124,3.2218,3.2218,3.2218,3.2218,3.2218,3.2218,3.2218,3.2218,3.2218,3.2218,3.2218,3.2218,3.2218,3.2218,3.2218,3.2218,3.2291,3.3447,3.3908,3.4043,3.5236,3.571,3.5669,3.5548,3.5345,3.5249,3.529,3.5748,3.6395,3.6841,3.7644,3.8505,3.8884,3.9129,3.9292,3.9292,3.9292,3.9292,3.9292,3.9247,3.9203,3.9292,3.9114,3.8908,3.8997,3.9042,3.9042,3.9042,3.9203,3.9292,3.9292,3.9292,3.9292,3.9292,3.9292,3.9292,3.9292,3.8966,3.864,3.845,3.8027,3.754,3.6985,3.7121,3.7292,3.7483,3.7639,3.8118,3.9031,3.8863,3.863,3.8362,3.806,3.7449,3.6647,3.689,3.6711]}]]